[[{"header":{"parameterUnit":"m.s-1","parameterCategory":1,"la1":30.6,"la2":28.766,"lo1":-90.7593,"lo2":-88.6598,"dx":0.0162,"dy":0.0183,"nx":116,"ny":114,"refTime":"2022-11-22T18:00:00:Z","depth":0,"parameterNumber":2,"parameterNumberName":"U-component_of_WINDS"},"data":[0.0,0.0,0.0,0.0,0.0,0.0,0.0,0.0,0.0,0.0,0.0,0.0,0.0,0.0,0.0,0.0,0.0,0.0,0.0,0.0,0.0,0.0,0.0,0.0,0.0,0.0,0.0,0.0,0.0,0.0,0.0,0.0,0.0,0.0,0.0,0.0,0.0,0.0,0.0,0.0,0.0,0.0,0.0,0.0,0.0,0.0,0.0,0.0,0.0,0.0,0.0,0.0,0.0,0.0,0.0,0.0,0.0,0.0,0.0,0.0,0.0,0.0,0.0,0.0,0.0,0.0,0.0,0.0,0.0,0.0,0.0,0.0,0.0,0.0,0.0,0.0,0.0,0.0,0.0,0.0,0.0,0.0,0.0,0.0,0.0,0.0,0.0,0.0,0.0,0.0,0.0,0.0,0.0,0.0,0.0,0.0,0.0,0.0,0.0,0.0,0.0,0.0,0.0,0.0,0.0,0.0,0.0,0.0,0.0,0.0,0.0,0.0,0.0,0.0,0.0,0.0,0.0,0.0,0.0,0.0,0.0,0.0,0.0,0.0,0.0,0.0,0.0,0.0,0.0,0.0,0.0,0.0,0.0,0.0,0.0,0.0,0.0,0.0,0.0,0.0,0.0,0.0,0.0,0.0,0.0,0.0,0.0,0.0,0.0,0.0,0.0,0.0,0.0,0.0,0.0,0.0,0.0,0.0,0.0,0.0,0.0,0.0,0.0,0.0,0.0,0.0,0.0,0.0,0.0,0.0,0.0,0.0,0.0,0.0,0.0,0.0,0.0,0.0,0.0,0.0,0.0,0.0,0.0,0.0,0.0,0.0,0.0,0.0,0.0,0.0,0.0,0.0,0.0,0.0,0.0,0.0,0.0,0.0,0.0,0.0,0.0,0.0,0.0,0.0,0.0,0.0,0.0,0.0,0.0,0.0,0.0,0.0,0.0,0.0,0.0,0.0,0.0,0.0,0.0,0.0,0.0,0.0,0.0,0.0,0.0,0.0,0.0,0.0,0.0,0.0,0.0,0.0,0.0,0.0,0.0,0.0,0.0,0.0,0.0,0.0,0.0,0.0,0.0,0.0,0.0,0.0,0.0,0.0,0.0,0.0,0.0,0.0,0.0,0.0,0.0,0.0,0.0,0.0,0.0,0.0,0.0,0.0,0.0,0.0,0.0,0.0,0.0,0.0,0.0,0.0,0.0,0.0,0.0,0.0,0.0,0.0,0.0,0.0,0.0,0.0,0.0,0.0,0.0,0.0,0.0,0.0,0.0,0.0,0.0,0.0,0.0,0.0,0.0,0.0,0.0,0.0,0.0,0.0,0.0,0.0,0.0,0.0,0.0,0.0,0.0,0.0,0.0,0.0,0.0,0.0,0.0,0.0,0.0,0.0,0.0,0.0,0.0,0.0,0.0,0.0,0.0,0.0,0.0,0.0,0.0,0.0,0.0,0.0,0.0,0.0,0.0,0.0,0.0,0.0,0.0,0.0,0.0,0.0,0.0,0.0,0.0,0.0,0.0,0.0,0.0,0.0,0.0,0.0,0.0,0.0,0.0,0.0,0.0,0.0,0.0,0.0,0.0,0.0,0.0,0.0,0.0,0.0,0.0,0.0,0.0,0.0,0.0,0.0,0.0,0.0,0.0,0.0,0.0,0.0,0.0,0.0,0.0,0.0,0.0,0.0,0.0,0.0,0.0,0.0,0.0,0.0,0.0,0.0,0.0,0.0,0.0,0.0,0.0,0.0,0.0,0.0,0.0,0.0,0.0,0.0,0.0,0.0,0.0,0.0,0.0,0.0,0.0,0.0,0.0,0.0,0.0,0.0,0.0,0.0,0.0,0.0,0.0,0.0,0.0,0.0,0.0,0.0,0.0,0.0,0.0,0.0,0.0,0.0,0.0,0.0,0.0,0.0,0.0,0.0,0.0,0.0,0.0,0.0,0.0,0.0,0.0,0.0,0.0,0.0,0.0,0.0,0.0,0.0,0.0,0.0,0.0,0.0,0.0,0.0,0.0,0.0,0.0,0.0,0.0,0.0,0.0,0.0,0.0,0.0,0.0,0.0,0.0,0.0,0.0,0.0,0.0,0.0,0.0,0.0,0.0,0.0,0.0,0.0,0.0,0.0,0.0,0.0,0.0,0.0,0.0,0.0,0.0,0.0,0.0,0.0,0.0,0.0,0.0,0.0,0.0,0.0,0.0,0.0,0.0,0.0,0.0,0.0,0.0,0.0,0.0,0.0,0.0,0.0,0.0,0.0,0.0,0.0,0.0,0.0,0.0,0.0,0.0,0.0,0.0,0.0,0.0,0.0,0.0,0.0,0.0,0.0,0.0,0.0,0.0,0.0,0.0,0.0,0.0,0.0,0.0,0.0,0.0,0.0,0.0,0.0,0.0,0.0,0.0,0.0,0.0,0.0,0.0,0.0,0.0,0.0,0.0,0.0,0.0,0.0,0.0,0.0,0.0,0.0,0.0,0.0,0.0,0.0,0.0,0.0,0.0,0.0,0.0,0.0,0.0,0.0,0.0,0.0,0.0,0.0,0.0,0.0,0.0,0.0,0.0,0.0,0.0,0.0,0.0,0.0,0.0,0.0,0.0,0.0,0.0,0.0,0.0,0.0,0.0,0.0,0.0,0.0,0.0,0.0,0.0,0.0,0.0,0.0,0.0,0.0,0.0,0.0,0.0,0.0,0.0,0.0,0.0,0.0,0.0,0.0,0.0,0.0,0.0,0.0,0.0,0.0,0.0,0.0,0.0,0.0,0.0,0.0,0.0,0.0,0.0,0.0,0.0,0.0,0.0,0.0,0.0,0.0,0.0,0.0,0.0,0.0,0.0,0.0,0.0,0.0,0.0,0.0,0.0,0.0,0.0,0.0,0.0,0.0,0.0,0.0,0.0,0.0,0.0,0.0,0.0,0.0,0.0,0.0,0.0,0.0,0.0,0.0,0.0,0.0,0.0,0.0,0.0,0.0,0.0,0.0,0.0,0.0,0.0,0.0,0.0,0.0,0.0,0.0,0.0,0.0,0.0,0.0,0.0,0.0,0.0,0.0,0.0,0.0,0.0,0.0,0.0,0.0,0.0,0.0,0.0,0.0,0.0,0.0,0.0,0.0,0.0,0.0,0.0,0.0,0.0,0.0,0.0,0.0,0.0,0.0,0.0,0.0,0.0,0.0,0.0,0.0,0.0,0.0,0.0,0.0,0.0,0.0,0.0,0.0,0.0,0.0,0.0,0.0,0.0,0.0,0.0,0.0,0.0,0.0,0.0,0.0,0.0,0.0,0.0,0.0,0.0,0.0,0.0,0.0,0.0,0.0,0.0,0.0,0.0,0.0,0.0,0.0,0.0,0.0,0.0,0.0,0.0,0.0,0.0,0.0,0.0,0.0,0.0,0.0,0.0,0.0,0.0,0.0,0.0,0.0,0.0,0.0,0.0,0.0,0.0,0.0,0.0,0.0,0.0,0.0,0.0,0.0,0.0,0.0,0.0,0.0,0.0,0.0,0.0,0.0,0.0,0.0,0.0,0.0,0.0,0.0,0.0,0.0,0.0,0.0,0.0,0.0,0.0,0.0,0.0,0.0,0.0,0.0,0.0,0.0,0.0,0.0,0.0,0.0,0.0,0.0,0.0,0.0,0.0,0.0,0.0,0.0,0.0,0.0,0.0,0.0,0.0,0.0,0.0,0.0,0.0,0.0,0.0,0.0,0.0,0.0,0.0,0.0,0.0,0.0,0.0,0.0,0.0,0.0,0.0,0.0,0.0,0.0,0.0,0.0,0.0,0.0,0.0,0.0,0.0,0.0,0.0,0.0,0.0,0.0,0.0,0.0,0.0,0.0,0.0,0.0,0.0,0.0,0.0,0.0,0.0,0.0,0.0,0.0,0.0,0.0,0.0,0.0,0.0,0.0,0.0,0.0,0.0,0.0,0.0,0.0,0.0,0.0,0.0,0.0,0.0,0.0,0.0,0.0,0.0,0.0,0.0,0.0,0.0,0.0,0.0,0.0,0.0,0.0,0.0,0.0,0.0,0.0,0.0,0.0,0.0,0.0,0.0,0.0,0.0,0.0,0.0,0.0,0.0,0.0,0.0,0.0,0.0,0.0,0.0,0.0,0.0,0.0,0.0,0.0,0.0,0.0,0.0,0.0,0.0,0.0,0.0,0.0,0.0,0.0,0.0,0.0,0.0,0.0,0.0,0.0,0.0,0.0,0.0,0.0,0.0,0.0,0.0,0.0,0.0,0.0,0.0,0.0,0.0,0.0,0.0,0.0,0.0,0.0,0.0,0.0,0.0,0.0,0.0,0.0,0.0,0.0,0.0,0.0,0.0,0.0,0.0,0.0,0.0,0.0,0.0,0.0,0.0,0.0,0.0,0.0,0.0,0.0,0.0,0.0,0.0,0.0,0.0,0.0,0.0,0.0,0.0,0.0,0.0,0.0,0.0,0.0,0.0,0.0,0.0,0.0,0.0,0.0,0.0,0.0,0.0,0.0,0.0,0.0,0.0,0.0,0.0,0.0,0.0,0.0,0.0,0.0,0.0,0.0,0.0,0.0,0.0,0.0,0.0,0.0,0.0,0.0,0.0,0.0,0.0,0.0,0.0,0.0,0.0,0.0,0.0,0.0,0.0,0.0,0.0,0.0,0.0,0.0,0.0,0.0,0.0,0.0,0.0,0.0,0.0,0.0,0.0,0.0,0.0,0.0,0.0,0.0,0.0,0.0,0.0,0.0,0.0,0.0,0.0,0.0,0.0,0.0,0.0,0.0,0.0,0.0,0.0,0.0,0.0,0.0,0.0,0.0,0.0,0.0,0.0,0.0,0.0,0.0,0.0,0.0,0.0,0.0,0.0,0.0,0.0,0.0,0.0,0.0,0.0,0.0,0.0,0.0,0.0,0.0,0.0,0.0,0.0,0.0,0.0,0.0,0.0,0.0,0.0,0.0,0.0,0.0,0.0,0.0,0.0,0.0,0.0,0.0,0.0,0.0,0.0,0.0,0.0,0.0,0.0,0.0,0.0,0.0,0.0,0.0,0.0,0.0,0.0,0.0,0.0,0.0,0.0,0.0,0.0,0.0,0.0,0.0,0.0,0.0,0.0,0.0,0.0,0.0,0.0,0.0,0.0,0.0,0.0,0.0,0.0,0.0,0.0,0.0,0.0,0.0,0.0,0.0,0.0,0.0,0.0,0.0,0.0,0.0,0.0,0.0,0.0,0.0,0.0,0.0,0.0,0.0,0.0,0.0,0.0,0.0,0.0,0.0,0.0,0.0,0.0,0.0,0.0,0.0,0.0,0.0,0.0,0.0,0.0,0.0,0.0,0.0,0.0,0.0,0.0,0.0,0.0,0.0,0.0,0.0,0.0,0.0,0.0,0.0,0.0,0.0,0.0,0.0,0.0,0.0,0.0,0.0,0.0,0.0,0.0,0.0,0.0,0.0,0.0,0.0,0.0,0.0,0.0,0.0,0.0,0.0,0.0,0.0,0.0,0.0,0.0,0.0,0.0,0.0,0.0,0.0,0.0,0.0,0.0,0.0,0.0,0.0,0.0,0.0,0.0,0.0,0.0,0.0,0.0,0.0,0.0,0.0,0.0,0.0,0.0,0.0,0.0,0.0,0.0,0.0,0.0,0.0,0.0,0.0,0.0,0.0,0.0,0.0,0.0,0.0,0.0,0.0,0.0,0.0,0.0,0.0,0.0,0.0,0.0,0.0,0.0,0.0,0.0,0.0,0.0,0.0,0.0,0.0,0.0,0.0,0.0,0.0,0.0,0.0,0.0,0.0,0.0,0.0,0.0,0.0,0.0,0.0,0.0,0.0,0.0,0.0,0.0,0.0,0.0,0.0,0.0,0.0,0.0,0.0,0.0,0.0,0.0,0.0,0.0,0.0,0.0,0.0,0.0,0.0,0.0,0.0,0.0,0.0,0.0,0.0,0.0,0.0,0.0,0.0,0.0,0.0,0.0,0.0,0.0,0.0,0.0,0.0,0.0,0.0,0.0,0.0,0.0,0.0,0.0,0.0,0.0,0.0,0.0,0.0,0.0,0.0,0.0,0.0,0.0,0.0,0.0,0.0,0.0,0.0,0.0,0.0,0.0,0.0,-0.1808,0.0,0.0,0.0,0.0,0.0,0.0,0.0,0.0,0.0,0.0,0.0,0.0,0.0,0.0,0.0,0.0,0.0,0.0,0.0,0.0,0.0,0.0,0.0,0.0,-1.0677,-1.0728,-1.0423,-1.0779,0.0,0.0,0.0,0.0,0.0,0.0,0.0,0.0,0.0,-1.1077,-1.1065,-1.2026,-1.3023,-1.4035,-1.383,-1.2787,-1.1183,0.0,0.0,0.0,0.0,0.0,0.0,0.0,0.0,0.0,0.0,0.0,0.0,0.0,0.0,0.0,0.0,0.0,0.0,0.0,0.0,0.0,0.0,0.0,0.0,0.0,0.0,0.0,0.0,0.0,0.0,0.0,0.0,0.0,0.0,0.0,0.0,0.0,0.0,0.0,0.0,0.0,0.0,0.0,0.0,0.0,0.0,0.0,0.0,0.0,0.0,0.0,0.0,0.0,0.0,0.0,0.0,0.0,0.0,0.0,0.0,0.0,0.0,0.0,0.0,0.0,0.0,0.0,0.0,0.0,0.0,0.0,-0.1548,0.0,0.0,0.0,0.0,0.0,0.0,0.0,0.0,0.0,0.0,0.0,0.0,0.0,0.0,0.0,0.0,0.0,0.0,0.0,0.0,0.0,-1.0079,-1.0525,-1.1099,-1.1267,-1.0779,-1.1301,-1.1519,-1.0981,-1.1183,0.0,0.0,0.0,0.0,0.0,-1.1633,-1.1822,-1.2121,-1.3811,-1.5605,-1.741,-1.7801,-1.6284,-1.3113,-1.2289,0.0,0.0,0.0,0.0,0.0,0.0,0.0,0.0,0.0,0.0,0.0,0.0,0.0,0.0,0.0,0.0,0.0,0.0,0.0,0.0,0.0,0.0,0.0,0.0,0.0,0.0,0.0,0.0,0.0,0.0,0.0,0.0,0.0,0.0,0.0,0.0,0.0,0.0,0.0,0.0,0.0,0.0,0.0,0.0,0.0,0.0,0.0,0.0,0.0,0.0,0.0,0.0,0.0,0.0,0.0,0.0,0.0,0.0,0.0,0.0,0.0,0.0,0.0,0.0,0.0,-0.1446,-0.1663,-0.1589,-0.1314,-0.1385,-0.1353,-0.1105,0.0,0.0,0.0,0.0,0.0,0.0,0.0,0.0,0.0,0.0,0.0,0.0,0.0,0.0,0.0,0.0,0.0,0.0,0.0,0.0,-1.1116,-1.1167,-1.1769,-1.2135,-1.2067,-1.2332,-1.2529,-1.2431,-1.2578,0.0,0.0,0.0,0.0,0.0,-1.2578,-1.3297,-1.4107,-1.7053,-1.9028,-2.0111,-2.0169,-1.9932,-1.9305,-1.7158,-1.5193,-1.3496,0.0,0.0,0.0,0.0,0.0,0.0,0.0,0.0,0.0,0.0,0.0,0.0,0.0,0.0,0.0,0.0,0.0,0.0,0.0,0.0,0.0,0.0,0.0,0.0,0.0,0.0,0.0,0.0,0.0,0.0,0.0,0.0,0.0,0.0,0.0,0.0,0.0,0.0,0.0,0.0,0.0,-0.1855,-0.2003,0.0,0.0,0.0,0.0,0.0,0.0,0.0,0.0,0.0,0.0,0.0,0.0,0.0,0.0,-0.1723,-0.1767,-0.1703,-0.1524,-0.1378,-0.1319,-0.1345,-0.1383,-0.1163,-0.0924,-0.1232,0.0,-0.1336,-0.0914,0.0,0.0,0.0,0.0,0.0,0.0,0.0,0.0,0.0,0.0,0.0,0.0,0.0,0.0,0.0,0.0,0.0,0.0,0.0,0.0,0.0,-1.2272,-1.2986,-1.3308,-1.4054,-1.4223,-1.3632,-1.3734,0.0,0.0,0.0,-1.2842,-1.2676,-1.3728,-1.5471,-1.7756,-2.002,-2.1651,-2.2702,-2.3055,-2.32,-2.3111,-2.2027,-1.9673,-1.6333,-1.5226,0.0,0.0,0.0,0.0,0.0,0.0,0.0,0.0,0.0,0.0,0.0,0.0,0.0,0.0,0.0,0.0,0.0,0.0,0.0,0.0,0.0,0.0,0.0,0.0,0.0,0.0,0.0,0.0,0.0,0.0,0.0,0.0,0.0,0.0,0.0,0.0,0.0,0.0,0.0,-0.1411,-0.1729,-0.1589,-0.1691,-0.1744,0.0,0.0,0.0,0.0,0.0,0.0,0.0,0.0,0.0,-0.1721,-0.1766,-0.1293,-0.038,-0.0387,-0.0473,-0.0646,-0.0727,-0.0726,-0.0483,-0.0577,-0.0579,-0.0572,-0.049,-0.0798,-0.1302,-0.081,-0.0718,-0.0851,0.0,0.0,0.0,0.0,0.0,0.0,0.0,0.0,0.0,0.0,0.0,0.0,0.0,0.0,0.0,0.0,0.0,0.0,-1.1904,-1.3215,-1.4223,-1.4576,-1.5414,-1.5495,-1.4431,-1.4468,-1.4003,0.0,0.0,-1.3017,-1.3258,-1.5351,-1.8093,-2.1468,-2.2941,-2.4262,-2.5506,-2.589,-2.6083,-2.6083,-2.5954,-2.3409,-1.9091,-1.7615,-1.6197,-1.4831,0.0,0.0,0.0,0.0,0.0,0.0,0.0,0.0,0.0,0.0,0.0,0.0,0.0,0.0,0.0,0.0,0.0,0.0,0.0,0.0,0.0,0.0,0.0,0.0,0.0,0.0,0.0,0.0,0.0,0.0,0.0,0.0,0.0,0.0,0.0,0.0,0.0,-0.1395,-0.1511,-0.1526,-0.1599,-0.175,0.0,0.0,0.0,0.0,0.0,0.0,-0.1767,-0.1574,-0.1395,-0.1168,-0.1249,-0.0729,0.0488,0.0754,0.0599,0.0087,-0.0173,-0.0171,-0.0084,-0.0257,-0.0342,-0.0337,-0.0253,-0.0674,-0.126,-0.0726,-0.0627,-0.0696,0.0625,0.0786,0.0,0.0314,0.0314,0.0393,0.0,0.0,0.0,0.0,0.0,0.0,0.0,0.0,0.0,0.0,0.0,-1.2687,-1.3261,-1.4976,-1.6097,-1.6097,-1.609,-1.5619,-1.4544,-1.4524,-1.4003,-1.293,-1.2891,-1.3142,-1.3721,-1.7521,-2.1188,-2.4696,-2.5845,-2.7156,-2.8663,-2.849,-2.8444,-2.8444,-2.826,-2.5623,-2.1327,-2.1565,-2.0014,-1.7206,-1.6084,0.0,0.0,0.0,0.0,0.0,0.0,0.0,0.0,0.0,0.0,0.0,0.0,0.0,0.0,0.0,0.0,0.0,0.0,0.0,0.0,0.0,0.0,0.0,0.0,0.0,0.0,0.0,0.0,0.0,0.0,0.0,0.0,0.0,0.0,0.0,0.0,0.0,0.0,-0.252,-0.1884,0.0,0.0,0.0,0.0,-0.1736,-0.1744,-0.1748,-0.1818,-0.125,-0.0463,0.0565,0.0169,-0.0087,-0.0,0.0877,0.1044,0.0435,0.017,-0.0169,-0.0589,-0.1012,-0.0759,-0.0084,-0.0926,-0.1348,-0.1261,-0.0657,-0.0244,0.0081,0.0951,0.1257,0.1257,0.1257,0.1257,0.1257,0.0,0.0,0.0,-1.1451,-1.115,-1.0694,-0.9562,-0.9666,-0.9821,-0.9718,-1.2247,-1.3884,-1.3522,-1.6262,-1.7978,-1.7609,-1.8601,-1.8944,-1.8168,-1.749,-1.68,-1.6093,-1.4992,-1.5611,-1.8081,-2.1032,-2.3443,-2.5325,-2.6841,-2.7749,-2.8109,-2.8427,-2.86,-2.8573,-2.823,-2.6895,-2.4878,-2.3433,-2.1926,-2.0389,-1.8016,-1.6001,0.0,0.0,0.0,0.0,0.0,0.0,0.0,0.0,0.0,0.0,0.0,0.0,0.0,0.0,0.0,0.0,0.0,0.0,0.0,0.0,0.0,0.0,0.0,0.0,0.0,0.0,0.0,0.0,0.0,0.0,0.0,0.0,0.0,0.0,0.0,0.0,0.0,-0.1198,-0.1217,0.0,0.0,-0.1597,-0.212,-0.2882,-0.1194,-0.0,0.0232,-0.0082,-0.0,0.068,0.0863,0.0873,0.0879,0.0873,0.0788,0.0622,0.0804,0.0627,0.009,-0.0273,-0.0,0.0913,0.0548,-0.0274,-0.137,-0.1088,-0.0706,-0.017,0.0257,0.0864,0.1401,0.1401,0.1325,0.1341,0.0,0.0,0.0,-1.1868,-1.1601,-1.1099,-0.9909,-1.0218,-1.0601,-1.0754,-1.3212,-1.5075,-1.5303,-1.7696,-1.9258,-1.9004,-2.019,-2.0495,-1.9354,-1.8956,-1.8335,-1.7261,-1.682,-1.8177,-2.1459,-2.3343,-2.4951,-2.6477,-2.7419,-2.8118,-2.8573,-2.8725,-2.8964,-2.9131,-2.863,-2.8099,-2.7525,-2.538,-2.3928,-2.2881,-2.0136,-1.773,-1.5669,0.0,0.0,0.0,0.0,0.0,0.0,0.0,0.0,0.0,0.0,0.0,0.0,0.0,0.0,0.0,0.0,0.0,0.0,0.0,0.0,0.0,0.0,0.0,0.0,0.0,0.0,0.0,0.0,0.0,0.0,0.0,0.0,0.0,0.0,0.0,-0.0,-0.0347,-0.0448,-0.0614,-0.0869,-0.0817,-0.1288,-0.2276,-0.0644,0.0747,0.1401,0.0772,0.0613,0.0958,0.1219,0.1403,0.1423,0.1067,0.0898,0.1008,0.1022,0.0935,0.0654,0.0379,0.0572,0.1144,0.1049,0.0191,-0.1049,-0.1049,-0.0746,-0.018,-0.0091,0.037,0.0935,0.1215,0.1225,0.1242,0.0,0.0,-1.2725,-1.2166,-1.195,-1.1416,-1.0218,-1.0474,-1.1262,-1.2505,-1.4294,-1.6318,-1.8566,-1.9354,-1.9882,-2.0274,-2.0624,-1.9999,-1.7895,-1.8659,-1.8261,-1.6333,-1.8258,-2.0772,-2.3604,-2.434,-2.5909,-2.8386,-2.7837,-2.849,-3.0295,-2.9565,-2.9562,-3.0155,-2.9668,-2.9274,-2.8986,-2.7497,-2.6114,-2.459,-2.2479,-2.0138,-1.7656,0.0,0.0,0.0,0.0,0.0,0.0,0.0,0.0,0.0,0.0,0.0,0.0,0.0,0.0,0.0,0.0,0.0,0.0,0.0,0.0,0.0,0.0,0.0,0.0,0.0,0.0,0.0,0.0,0.0,0.0,0.0,0.0,0.0,-0.0455,0.0219,0.054,-0.0,0.0306,0.0239,-0.0732,0.0082,0.0499,0.0087,0.0087,0.0431,0.1351,0.1435,0.1366,0.1395,0.1397,0.1425,0.1482,0.1482,0.1497,0.143,0.0764,0.0668,0.0954,0.0764,0.0573,0.0478,0.0191,-0.0096,-0.0382,-0.0382,-0.0191,0.0096,-0.0,-0.0,0.0095,0.0668,0.0955,0.0961,-1.2812,-1.2822,-1.2559,-1.1981,-1.2098,-1.19,-1.0626,-1.1334,-1.2489,-1.383,-1.6138,-1.8004,-1.8755,-2.036,-2.1278,-2.1145,-2.1735,-2.1983,-2.1688,-2.1214,-2.0485,-1.9381,-2.2573,-2.4493,-2.4849,-2.6852,-2.804,-2.8179,-2.8855,-2.9422,-2.995,-3.0023,-3.0079,-3.012,-2.9847,-2.9456,-2.8893,-2.7713,-2.6905,-2.6339,-2.4377,-2.2412,-2.0466,0.0,0.0,0.0,0.0,0.0,0.0,0.0,0.0,0.0,0.0,0.0,0.0,0.0,0.0,0.0,0.0,0.0,0.0,0.0,0.0,0.0,0.0,0.0,0.0,0.0,0.0,0.0,0.0,0.0,0.0,0.0,0.0,0.0915,0.0749,0.0385,0.0396,0.089,0.0665,0.0421,0.0251,0.0424,0.0683,0.102,0.1036,0.1129,0.1381,0.1421,0.1448,0.1365,0.1478,0.1403,0.1135,0.104,0.0948,0.0763,0.0387,-0.0097,-0.0682,0.0692,0.0497,-0.0994,-0.1094,-0.0696,-0.0099,-0.0497,-0.0597,-0.0595,-0.0482,-0.0289,-0.0,-0.0584,0.0099,0.1325,-1.2793,-1.2822,-1.2676,-1.2344,-1.251,-1.2314,-1.1266,-1.1999,-1.3311,-1.5158,-1.6618,-1.8165,-1.9797,-2.0532,-2.0971,-2.1354,-2.1681,-2.1931,-2.2154,-2.2005,-2.2154,-2.2664,-2.5192,-2.6642,-2.6704,-2.8357,-2.9073,-2.8905,-2.9431,-2.9971,-3.0422,-3.0395,-3.0465,-3.0535,-3.0184,-2.9794,-2.9236,-2.8187,-2.7392,-2.6716,-2.5419,-2.3722,-2.1815,-2.0951,-1.9186,-1.7056,-1.5625,-1.4371,-1.322,-1.1255,0.0,0.0,0.0,0.0,0.0,0.0,0.0,0.0,0.0,0.0,0.0,0.0,0.0,0.0,0.0,0.0,0.0,0.0,0.0,0.0,0.0,0.0,0.0,0.0,0.0691,0.1145,0.1412,0.0916,0.067,0.1023,0.0863,0.0778,0.0768,0.0856,0.0943,0.111,0.1296,0.1306,0.1045,0.1087,0.1295,0.148,0.151,0.1437,0.1255,0.1159,0.1067,0.0977,0.0791,0.0298,-0.0397,0.0704,0.0505,0.0,-0.1112,-0.071,-0.0,-0.0307,-0.0719,0.0,0.0,0.0,0.0,0.0,-0.0,0.1249,-1.2782,-1.2852,-1.2891,-1.2891,-1.2891,-1.2657,-1.1981,-1.2461,-1.3789,-1.637,-1.6427,-1.7542,-2.1014,-2.0294,-2.0138,-2.1354,-2.1125,-2.0917,-2.0963,-2.2031,-2.3516,-2.5611,-2.6748,-2.7729,-2.8656,-2.9147,-2.9627,-3.0173,-2.9902,-3.0372,-3.137,-3.0831,-3.085,-3.1236,-3.0751,-3.0262,-2.975,-2.8943,-2.7768,-2.6455,-2.5849,-2.4414,-2.2441,-2.1509,-1.9788,-1.7624,-1.644,-1.5283,-1.4244,-1.3014,0.0,0.0,0.0,0.0,0.0,0.0,0.0,0.0,0.0,0.0,0.0,0.0,0.0,0.0,0.0,0.0,0.0,0.0,0.0,0.0,0.0,0.0,0.0,0.0,0.1041,0.1185,0.1787,0.1621,0.1251,0.07,0.1046,0.122,0.0874,0.1202,0.1199,0.0786,0.1049,0.1048,0.0611,0.0,0.0,0.0,0.0,0.1545,0.157,0.1575,0.159,0.1617,0.1516,0.1214,0.0709,0.0709,0.0406,-0.0203,-0.0508,-0.041,-0.0208,-0.0104,-0.0736,-0.1489,-0.0412,-0.0305,-0.0712,-0.0,0.0412,0.0,-1.2483,-1.2637,-1.2891,-1.2891,-1.2891,-1.2822,-1.2559,-1.2725,-1.3945,-1.6839,-1.7119,-1.8075,-2.0731,-2.1298,-2.1583,-2.1886,-2.1919,-2.2184,-2.2526,-2.4275,-2.5492,-2.6034,-2.8099,-2.9186,-2.9122,-3.0062,-3.0517,-3.0517,-3.1421,-3.1889,-3.1863,-3.2011,-3.1876,-3.1622,-3.1299,-3.0724,-3.0026,-2.9849,-2.8795,-2.7193,-2.6142,-2.4823,-2.3383,-2.3311,-2.2628,-2.15,-2.0561,-1.9353,-1.7863,-1.5357,-1.4064,-1.3317,-1.1628,-1.0378,0.0,0.0,0.0,0.0,0.0,0.0,0.0,0.0,0.0,0.0,0.0,0.0,0.0,0.0,0.0,0.0,0.0,0.0,0.0,0.1118,0.1832,0.2218,0.2026,0.184,0.1644,0.1251,0.1054,0.0969,0.1276,0.1346,0.1251,0.073,0.045,0.0624,0.116,0.0913,0.0,0.0277,0.115,0.1565,0.1572,0.1596,0.1611,0.1617,0.0,0.0,0.0103,0.0103,-0.0417,-0.1267,-0.1374,-0.1376,-0.138,-0.1062,-0.117,-0.1598,-0.0423,-0.0211,-0.0422,0.0857,0.0864,0.0325,-1.3073,-1.3124,-1.3162,-1.292,-1.2891,-1.2871,-1.2822,-1.2871,-1.3779,-1.6222,-1.6137,-1.6713,-1.8883,-1.9292,-1.972,-2.0482,-2.162,-2.2545,-2.3352,-2.4878,-2.6238,-2.7356,-2.8799,-2.9758,-3.019,-3.0795,-3.1377,-3.1924,-3.2504,-3.2665,-3.254,-3.2724,-3.2511,-3.1964,-3.1751,-3.1228,-3.0529,-3.0268,-2.8864,-2.6919,-2.6142,-2.4568,-2.2703,-2.3001,-2.2777,-2.2101,-2.0951,-1.9944,-1.8928,-1.6534,-1.5607,-1.5126,-1.3536,-1.2529,-1.1558,0.0,0.0,0.0,0.0,0.0,0.0,0.0,0.0,0.0,0.0,0.0,0.0,0.0,0.0,-0.0554,0.0,0.0,0.1145,0.1425,0.1777,0.1936,0.1734,0.1838,0.1745,0.1438,0.1244,0.1158,0.1364,0.1431,0.1243,0.0718,0.0267,0.0088,0.0088,0.0273,0.0277,-0.0,0.0476,0.1065,0.1549,0.1594,0.1617,0.1617,0.1441,0.1147,0.0737,0.021,-0.0317,-0.0854,-0.1387,-0.1715,-0.173,-0.1527,-0.1313,-0.1093,-0.0328,-0.0216,-0.0533,0.0753,0.0863,0.054,-1.3762,-1.3704,-1.3573,-1.3113,-1.2968,-1.2891,-1.2891,-1.2891,-1.3541,-1.5301,-1.4952,-1.5158,-1.6917,-1.7056,-1.7512,-1.8964,-2.1144,-2.2847,-2.3713,-2.5314,-2.6919,-2.8519,-2.9118,-2.9977,-3.1105,-3.1322,-3.1959,-3.3225,-3.3225,-3.3157,-3.3038,-3.3146,-3.2829,-3.2227,-3.1964,-3.1622,-3.1104,-3.0351,-2.8623,-2.6368,-2.5796,-2.3974,-2.1741,-2.2025,-2.1873,-2.1395,-2.0041,-1.9169,-1.8476,-1.7122,-1.6587,-1.6237,-1.5281,-1.4638,-1.3741,-1.086,-1.0005,0.0,0.0,0.0,0.0,0.0,0.0,0.0,0.0,0.0,-0.2592,-0.1467,-0.0682,-0.0,0.0397,0.0995,0.155,0.193,0.1798,0.1644,0.1644,0.1847,0.1758,0.1547,0.1453,0.1455,0.137,0.1251,0.1059,0.062,0.0176,-0.0263,-0.1051,-0.0362,-0.0,-0.0,0.0094,0.0572,0.143,0.1587,0.1721,0.1728,0.1674,0.1703,0.1608,0.0643,0.0107,-0.0,-0.097,-0.152,-0.176,-0.1785,-0.1458,-0.0785,-0.0224,-0.0331,-0.0646,0.054,0.0973,0.0974,-1.3961,-1.3978,-1.4071,-1.3621,-1.3162,-1.2891,-1.2891,-1.2891,-1.339,-1.472,-1.4673,-1.5003,-1.6374,-1.7119,-1.7938,-1.9,-2.1839,-2.3616,-2.3761,-2.6623,-2.8344,-2.8457,-2.9263,-3.0099,-3.0877,-3.1198,-3.2079,-3.3395,-3.3395,-3.3344,-3.3352,-3.2791,-3.2639,-3.2757,-3.1603,-3.1339,-3.1602,-3.0209,-2.84,-2.6292,-2.5027,-2.3221,-2.1282,-2.1128,-2.0876,-2.0527,-1.9788,-1.8235,-1.6644,-1.7497,-1.6661,-1.5355,-1.6221,-1.5764,-1.4436,-1.2026,-1.0574,-0.9284,-0.7234,-0.5919,-0.4702,-0.3138,-0.2916,-0.2798,0.0,0.0,-0.2397,-0.1478,-0.0807,-0.0166,0.0333,0.1404,0.2289,0.2573,0.2657,0.2622,0.2622,0.2206,0.19,0.1896,0.18,0.1622,0.1068,0.0846,0.0556,0.0094,-0.0,-0.0,-0.0179,-0.009,-0.0,-0.0,0.0468,0.0763,0.0858,0.1389,0.163,0.1658,0.1663,0.1695,0.1636,0.0981,0.044,-0.0,-0.0112,-0.0781,-0.179,-0.1794,-0.1795,-0.157,-0.0449,-0.0224,-0.0447,0.1134,0.1711,0.1715,-1.5054,-1.4586,-1.4351,-1.4444,-1.3573,-1.2891,-1.2891,-1.2891,-1.3066,-1.3613,-1.362,-1.3782,-1.4305,-1.5437,-1.6417,-1.718,-2.0653,0.0,-2.328,-2.6215,-2.8154,-2.8633,-2.8895,-2.9499,-3.0505,-3.0748,-3.1543,-3.276,-3.3013,-3.3081,-3.2957,-3.3013,-3.2555,-3.1795,-3.1411,-3.0854,-3.0113,-2.9,-2.7279,-2.5119,-2.4082,-2.2759,-2.1332,-2.0779,-2.0434,-2.0186,-1.8889,-1.7464,0.0,-1.625,-1.5576,-1.4834,-1.6137,-1.5606,-1.4096,-1.2219,-1.0904,-0.9535,-0.6838,-0.5549,-0.4511,-0.2949,-0.2703,-0.2646,-0.2134,-0.2301,-0.2397,-0.1934,-0.0723,0.0276,0.0368,0.1583,0.2541,0.0,0.2485,0.2404,0.209,0.2114,0.2036,0.1747,0.1568,0.1465,0.1332,0.1215,0.0925,0.0092,-0.0,-0.0,-0.0,0.0636,0.1011,0.1024,0.0956,0.0976,0.1283,0.1535,0.1779,0.1793,0.1723,0.1752,0.1776,0.1443,0.0891,-0.0,-0.0,-0.0336,-0.0786,-0.1133,-0.1252,-0.1253,-0.0575,-0.0,0.0577,0.1612,0.184,0.1844,-1.5603,-1.4812,-1.4212,-1.4651,-1.3716,-1.292,-1.3065,-1.2968,-1.2891,-1.2891,-1.2891,-1.2891,-1.2891,-1.3959,-1.4967,-1.5604,-1.9042,0.0,0.0,-2.5397,-2.7334,-2.853,-2.8578,-2.8979,-2.9942,-3.0263,-3.0979,-3.193,-3.218,-3.2298,-3.2251,-3.2441,-3.1847,-3.0679,-3.0481,-2.9787,-2.8586,-2.7339,-2.5884,-2.4193,-2.3315,-2.2439,-2.1531,-2.1086,-2.0428,-1.966,-1.8089,-1.6606,-1.5204,-1.4698,-1.3916,-1.3369,-1.4643,-1.43,-1.3141,-1.1523,-1.0191,-0.8723,-0.6193,-0.5018,-0.4156,-0.2838,-0.2463,-0.2375,-0.2444,-0.244,-0.2338,-0.2122,-0.059,0.0696,0.0494,0.1855,0.2905,0.2714,0.2509,0.2396,0.2185,0.2127,0.1966,0.1484,0.1102,0.0893,0.0945,0.1217,0.111,0.0454,0.018,0.009,0.0453,0.1194,0.1681,0.1716,0.1361,0.1288,0.1718,0.1771,0.1808,0.1825,0.1761,0.1787,0.1795,0.1795,0.1121,-0.0,-0.0338,-0.0565,-0.0565,-0.046,-0.0579,-0.0811,-0.0235,0.0471,0.1177,0.1754,0.2208,0.2437,-1.5108,-1.4305,-1.3621,-1.3668,-1.3258,-1.3065,-1.3525,-1.321,-1.2891,-1.2891,-1.2891,-1.2891,-1.2891,-1.3354,-1.4047,-1.5028,0.0,0.0,0.0,-2.4482,-2.6113,-2.7867,-2.8498,-2.8899,-2.9022,-2.9724,-3.0399,-3.1108,-3.0918,-3.0943,-3.1133,-3.0586,-3.018,-2.9798,-2.8481,-2.7894,-2.781,-2.5461,-2.4227,-2.3716,-2.2783,-2.2066,-2.165,-2.2251,-2.0986,-1.8798,-1.7569,-1.5339,-1.298,-1.2966,-1.1599,-1.0147,-1.1261,-1.1735,-1.1537,-0.9777,-0.7944,-0.6178,-0.5219,-0.4262,-0.3446,-0.2799,-0.2024,-0.1585,-0.1939,-0.1987,-0.1913,-0.1715,-0.0307,0.0823,0.0809,0.2318,0.3528,0.3528,0.3075,0.2958,0.362,0.2283,0.1186,0.1108,0.0505,-0.01,0.0,0.0289,0.104,0.1482,0.0545,0.0453,0.1478,0.1573,0.1587,0.1621,0.1555,0.1585,0.1718,0.1751,0.1692,0.1748,0.175,0.1767,0.1795,0.1795,0.1121,-0.0112,-0.1369,-0.1954,-0.1842,0.0117,0.0353,-0.0471,0.0589,0.0825,0.0826,0.1678,0.286,0.3889,-1.5108,-1.4536,-1.4165,-1.4558,-1.3905,-1.343,-1.3573,-1.321,-1.3017,-1.3334,-1.3334,0.0,0.0,0.0,0.0,0.0,0.0,0.0,0.0,-2.2229,-2.4209,-2.4839,-2.6109,-2.7149,-2.7766,-2.8255,-2.8736,-2.9261,-2.9402,-2.9237,-2.8654,-2.8641,-2.8225,-2.7469,-2.7182,-2.661,-2.5924,-2.4557,-2.3731,-2.3262,-2.2595,-2.2391,-2.2551,-2.1174,-2.0079,-1.8783,0.0,-1.3155,-1.144,-1.1119,-1.0134,-0.9309,-1.0906,-1.0654,-0.9604,-0.8249,-0.7447,-0.6829,-0.5976,-0.5072,-0.4202,-0.3144,-0.2321,-0.1813,-0.1983,-0.1928,-0.1853,-0.2159,-0.1023,-0.0101,-0.0397,0.1175,0.2536,0.2172,0.2589,0.3007,0.2725,0.2007,0.1203,0.0504,-0.0202,0.0,0.0,0.0,0.0,0.0556,0.0828,0.1194,0.1573,0.1614,0.1651,0.1685,0.1615,0.1645,0.1674,0.1792,0.1818,0.175,0.177,0.1562,0.1121,0.4042,0.4151,0.1906,-0.0342,-0.1608,-0.1842,-0.0355,0.0599,0.1198,0.1574,0.1581,0.1582,0.1835,0.3512,0.5148,0.0,-1.4118,-1.3884,-1.428,-1.3763,0.0,0.0,0.0,0.0,0.0,0.0,0.0,0.0,0.0,0.0,0.0,0.0,0.0,0.0,0.0,-2.1618,-2.2435,-2.3599,-2.4504,-2.517,-2.5455,-2.5747,-2.6014,-2.6599,-2.6631,-2.6162,-2.6753,-2.6497,-2.5636,-2.5616,-2.5104,-2.4284,-2.3536,-2.3021,-2.2694,-2.1668,-2.1409,-2.1487,-1.9429,-1.8137,0.0,-1.395,-1.1553,-0.9701,-0.9233,-0.848,-0.8007,-0.9185,-0.8974,-0.8142,-0.7551,-0.7285,-0.7106,-0.6451,-0.5363,-0.4314,-0.3587,-0.2612,-0.187,-0.2041,-0.188,-0.1796,-0.2097,-0.1233,-0.0501,-0.0878,0.0665,0.1688,0.0956,0.2038,0.2757,0.2294,0.1598,0.0799,-0.04,-0.09,-0.129,0.0,0.0,0.0,0.0281,0.1115,0.1583,0.1606,0.1647,0.1585,0.1615,0.1636,0.1555,0.1372,0.1479,0.1492,0.1409,0.1874,0.1662,0.1102,0.3347,0.4039,0.337,0.0115,-0.1628,-0.1874,-0.1083,0.0122,0.1584,0.16,0.173,0.2099,0.2454,0.3764,0.5068,0.0,0.0,-1.292,0.0,0.0,0.0,0.0,0.0,0.0,0.0,0.0,0.0,0.0,0.0,0.0,0.0,0.0,0.0,0.0,0.0,0.0,-2.0577,-2.0975,-2.1262,-2.1494,-2.1541,-2.168,-2.1862,-2.27,-2.3199,-2.3569,-2.4578,-2.4787,-2.4114,-2.368,-2.322,-2.2746,-2.2178,-2.1914,-2.1813,-2.0081,-1.9108,-1.86,-1.706,-1.5283,-1.3424,-1.2617,-1.0449,-0.7892,-0.7491,-0.6827,-0.611,-0.6406,-0.6795,-0.7223,-0.7483,-0.722,-0.6798,-0.6642,-0.5292,-0.392,-0.3947,-0.2792,-0.1738,-0.201,-0.1945,-0.174,-0.1707,-0.1033,-0.0498,0.0,0.0,0.1171,0.0184,0.1388,0.2353,0.2146,0.1178,-0.0,0.0,0.0,0.0,0.0,0.0,0.0,0.0573,0.0,0.1605,0.1568,0.1573,0.1587,0.1615,0.1617,0.1325,0.083,0.083,0.0733,0.0638,0.1841,0.2057,0.1599,0.0331,0.1456,0.4164,0.0116,-0.1664,-0.1692,-0.1842,-0.0864,0.0741,0.0988,0.1605,0.2342,0.3396,0.3853,0.3982,0.0,0.0,0.0,0.0,0.0,0.0,0.0,0.0,0.0,0.0,0.0,0.0,0.0,0.0,0.0,0.0,0.0,0.0,0.0,0.0,0.0,0.0,0.0,0.0,-1.9782,-1.9643,-1.9716,-2.0063,-1.992,-1.9508,-1.8947,-1.9403,-1.9495,-1.937,-1.8797,-1.8743,-1.9004,-1.8411,-1.8173,-1.8156,-1.7853,-1.7383,-1.6776,-1.4655,-1.3355,-1.2289,-0.985,-0.8189,-0.7192,-0.7089,-0.6476,-0.6037,-0.7236,-0.7087,-0.6613,-0.7055,-0.681,-0.6329,-0.628,-0.512,-0.3821,-0.3546,-0.2693,-0.1903,-0.1838,-0.1853,-0.1729,-0.1654,-0.1392,-0.1332,-0.1621,0.0,0.0,-0.0367,0.0095,0.0,0.1198,0.0802,0.0,-0.1673,0.0,-0.1754,-0.1912,-0.1908,0.0,0.0,0.0873,0.1555,0.157,0.1594,0.1609,0.1617,0.1617,0.152,0.1424,0.0206,-0.0624,-0.0941,0.0957,0.1498,0.0852,0.3007,0.3935,0.3589,0.2517,0.1996,0.2052,0.0245,0.037,0.1725,0.271,0.3815,0.4916,0.4529,0.5339,0.6865,0.0,0.0,0.0,0.0,0.0,0.0,0.0,0.0,0.0,0.0,0.0,0.0,0.0,0.0,0.0,0.0,0.0,0.0,0.0,0.0,0.0,0.0,0.0,0.0,-1.6934,-1.6621,-1.6772,-1.7311,-1.7139,-1.6824,-1.6482,-1.6886,-1.7028,-1.6872,-1.6576,-1.6594,-1.6872,-1.6645,-1.6437,0.0,0.0,-1.4924,-1.4163,-1.1825,-1.0783,-1.0336,-0.8354,-0.7268,-0.6876,-0.714,-0.6547,-0.5942,-0.6891,-0.6891,-0.6715,-0.7161,-0.6814,-0.6299,-0.634,-0.5032,-0.3607,-0.3497,-0.2731,-0.1915,-0.1693,-0.1701,-0.1682,-0.1579,-0.1603,-0.1717,-0.1987,-0.1113,-0.0606,0.0,0.0,0.0,0.0196,-0.0,-0.0489,0.0,-0.1627,0.0,-0.2141,-0.1403,-0.0661,0.0,0.0389,0.0789,0.0894,0.1005,0.1112,0.1213,0.1516,0.1112,0.0202,-0.1123,-0.1436,-0.0615,0.1252,0.2096,0.1976,0.4043,0.4785,0.4215,0.0,0.1883,0.2413,0.2207,0.2589,0.3202,0.4057,0.5039,0.5892,0.5851,0.6774,0.8056,0.0,0.0,0.0,0.0,0.0,0.0,0.0,0.0,0.0,0.0,-1.2891,0.0,0.0,0.0,0.0,0.0,0.0,0.0,0.0,0.0,0.0,0.0,0.0,0.0,-1.3883,-1.3528,-1.3625,-1.4241,-1.4451,-1.4639,-1.479,-1.5345,-1.5493,-1.5255,-1.5188,-1.5188,-1.5255,-1.539,-1.5103,-1.4546,-1.2959,-1.1918,-1.1136,0.0,-0.8209,-0.8049,-0.7492,-0.6942,-0.6591,-0.7245,-0.6747,-0.5817,-0.6166,-0.6479,-0.6734,-0.6982,-0.6569,-0.615,-0.6274,-0.486,-0.3285,-0.3397,-0.2523,-0.169,-0.1636,-0.164,-0.1621,-0.1587,-0.1606,-0.1809,-0.201,-0.1503,-0.1432,-0.2497,0.0,0.074,-0.0189,-0.0473,-0.047,-0.0092,-0.1475,-0.2472,-0.2518,-0.073,0.0553,0.0829,0.0096,-0.0198,0.0301,0.0303,0.0303,0.0606,0.1011,0.0404,-0.1617,-0.2326,-0.1615,0.0504,0.215,0.3173,0.3635,0.4239,0.4889,0.5482,0.0,0.0,0.1209,0.3916,0.5053,0.4943,0.5165,0.577,0.6499,0.7621,0.8176,0.8522,0.0,0.0,0.0,0.0,0.0,0.0,0.0,0.0,0.0,0.0,-1.2891,-1.2891,0.0,0.0,0.0,0.0,0.0,0.0,0.0,0.0,0.0,0.0,0.0,0.0,0.0,-1.2501,-1.2323,-1.2187,-1.1909,-1.1527,-1.1015,-1.1414,-1.1535,-1.1355,-1.0934,-1.0989,-1.1355,-1.0919,-1.0494,-0.9966,-0.9644,-0.8908,-0.7909,-0.7464,0.0,0.0,-0.6381,-0.5918,-0.5503,-0.6003,-0.6015,-0.586,-0.6477,-0.5978,-0.5128,-0.4829,-0.443,-0.405,-0.3751,-0.318,-0.2581,-0.2108,-0.1912,-0.1696,-0.1662,-0.1639,-0.1583,-0.1616,-0.1659,-0.1793,-0.2088,-0.1938,-0.1485,-0.0589,0.0432,0.1336,0.2032,0.1557,0.082,0.0,-0.1001,-0.1711,-0.2424,-0.1003,0.0,0.0,0.0,0.0,0.1966,-0.01,-0.1011,-0.0505,-0.0404,-0.0808,-0.1617,-0.0605,-0.0101,0.0101,0.2427,0.3537,0.3632,0.4957,0.5845,0.6245,0.0,0.0,0.135,0.4737,0.6385,0.6888,0.7281,0.8099,0.9201,0.9667,0.9827,0.9856,0.0,0.0,0.0,0.0,0.0,0.0,0.0,-1.2891,-1.2891,-1.2891,-1.2891,-1.2891,-1.2891,-1.2891,-1.2891,0.0,0.0,0.0,0.0,0.0,0.0,0.0,0.0,0.0,0.0,0.0,0.0,0.0,0.0,-1.0682,-1.0369,-1.0285,-1.0079,-0.9769,-0.951,-0.951,-0.9614,-0.9079,-0.8606,-0.8302,-0.8037,-0.761,-0.7085,0.0,0.0,0.0,-0.5673,-0.5276,-0.4699,-0.5235,-0.5495,-0.5545,-0.5436,-0.4659,-0.3745,-0.4054,-0.4021,-0.3717,-0.3391,-0.2961,-0.2536,-0.2192,-0.1983,-0.1843,-0.1757,-0.1628,-0.1475,-0.1554,-0.1593,-0.1812,-0.2355,-0.2203,-0.1795,-0.1318,0.0429,0.1861,0.2323,0.1862,0.1415,0.1248,0.0088,-0.0871,-0.1233,0.0264,0.1496,0.0,0.0,0.0,0.1465,-0.0499,-0.1617,-0.1617,-0.06,-0.03,-0.0807,0.04,0.1197,0.1712,0.2819,0.3823,0.4638,0.57,0.6253,0.6588,0.0,0.0,0.3801,0.6474,0.7527,0.7368,0.8471,0.9207,0.9822,1.0186,1.0379,1.0568,0.0,0.0,0.0,0.0,0.0,0.0,0.0,-1.2891,-1.2891,-1.2891,-1.2891,-1.2871,-1.2725,-1.2822,-1.2891,0.0,0.0,0.0,0.0,0.0,0.0,0.0,0.0,0.0,0.0,0.0,0.0,0.0,-1.0737,0.0,0.0,0.0,0.0,0.0,-0.8896,-0.8791,-0.8633,-0.8196,-0.7812,0.0,0.0,-0.6923,0.0,0.0,0.0,0.0,0.0,-0.4861,-0.417,-0.4736,-0.5041,-0.487,-0.4116,-0.3284,-0.281,-0.3622,-0.3776,-0.3566,-0.3303,-0.2941,-0.2587,-0.247,-0.215,-0.1883,-0.1737,-0.1519,-0.1377,-0.1428,-0.1604,-0.1896,-0.2478,-0.2447,-0.2312,-0.2173,-0.0168,0.1645,0.2241,0.1803,0.1714,0.2492,0.1017,0.0,-0.0086,0.1438,0.0,0.0,0.0,0.0,0.0,-0.0898,-0.1814,-0.2009,-0.0495,0.0197,0.01,0.1177,0.2065,0.3004,0.3399,0.4307,0.5641,0.6142,0.6563,0.6823,0.0,0.0,0.0,0.8054,0.8164,0.7365,0.9163,0.9822,0.9943,1.0308,1.0785,1.1027,0.0,0.0,0.0,0.0,0.0,0.0,0.0,-1.2891,-1.2891,-1.2891,-1.2891,-1.2725,-1.2234,-1.2627,-1.2891,0.0,0.0,0.0,0.0,0.0,0.0,0.0,0.0,0.0,0.0,0.0,0.0,0.0,0.0,0.0,0.0,0.0,0.0,0.0,0.0,-0.7622,-0.7622,-0.7568,0.0,0.0,0.0,0.0,0.0,0.0,0.0,0.0,0.0,-0.4435,-0.4041,-0.4411,-0.4428,-0.4017,-0.296,-0.2799,-0.2861,-0.2497,-0.2366,-0.2281,-0.2084,-0.2255,-0.2427,-0.2166,-0.1843,-0.1585,-0.1463,-0.1414,-0.1435,-0.1647,-0.1677,-0.1823,-0.2335,-0.2865,-0.2847,-0.1641,-0.1166,-0.0,0.2923,0.2566,0.1977,0.2014,0.1176,0.0336,-0.0168,0.1174,0.0,0.0,0.0,0.0,0.0,-0.1396,-0.1802,-0.0688,-0.0687,-0.0389,0.0574,0.1624,0.2216,0.2355,0.4121,0.5152,0.5641,0.6266,0.6698,0.6812,0.0,0.0,0.0,0.7869,0.8011,0.7357,0.9079,0.9943,1.0301,1.0914,1.1398,1.176,0.0,0.0,0.0,0.0,0.0,0.0,-1.2891,-1.2627,-1.2431,-1.2431,-1.2116,-1.1858,-1.1834,-1.1861,-1.1868,-1.1868,0.0,0.0,0.0,0.0,0.0,0.0,0.0,0.0,0.0,0.0,-0.9925,-0.9666,-0.9354,0.0,0.0,0.0,0.0,0.0,0.0,-0.7717,-0.7622,-0.7289,0.0,0.0,0.0,0.0,0.0,0.0,0.0,0.0,0.0,0.0,-0.3452,-0.3947,-0.3981,-0.3668,-0.314,-0.2253,-0.1554,-0.1951,-0.1666,-0.1452,-0.22,-0.1555,-0.0984,-0.2258,-0.1667,-0.0917,-0.1508,-0.1427,-0.125,-0.1207,-0.1182,-0.1321,-0.1948,-0.2042,-0.1948,-0.1718,-0.1208,-0.0384,0.1201,0.1214,0.1303,0.1726,0.1235,0.0905,0.0,0.0,0.0,0.0,0.0,0.0,0.0,0.0665,-0.0,0.0289,0.0666,0.1137,0.1523,0.2666,0.3251,0.3277,0.4587,0.5327,0.5353,0.6092,0.6505,0.6703,0.0,0.0,0.0,0.7687,0.8084,0.8141,0.9385,1.0065,1.0436,1.1394,1.1728,1.1881,0.0,0.0,0.0,0.0,0.0,-1.2842,-1.2676,-1.2332,-1.2017,-1.1868,-1.1451,-1.1302,-1.1447,-1.1264,-1.1096,-1.1055,-1.1132,0.0,0.0,0.0,0.0,0.0,0.0,0.0,0.0,0.0,-0.8935,-0.8935,-0.8567,-0.8461,0.0,0.0,0.0,-0.7664,0.0,0.0,0.0,0.0,0.0,0.0,0.0,0.0,0.0,0.0,0.0,0.0,0.0,0.0,0.0,0.0,0.0,-0.3057,-0.2927,-0.2013,-0.1106,-0.1775,-0.1193,-0.0713,-0.179,-0.0769,0.0195,-0.1527,-0.1052,-0.044,-0.1296,-0.1284,-0.1099,-0.0946,-0.0863,-0.093,-0.1329,-0.1292,-0.1397,-0.1939,-0.14,-0.0755,-0.0309,0.016,0.0491,0.0893,0.0,0.0905,0.0,0.0,0.0,0.0,0.0,0.0,0.0,0.2729,0.2056,0.1401,0.1761,0.2232,0.2736,0.3402,0.3908,0.4171,0.4947,0.5403,0.5527,0.6127,0.6527,0.0,0.0,0.0,0.0,0.7743,0.8244,0.8592,0.9633,1.0229,1.0565,1.1594,1.2037,1.2122,0.0,0.0,0.0,0.0,0.0,0.0,-1.2184,-1.2085,-1.1868,-1.1301,-1.12,-1.1132,-1.0915,-1.0893,-1.0818,-1.0607,-1.0942,0.0,0.0,0.0,0.0,0.0,0.0,0.0,0.0,0.0,-0.7919,-0.7919,-0.7931,-0.7931,-0.7877,-0.7343,-0.7085,-0.7085,0.0,0.0,0.0,0.0,0.0,0.0,0.0,0.0,0.0,0.0,0.0,0.0,0.0,0.0,0.0,0.0,0.0,0.0,0.0,-0.2151,-0.2101,-0.1996,-0.1094,-0.0085,-0.0177,0.0475,0.1106,0.0504,0.0096,-0.0182,-0.0682,-0.094,-0.0998,-0.1115,-0.0968,-0.0711,-0.0517,-0.1123,-0.1697,-0.2165,-0.1865,-0.1399,-0.0755,-0.0241,-0.0083,-0.0731,-0.0337,0.017,0.0488,0.0,0.0,0.0,0.0,0.0,0.0,0.0,0.4032,0.2593,0.2009,0.2493,0.4066,0.3605,0.3905,0.4935,0.514,0.5649,0.6363,0.6567,0.0,0.0,0.0,0.0,0.0,0.8099,0.8439,0.8598,0.9992,1.0689,1.0929,1.1717,1.2281,1.2595,0.0,0.0,0.0,0.0,0.0,0.0,0.0,-1.1167,-1.0863,-1.071,-1.0541,-1.0501,-1.0669,-1.0699,-1.0793,-1.0946,-1.065,0.0,0.0,0.0,0.0,0.0,0.0,0.0,0.0,0.0,-0.7931,-0.7931,-0.7557,-0.7354,-0.7343,-0.6761,-0.65,-0.6445,-0.6009,-0.5791,0.0,0.0,0.0,0.0,0.0,0.0,0.0,0.0,0.0,0.0,0.0,0.0,0.0,0.0,0.0,0.0,0.0,0.0,0.0,-0.0581,-0.0,0.0634,0.0084,0.1296,0.2366,0.0445,0.0582,0.0845,-0.0535,-0.0706,-0.0648,-0.0756,-0.0626,-0.0441,-0.0193,-0.052,-0.0997,-0.1601,-0.129,-0.1029,-0.1057,-0.0317,0.0244,0.0318,0.1363,0.2171,0.0,0.0,0.0,0.0,0.0,0.0,0.0,0.0,0.4793,0.4381,0.41,0.4145,0.4434,0.4651,0.4626,0.4552,0.562,0.6132,0.6059,0.66,0.0,0.0,0.0,0.0,0.0,0.7891,0.8414,0.909,1.0285,1.0762,1.1117,1.228,1.3035,1.3491,0.0,0.0,0.0,0.0,0.0,0.0,0.0,-1.0659,-1.0352,-1.0131,-1.012,-1.0228,-1.055,-1.0465,-1.0547,-1.0859,-1.0113,0.0,0.0,0.0,0.0,0.0,0.0,0.0,0.0,-0.7622,-0.7511,-0.7511,-0.6951,-0.6687,-0.6663,-0.6054,-0.5742,-0.5673,-0.5454,-0.5344,0.0,0.0,0.0,0.0,0.0,0.0,-0.3965,0.0,0.0,0.0,0.0,0.0,0.0,0.0,0.0,0.0,0.0,0.0,0.0,0.0,0.0976,0.1287,0.0847,0.206,0.2973,0.1142,0.1137,0.1195,-0.0214,-0.0396,-0.0364,-0.0667,-0.049,-0.0311,-0.0253,-0.0517,-0.0865,-0.1253,-0.1075,-0.0809,-0.0753,-0.0,0.0648,0.0964,0.0,0.0,0.0,0.0,0.0,0.0,0.0,0.0,0.0,0.0,0.5369,0.5501,0.5158,0.4926,0.491,0.5223,0.5309,0.5161,0.6137,0.6557,0.6399,0.0,0.0,0.0,0.0,0.0,0.0,0.7903,0.8561,0.9274,1.0493,1.1135,1.1423,1.2458,1.3216,1.3806,0.0,0.0,0.0,0.0,0.0,0.0,0.0,-1.0454,-1.0198,-0.9666,-0.9838,-1.0173,-1.0493,-1.0223,-1.0172,-1.0401,0.0,0.0,0.0,0.0,0.0,0.0,0.0,0.0,-0.7586,-0.7052,-0.6744,-0.6744,-0.6258,-0.5986,-0.5874,-0.5358,-0.4989,-0.4897,-0.4842,-0.4842,0.0,0.0,0.0,0.0,0.0,-0.3686,0.0,0.0,0.0,0.0,0.0,0.0,0.0,0.0,0.0,0.0,0.0,0.0,0.0,0.0,0.0,0.0,0.0,0.2478,0.3084,0.2235,0.1608,0.0969,0.0276,-0.0,0.0,-0.0883,-0.0603,-0.0308,-0.0619,-0.1036,-0.1287,-0.0976,-0.1003,-0.0735,-0.0,0.0708,0.1222,0.1406,0.1549,0.0,0.0,0.0,0.0,0.0,0.0,0.0,0.0,0.0,0.0,0.6067,0.5315,0.5092,0.5498,0.5606,0.5856,0.6469,0.6701,0.6926,0.7238,0.0,0.0,0.0,0.0,0.0,0.0,0.8238,0.8902,0.9447,1.0871,1.1561,1.1964,1.2515,1.3242,1.3978,0.0,0.0,0.0,0.0,0.0,0.0,0.0,0.0,0.0,0.0,-0.9585,-0.9562,-0.9806,-0.9556,-0.947,0.0,0.0,0.0,0.0,0.0,0.0,0.0,0.0,0.0,-0.6779,-0.6511,-0.6323,-0.6323,-0.5923,-0.5729,-0.5686,-0.5179,-0.4934,-0.4897,-0.4512,-0.4181,0.0,0.0,0.0,0.0,-0.3671,-0.31,0.0,0.0,0.0,0.0,-0.1343,-0.0504,0.0,0.0,0.0,0.0,0.0,0.0,0.0,0.0,0.1994,0.2072,0.1883,0.0,0.2546,0.1789,0.1625,0.1285,0.0,-0.0,-0.0285,-0.1114,-0.1127,-0.0907,-0.0507,-0.0839,-0.0926,-0.0486,-0.0286,-0.0074,0.0302,0.1475,0.2986,0.4701,0.437,0.0,0.0,0.0,0.0,0.0,0.0,0.0,0.0,0.0,0.0,0.5942,0.5821,0.5867,0.5902,0.6277,0.6567,0.6562,0.7063,0.735,0.7529,0.0,0.0,0.0,0.0,0.0,0.0,0.8927,0.9768,1.0893,1.1637,1.2242,1.2909,1.3353,1.4428,1.5584,0.0,0.0,0.0,0.0,0.0,0.0,0.0,0.0,0.0,0.0,0.0,0.0,0.0,0.0,0.0,0.0,0.0,0.0,0.0,0.0,0.0,0.0,0.0,0.0,-0.6623,-0.6487,-0.6361,-0.6303,-0.5718,-0.5319,-0.5186,-0.4649,-0.4356,-0.4298,-0.4082,-0.3851,0.0,0.0,0.0,0.0,-0.3246,0.0,0.0,0.0,0.0,0.0,-0.0448,0.0224,0.0,0.0894,0.1062,0.1343,0.0,0.0,0.0,0.0,0.2794,0.285,0.2516,0.2183,0.1827,0.1332,0.1269,0.1089,0.0225,-0.0,-0.0288,-0.1174,-0.1086,-0.087,-0.0706,-0.079,-0.0679,-0.0,0.0292,0.0601,0.1012,0.1597,0.2872,0.5126,0.4535,0.0,0.0,0.0,0.0,0.0,0.0,0.0,0.0,0.0,0.0,0.0,0.6024,0.608,0.6163,0.6545,0.6763,0.6703,0.7152,0.7321,0.7321,0.0,0.0,0.0,0.0,0.0,0.9479,0.9673,1.0414,1.1426,1.1849,1.2613,1.3475,1.384,1.4988,1.6409,0.0,0.0,0.0,0.0,0.0,0.0,0.0,0.0,0.0,0.0,0.0,0.0,0.0,0.0,0.0,0.0,0.0,0.0,0.0,0.0,0.0,0.0,0.0,-0.6823,-0.6731,-0.6616,-0.6448,-0.6241,-0.5479,-0.4964,-0.4636,-0.4095,-0.3749,-0.3588,-0.3743,-0.3732,0.0,0.0,0.0,-0.3324,-0.2777,0.0,0.0,0.0,0.0,0.0,0.0,0.0,0.0,0.1118,0.1564,0.2125,0.2512,0.0,0.0,0.0,0.0,0.0,0.3183,0.2303,0.1355,0.1179,0.1065,0.0785,0.0168,0.0058,-0.0177,-0.1008,-0.0745,-0.0453,-0.0587,-0.061,-0.0283,0.0584,0.1267,0.1838,0.2463,0.211,0.2667,0.4783,0.0,0.0,0.0,0.0,0.0,0.0,0.0,0.0,0.0,0.0,0.0,0.0,0.5986,0.6116,0.6241,0.6592,0.6777,0.6879,0.7106,0.7169,0.7175,0.7517,0.0,0.0,0.0,0.0,0.9877,1.04,1.1024,1.171,1.2145,1.3101,1.4313,1.4182,1.5497,1.7156,0.0,0.0,0.0,0.0,0.0,0.0,0.0,0.0,0.0,0.0,0.0,0.0,0.0,0.0,0.0,0.0,0.0,0.0,0.0,0.0,0.0,0.0,0.0,-0.6779,-0.6362,-0.628,-0.6053,-0.5609,-0.5006,-0.4623,-0.4422,-0.3995,-0.3749,-0.3588,-0.3604,-0.3716,-0.3766,-0.2663,-0.2264,-0.2419,-0.2317,0.0,0.0,0.0,0.0,0.0,0.0,0.0,0.0,0.224,0.2742,0.3188,0.3244,0.0,0.0,0.0,0.0,0.0,0.3132,0.2569,0.2029,0.2201,0.1679,0.0952,0.0168,0.0403,0.0594,-0.0305,-0.0315,0.0065,0.096,0.0418,0.0356,0.1865,0.346,0.4869,0.0,0.0,0.545,0.0,0.0,0.0,0.0,0.0,0.0,0.0,0.0,0.0,0.0,0.0,0.0,0.0,0.0,0.5991,0.6111,0.6431,0.6713,0.6964,0.7171,0.744,0.7893,0.7809,0.815,0.0,0.0,0.0,1.0763,1.1294,1.2065,1.2797,1.3118,1.4349,1.5982,1.5575,1.6778,1.8642,0.0,0.0,0.0,0.0,0.0,0.0,0.0,0.0,0.0,0.0,0.0,0.0,0.0,0.0,0.0,0.0,0.0,0.0,0.0,0.0,0.0,0.0,0.0,0.0,-0.591,-0.5683,-0.5472,-0.5213,-0.4721,-0.4344,-0.4148,-0.3834,-0.3519,-0.3188,-0.2679,-0.2505,-0.2587,-0.1999,-0.1538,-0.1179,0.0,0.0,0.0,0.0,0.0,0.0,0.0,0.0,0.0,0.0,0.3249,0.3471,0.3965,0.0,0.0,0.0,0.0,0.0,0.3744,0.3391,0.3117,0.3118,0.2451,0.1791,0.1637,0.194,0.1996,0.0821,0.0902,0.1264,0.1389,0.2374,0.3648,0.5098,0.5577,0.5901,0.62,0.5365,0.0,0.0,0.0,0.0,0.0,0.0,0.0,0.0,0.0,0.0,0.0,0.0,0.0,0.0,0.0,0.0,0.6083,0.6317,0.6597,0.6827,0.7264,0.7533,0.7545,0.8177,0.8796,0.0,0.0,1.0718,1.1937,1.249,1.3106,1.3761,1.3849,1.4857,1.6277,1.7321,1.8284,1.9259,0.0,0.0,0.0,0.0,0.0,0.0,0.0,0.0,0.0,0.0,0.0,0.0,0.0,0.0,0.0,0.0,0.0,0.0,0.0,0.0,0.0,0.0,0.0,0.0,-0.5489,-0.527,-0.5067,-0.4938,-0.4532,-0.4074,-0.352,-0.3042,-0.2623,-0.2293,-0.1779,-0.1497,-0.1364,-0.1501,-0.1152,-0.0453,0.0,0.0,0.0,0.0,0.0,0.0,0.0,0.0,0.0,0.0,0.0,0.0,0.0,0.0,0.0,0.4897,0.4849,0.4574,0.4249,0.399,0.3812,0.3528,0.2982,0.2608,0.2982,0.3197,0.3171,0.232,0.2615,0.2902,0.2377,0.4362,0.6333,0.7147,0.725,0.7161,0.6781,0.0,0.0,0.0,0.0,0.0,0.0,0.0,0.0,0.0,0.0,0.0,0.0,0.0,0.0,0.0,0.0,0.0,0.5894,0.5989,0.6257,0.6622,0.7125,0.7416,0.7375,0.8221,0.9119,1.0067,1.0778,1.1792,1.3061,1.3642,1.4198,1.4605,1.4651,1.5502,1.6954,1.9311,2.0184,2.038,0.0,0.0,0.0,0.0,0.0,0.0,0.0,0.0,0.0,0.0,0.0,0.0,0.0,0.0,0.0,0.0,0.0,0.0,0.0,0.0,0.0,0.0,0.0,0.0,-0.5143,-0.5216,-0.5076,-0.4626,-0.4379,-0.358,-0.2291,-0.102,-0.0446,-0.0502,-0.1401,-0.1486,-0.1055,-0.0969,-0.0973,-0.082,0.0396,0.0,0.0,0.0,0.0,0.0,0.0,0.0,0.0,0.0,0.0,0.0,0.0,0.0,0.4897,0.5171,0.4897,0.4463,0.4132,0.3716,0.3392,0.3042,0.2841,0.2786,0.3209,0.3275,0.353,0.4204,0.4628,0.4944,0.5151,0.5871,0.6301,0.5739,0.8337,1.0043,0.0,0.0,0.0,0.0,0.0,0.0,0.0,0.0,0.0,0.0,0.0,0.0,0.0,0.0,0.0,0.0,0.0,0.0,0.5327,0.5337,0.5786,0.6622,0.6627,0.7061,0.7828,0.7954,0.9022,1.0973,1.1114,1.2155,1.3824,1.4407,1.4885,1.5179,1.5365,1.6734,1.9032,2.1616,2.2656,2.2669,0.0,0.0,0.0,0.0,0.0,0.0,0.0,0.0,0.0,0.0,0.0,0.0,0.0,0.0,0.0,0.0,0.0,0.0,0.0,0.0,0.0,0.0,0.0,-0.4546,-0.4713,-0.4747,-0.4296,-0.3361,-0.2357,-0.1598,-0.1169,-0.017,0.0167,-0.0,0.0167,0.0113,-0.0114,0.0282,0.0338,0.0285,0.1793,0.2452,0.0,0.0,0.0,0.0,0.0,0.0,0.0,0.0,0.4725,0.4944,0.5445,0.55,0.5399,0.5773,0.5664,0.5344,0.4794,0.5121,0.5284,0.4073,0.4141,0.4516,0.4445,0.4473,0.4706,0.5246,0.5979,0.6415,0.5747,0.7179,0.8112,0.718,0.9629,0.0,0.0,0.0,0.0,0.0,0.0,0.0,0.0,0.0,0.0,0.0,0.0,0.0,0.0,0.0,0.0,0.0,0.0,0.0,0.0,0.5074,0.5419,0.5804,0.6448,0.7023,0.763,0.8253,0.9342,1.0791,1.1367,1.2454,1.3761,1.4465,1.5077,1.5485,1.6859,1.8456,2.0148,2.2149,2.2971,2.3133,0.0,0.0,0.0,0.0,0.0,0.0,0.0,0.0,0.0,0.0,0.0,0.0,0.0,0.0,0.0,0.0,0.0,0.0,0.0,-0.4408,0.0,0.0,0.0,-0.4519,-0.4519,-0.41,-0.345,-0.2591,-0.0768,0.0058,-0.0058,0.0902,0.1229,0.1006,0.1509,0.1464,0.0966,0.1347,0.1349,0.1303,0.2687,0.3229,0.0,0.0,0.0,0.0,0.0,0.0,0.0,0.0,0.5304,0.5408,0.5944,0.5946,0.5782,0.6209,0.6209,0.5946,0.5454,0.5849,0.62,0.5283,0.5071,0.5346,0.6125,0.5993,0.594,0.6764,0.7381,0.7399,0.6449,0.7792,0.0,0.0,0.0,0.0,0.0,0.0,0.0,0.0,0.0,0.0,0.0,0.0,0.0,0.0,0.0,0.0,0.0,0.0,0.0,0.0,0.0,0.0,0.0,0.5451,0.5743,0.579,0.6494,0.7116,0.7859,0.8504,0.9638,1.1398,1.1996,1.3198,1.4723,1.5332,1.5994,1.7007,1.9279,2.073,2.1763,2.3621,2.4246,2.4352,0.0,0.0,0.0,0.0,0.0,0.0,0.0,0.0,0.0,0.0,0.0,0.0,0.0,0.0,0.0,0.0,0.0,0.0,-0.4519,-0.4519,-0.4519,-0.4519,-0.4463,-0.4463,-0.4463,-0.3284,-0.2655,-0.2568,-0.0,0.1209,0.1118,0.2352,0.2802,0.2691,0.2352,0.2221,0.2164,0.1922,0.1761,0.1808,0.2707,0.3118,0.3229,0.0,0.0,0.0,0.0,0.0,0.0,0.0,0.5677,0.5948,0.6668,0.6523,0.6109,0.648,0.6426,0.6154,0.5882,0.5578,0.5578,0.6484,0.5409,0.5008,0.8207,0.7693,0.7149,0.9105,0.8794,0.8059,0.7581,0.7797,0.0,0.0,0.0,0.0,0.0,0.0,0.0,0.0,0.0,0.0,0.0,0.0,0.0,0.0,0.0,0.0,0.0,0.0,0.0,0.0,0.0,0.0,0.0,0.6532,0.6958,0.6913,0.6659,0.7334,0.8924,0.8584,1.003,1.2926,1.2926,1.4525,1.7001,1.7007,1.7906,1.9661,2.2483,2.3679,2.3885,2.6324,2.7062,2.6817,0.0,0.0,0.0,0.0,0.0,0.0,0.0,0.0,0.0,0.0,0.0,0.0,0.0,0.0,0.0,0.0,0.0,0.0,-0.4519,-0.4519,-0.4519,-0.4519,-0.3677,-0.3229,-0.3229,-0.1222,-0.0167,-0.0113,0.1586,0.243,0.2516,0.2464,0.2742,0.3304,0.2802,0.2647,0.2832,0.3081,0.3086,0.2941,0.3382,0.3607,0.3596,0.0,0.0,0.0,0.0,0.0,0.0,0.0,0.0,0.0,0.7127,0.7089,0.7074,0.7771,0.7515,0.6965,0.6779,0.7597,0.8352,0.7843,0.8193,0.898,1.0301,0.8254,0.6917,0.9868,0.986,0.9355,0.9456,0.9987,0.0,0.0,0.0,0.0,0.0,0.0,0.0,0.0,0.0,0.0,0.0,0.0,0.0,0.0,0.0,0.0,0.0,0.0,0.0,0.0,0.0,0.0,0.0,0.0,0.729,0.7975,0.7647,0.7937,0.8883,0.8877,1.0536,1.3242,1.4731,1.6594,1.8404,1.9978,2.0797,2.1382,2.353,2.4939,2.5864,2.7462,2.7893,2.7952,0.0,0.0,0.0,0.0,0.0,0.0,0.0,0.0,0.0,0.0,-0.5789,-0.5027,0.0,0.0,0.0,0.0,0.0,0.0,-0.4519,-0.4519,-0.4519,-0.4519,-0.334,-0.2168,-0.0998,0.061,0.1885,0.2819,0.2901,0.3132,0.335,0.3395,0.3727,0.4284,0.4381,0.4491,0.4656,0.4992,0.4953,0.4678,0.4838,0.4908,0.493,0.0,0.0,0.0,0.0,0.0,0.0,0.0,0.0,0.0,0.7438,0.7556,0.7693,0.833,0.8209,0.7895,0.8078,0.8852,0.9583,0.9834,1.014,1.0488,1.1035,0.9838,0.9249,1.1678,1.1312,1.0697,1.1371,1.1551,0.0,0.0,0.0,0.0,0.0,0.0,0.0,0.0,0.0,0.0,0.0,0.0,0.0,0.0,0.0,0.0,0.0,0.0,0.0,0.0,0.0,0.0,0.0,0.0,0.0,0.9404,0.9952,1.0791,1.1472,1.0863,1.1846,1.4205,1.7334,1.9625,2.1327,2.3278,2.3718,2.3346,2.5057,2.6424,2.7476,2.8458,2.8986,2.9151,0.0,0.0,0.0,0.0,0.0,0.0,0.0,0.0,0.0,-0.5793,-0.5135,-0.4619,0.0,0.0,0.0,-0.4519,-0.4519,-0.4519,-0.4519,-0.4519,-0.4463,-0.4346,-0.3058,-0.1054,0.1721,0.2272,0.3583,0.5729,0.4106,0.3622,0.4174,0.5023,0.545,0.5567,0.6538,0.6967,0.7031,0.7042,0.6934,0.6678,0.6585,0.6624,0.6693,0.6288,0.0,0.0,0.0,0.0,0.0,0.0,0.0,0.0,0.7722,0.7964,0.7999,0.8397,0.8593,0.8831,0.9603,0.9615,0.9887,1.2017,1.1475,1.0567,1.1149,1.2079,1.3069,1.394,0.0,1.2134,1.3292,0.0,0.0,0.0,0.0,0.0,0.0,0.0,0.0,0.0,0.0,0.0,0.0,0.0,0.0,0.0,0.0,0.0,0.0,0.0,0.0,0.0,0.0,0.0,0.0,0.0,0.0,0.0,1.3639,1.4913,1.6042,1.3962,1.4277,1.6665,2.0844,2.3546,2.5157,2.6972,2.6709,2.5512,2.7534,2.8523,2.8962,3.0009,3.0476,3.0924,0.0,0.0,0.0,0.0,0.0,0.0,0.0,0.0,-0.5868,-0.5719,-0.5031,-0.4553,-0.4519,-0.4519,0.0,-0.4519,-0.4519,-0.4519,-0.4519,-0.4574,-0.4181,-0.3118,-0.0665,0.1388,0.2961,0.4258,0.5341,0.6072,0.5358,0.5621,0.6785,0.6391,0.6508,0.7031,0.6796,0.686,0.7052,0.6934,0.6999,0.7164,0.6646,0.6642,0.6872,0.6425,0.6644,0.0,0.0,0.0,0.0,0.0,0.0,0.0,0.8296,0.8463,0.8454,0.9009,0.9259,0.9494,0.9897,1.084,1.181,1.2265,1.3059,1.3719,1.3456,1.4127,1.4642,1.4354,1.3805,0.0,0.0,0.0,0.0,0.0,0.0,0.0,0.0,0.0,0.0,0.0,0.0,0.0,0.0,0.0,0.0,0.0,0.0,0.0,0.0,0.0,0.0,0.0,0.0,0.0,1.9399,1.548,1.6945,0.0,1.9663,1.8292,1.937,1.8204,2.0307,2.492,2.6254,2.7243,2.8027,3.0207,2.9981,2.8567,3.106,3.261,3.344,3.367,3.4439,3.5433,0.0,0.0,0.0,0.0,0.0,0.0,0.0,0.0,-0.5514,-0.5144,-0.479,-0.4519,-0.4519,-0.445,0.0,0.0,-0.4446,-0.4456,-0.4456,-0.4154,-0.3007,-0.0997,0.1051,0.2989,0.4772,0.5738,0.686,0.8134,0.7753,0.7647,0.7858,0.7951,0.8122,0.8317,0.841,0.8475,0.8448,0.8171,0.8241,0.8497,0.8055,0.8038,0.8312,0.7817,0.793,0.8269,0.7688,0.0,0.0,0.0,0.0,0.0,0.0,0.0,0.8525,0.9123,0.9309,0.9533,1.0531,1.1412,1.2183,1.2789,1.4092,1.5084,1.4432,1.4946,1.5476,1.5241,1.506,0.0,0.0,0.0,0.0,0.0,0.0,0.0,0.0,0.0,0.0,0.0,0.0,0.0,0.0,0.0,0.0,0.0,0.0,0.0,0.0,0.0,0.0,0.0,0.0,0.0,2.7651,2.4707,2.5414,2.9676,2.719,2.6909,2.847,2.4631,2.5352,2.9784,3.0442,3.099,3.1443,3.2319,3.2014,3.1305,3.3164,3.424,3.4808,3.5316,3.6091,3.6898,0.0,0.0,0.0,0.0,0.0,0.0,0.0,0.0,0.0,-0.4643,-0.4574,-0.456,-0.4539,-0.4474,-0.4435,0.0,0.0,0.0,-0.4058,-0.2982,-0.1322,0.0978,0.2389,0.4113,0.6173,0.6892,0.8176,1.0043,1.0156,0.9644,0.8657,0.9438,0.9658,0.9372,1.0218,1.0387,0.9967,0.9755,0.9824,1.0075,0.9733,0.9784,0.9978,0.9535,0.9545,0.9744,0.9049,0.8564,0.8194,0.8017,0.0,0.0,0.0,0.0,0.8413,0.8978,0.9201,0.9567,1.1012,1.1591,1.2159,1.3442,1.4626,1.5279,1.477,1.5195,1.5777,1.5976,0.0,0.0,0.0,0.0,0.0,0.0,0.0,0.0,0.0,0.0,0.0,0.0,0.0,0.0,0.0,0.0,0.0,0.0,0.0,0.0,0.0,0.0,0.0,0.0,0.0,3.1311,3.5509,3.4363,3.427,3.5246,3.5057,3.6246,3.8191,3.2615,3.131,3.3582,3.4202,3.4623,3.4808,3.4467,3.4214,3.4203,3.5375,3.6071,3.64,3.7145,3.7852,3.8576,0.0,0.0,0.0,0.0,0.0,0.0,0.0,0.0,0.0,0.0,-0.4842,-0.479,-0.4605,-0.4568,-0.4555,-0.4407,-0.3717,-0.3103,-0.2695,0.0,0.0,0.1111,0.3524,0.5039,0.5345,0.7759,0.916,0.9308,1.098,1.1425,0.0,0.0,1.0447,0.9911,1.058,1.0547,1.0025,1.063,1.1032,1.1215,1.0711,1.0699,1.086,1.0461,1.0159,0.9979,0.9979,0.9479,0.876,0.855,0.8107,0.0,0.0,0.0,0.0,0.8889,0.9621,1.027,1.0562,1.1672,1.2948,1.3961,1.4301,1.4508,1.4985,0.0,1.5353,0.0,0.0,0.0,0.0,0.0,0.0,0.0,0.0,0.0,0.0,0.0,0.0,0.0,0.0,0.0,0.0,0.0,0.0,0.0,0.0,0.0,0.0,0.0,2.665,2.7417,3.0749,0.0,4.3136,3.905,4.0316,4.6736,4.2065,4.0525,4.19,4.2638,4.1452,3.8842,3.8624,3.7924,3.7206,3.8228,3.8471,3.8319,4.0061,4.1392,4.2201,4.197,4.3238,4.4678,0.0,0.0,0.0,0.0,0.0,0.0,0.0,0.0,0.0,0.0,0.0,-0.4674,-0.3983,-0.3901,-0.3642,-0.3013,-0.2373,-0.1559,-0.0627,0.0773,0.2044,0.3071,0.4613,0.5993,0.7228,0.8405,0.9345,1.0111,1.1075,1.1417,0.0,1.1,1.0749,1.0301,1.0233,1.0237,1.0238,1.0434,1.0814,1.1351,1.1096,1.1648,1.2471,1.148,1.1502,1.1967,1.0701,0.9834,0.9247,0.8827,0.8278,0.7809,0.8214,0.0,0.0,0.0,0.9664,1.012,1.0919,1.2231,1.357,1.4148,1.4582,1.4882,1.5228,1.524,1.529,0.0,0.0,0.0,0.0,0.0,0.0,0.0,0.0,0.0,0.0,0.0,0.0,0.0,0.0,0.0,0.0,0.0,0.0,0.0,0.0,0.0,0.0,3.1313,3.4827,3.8003,4.0636,0.0,5.0464,4.8424,4.8282,5.0191,4.8185,4.7031,4.6824,4.8562,4.7075,4.3217,4.3461,4.273,4.1199,4.0869,4.0781,4.1128,4.2143,4.273,4.3177,4.4088,4.4953,4.5622,0.0,0.0,0.0,0.0,0.0,0.0,0.0,0.0,0.0,0.0,0.0,-0.4219,-0.3146,0.0,0.0,0.0,-0.1221,-0.018,0.1253,0.204,0.3135,0.4669,0.5585,0.6834,0.8551,0.8913,0.9591,1.0761,1.1248,1.1378,1.1195,1.1113,1.0946,1.0631,1.0124,1.0107,1.0471,1.0412,1.081,1.1469,1.1859,1.2735,1.3755,1.2715,1.2968,1.3584,1.1527,1.0287,0.9597,0.9175,0.8448,0.7814,0.8346,0.8713,0.0,0.0,0.0,0.9626,1.0855,1.2108,1.3208,1.3922,1.4523,1.5074,0.0,0.0,0.0,0.0,0.0,0.0,0.0,0.0,0.0,0.0,0.0,0.0,0.0,0.0,0.0,0.0,0.0,0.0,0.0,0.0,0.0,0.0,0.0,0.0,3.3691,3.7911,4.223,4.6542,4.9205,5.208,5.5161,5.5234,5.4277,5.2189,5.2693,5.2376,5.1405,5.2545,5.1312,4.8325,4.7755,4.6602,4.5005,4.3729,4.3484,4.4021,4.4607,4.4736,4.4708,4.5993,4.6588,4.6687,0.0,0.0,0.0,0.0,0.0,0.0,0.0,0.0,0.0,0.0,0.0,-0.3415,-0.2228,-0.2055,-0.1992,-0.1794,-0.0712,0.0713,0.2469,0.3656,0.4447,0.4874,0.638,0.0,0.7739,0.9275,1.0228,1.0628,0.0,0.0,1.1951,1.1409,1.1125,1.0971,1.0704,1.0588,1.0732,1.1222,0.0,0.0,1.3499,1.4139,1.4094,1.4425,1.4337,1.3915,1.2503,1.1065,0.9746,0.9631,0.882,0.7986,0.86,0.85,0.8303,0.0,0.0,0.0,0.9835,1.0584,1.1453,1.3112,1.3827,1.4428,0.0,0.0,0.0,0.0,0.0,0.0,0.0,0.0,0.0,0.0,0.0,0.0,0.0,0.0,0.0,0.0,0.0,0.0,0.0,0.0,0.0,0.0,0.0,0.0,3.8322,4.3204,4.6468,4.7315,5.2302,5.5139,5.5441,5.5842,5.5733,5.5051,5.488,5.4724,5.4616,5.5049,5.5249,5.5083,5.0895,4.8435,4.7283,4.7782,4.7906,4.7832,4.9013,4.9404,4.909,4.8897,4.9353,4.9987,0.0,0.0,0.0,0.0,0.0,0.0,0.0,0.0,0.0,0.0,0.0,0.0,0.0,-0.1477,-0.113,-0.028,0.0771,0.1784,0.2865,0.3869,0.4735,0.546,0.6525,0.757,0.8626,0.9226,0.9969,0.0,0.0,1.1806,1.1859,1.1594,1.1242,1.0774,1.0183,1.0276,1.0919,1.1202,0.0,0.0,0.0,1.5695,1.6402,1.5145,1.584,1.7129,0.0,0.0,1.1585,1.0942,0.9784,0.8644,0.8851,0.8889,0.8851,0.9131,0.9159,0.9214,0.9738,1.0225,1.0948,1.2258,1.2797,1.3477,1.5113,1.5301,0.0,0.0,0.0,0.0,0.0,0.0,0.0,0.0,0.0,0.0,0.0,0.0,0.0,0.0,0.0,0.0,0.0,0.0,0.0,0.0,0.0,0.0,4.4186,4.8273,5.0988,5.1637,5.3589,5.5135,5.6079,5.5982,5.5712,5.5207,5.5036,5.4813,5.4719,5.5225,5.5525,5.5634,5.3785,5.242,5.1573,5.0864,5.0245,4.9729,4.9854,4.975,4.9463,4.9729,5.0208,5.0611,0.0,0.0,0.0,0.0,0.0,0.0,0.0,0.0,0.0,-0.24,0.0,0.0,0.0,0.0,-0.0345,0.0376,0.1273,0.2055,0.2732,0.3993,0.5029,0.576,0.6778,0.7915,0.9088,0.9248,0.9825,0.0,0.0,0.0,0.0,1.2031,1.1645,1.0677,1.0466,1.0601,0.0,0.0,0.0,1.2374,0.0,0.0,1.7315,1.6237,0.0,0.0,0.0,0.0,0.0,0.0,0.0,1.0141,1.0033,0.957,0.9106,0.9159,0.9159,0.9095,0.9342,0.9738,1.0364,1.1519,1.1987,1.2672,1.4735,0.0,0.0,0.0,0.0,0.0,0.0,0.0,0.0,0.0,0.0,0.0,0.0,0.0,0.0,0.0,0.0,0.0,0.0,0.0,0.0,0.0,0.0,0.0,4.9154,5.2422,5.4527,5.5043,5.4807,5.5277,5.6525,5.6042,5.577,5.5506,5.5193,5.5088,5.515,5.544,5.583,5.6201,5.582,5.4982,5.4084,5.3103,5.2218,5.1434,5.1308,5.1054,5.0769,5.104,5.1145,5.1391,0.0,0.0,0.0,0.0,0.0,0.0,0.0,0.0,-0.3738,-0.1732,0.0,0.0,0.0,0.0,0.0,-0.0,0.0717,0.1433,0.2055,0.4065,0.5406,0.576,0.721,0.8316,0.8984,0.9328,0.9981,1.0926,0.0,0.0,0.0,0.0,1.2307,1.0715,1.1659,1.1598,1.083,0.0,1.2122,1.2453,0.0,1.7325,1.6621,0.0,0.0,0.0,1.5032,1.3993,0.0,1.4451,0.0,0.0,0.0,1.0414,0.8883,0.9106,0.8791,0.8421,0.0,0.0,0.0,1.0877,0.0,0.0,1.4802,0.0,0.0,0.0,0.0,0.0,0.0,0.0,0.0,0.0,0.0,0.0,0.0,0.0,0.0,0.0,0.0,0.0,0.0,0.0,0.0,0.0,0.0,5.3297,5.3097,5.5456,5.6884,5.7095,5.6031,5.5889,5.668,5.6189,5.5963,5.6027,5.5441,5.5463,5.6029,5.6013,5.6466,5.7049,5.6819,5.5879,5.4469,5.4497,5.4019,5.32,5.3833,5.3713,5.3105,5.2738,5.2588,5.2588,0.0,0.0,0.0,0.0,0.0,-0.3021,-0.2965,-0.2571,-0.2122,0.0,0.0,0.0,0.0,0.0054,-0.051,-0.052,0.0187,0.0877,0.157,0.344,0.4699,0.5105,0.7071,0.8423,0.899,0.9469,1.0176,1.1115,0.0,0.0,0.0,0.0,1.1035,1.0485,1.0902,1.0905,1.0633,1.1654,0.0,1.225,1.5925,1.764,0.0,0.0,0.0,0.0,0.0,1.606,1.5768,0.0,1.4045,1.1513,0.0,0.9155,0.9249,0.8474,0.8315,0.8421,0.8421,0.0,0.0,0.0,0.0,0.0,0.0,0.0,0.0,0.0,0.0,0.0,0.0,0.0,0.0,0.0,0.0,0.0,0.0,0.0,0.0,0.0,0.0,0.0,0.0,0.0,0.0,0.0,0.0,5.5061,5.5424,5.6581,5.7016,5.6643,5.617,5.6128,5.6447,5.609,5.577,5.5689,5.5559,5.572,5.6164,5.5718,5.5916,5.6672,5.6318,5.5791,5.5223,5.5182,5.479,5.4221,5.3833,5.347,5.3105,5.2738,5.2738,5.2983,0.0,0.0,-0.3005,-0.3084,-0.2954,-0.2914,-0.3081,-0.2516,-0.2014,0.0,0.0,0.0,0.0,0.0,-0.0885,-0.0885,-0.0144,0.0518,0.1012,0.2721,0.3919,0.437,0.65,0.79,0.8375,0.9253,1.006,1.0812,1.0981,0.0,0.0,0.0,0.0,1.0118,1.0826,1.0885,1.0454,0.0,0.0,0.0,1.6208,0.0,0.0,1.8937,1.9664,0.0,0.0,0.0,1.6943,1.7671,1.5684,0.0,0.0,0.0,0.9145,0.8474,0.8474,0.8633,0.8633,0.9197,0.9814,1.006,0.0,0.0,0.0,1.3059,0.0,0.0,0.0,0.0,0.0,0.0,0.0,0.0,0.0,0.0,0.0,0.0,0.0,0.0,0.0,0.0,0.0,0.0,0.0,0.0,5.5643,5.6969,5.7453,5.7602,5.7327,5.6443,5.6128,5.6053,5.6244,5.5701,5.5538,5.5826,5.5594,5.5842,5.6634,5.5741,5.5867,5.6677,5.6102,5.5771,5.565,5.5538,5.5014,5.4193,5.3325,5.2978,5.2767,5.2648,5.285,5.3146,0.0,0.0,-0.3097,-0.2947,-0.2972,-0.3077,-0.3416,-0.3021,-0.2627,0.0,-0.1796,0.0,0.0,0.0,0.0,0.0,-0.0492,0.0096,0.0527,0.1965,0.3075,0.3619,0.578,0.7155,0.7486,0.8835,0.9804,1.0293,1.0847,1.0847,1.0273,1.1491,0.0,0.9723,1.0981,1.1085,1.0318,0.0,0.0,1.2453,1.6522,1.6929,0.0,0.0,1.9625,0.0,1.8836,1.8328,1.7466,1.9229,1.771,0.0,0.0,0.0,0.9187,0.8871,0.8962,0.9106,0.9015,0.951,1.0233,1.0761,0.0,0.0,1.2735,1.2768,0.0,0.0,0.0,0.0,0.0,0.0,0.0,0.0,0.0,0.0,0.0,0.0,0.0,0.0,0.0,0.0,0.0,0.0,0.0,5.4417,5.6831,5.8393,5.8694,5.822,5.7412,5.6359,5.5928,5.5814,5.6006,5.5325,5.5335,5.6036,5.5565,5.5992,5.7084,5.6047,5.5983,5.6758,5.5871,5.5664,5.5731,5.5366,5.4599,5.3585,5.2712,5.2349,5.2233,5.2543,5.2879,5.3134,-0.2826,-0.337,-0.3367,-0.1465,-0.1823,-0.24,-0.2456,-0.2066,-0.1843,-0.2066,-0.1681,-0.1287,-0.1166,-0.1277,-0.1371,-0.1322,-0.1153,-0.0669,0.015,0.1097,0.2091,0.3176,0.5588,0.7045,0.7348,0.9036,0.9941,1.0059,1.0079,1.004,0.9902,0.9981,0.9883,0.9582,0.9935,1.0166,1.029,0.0,0.0,1.3407,1.4717,0.0,1.6857,1.9121,2.0209,2.0484,2.0344,1.9746,1.8847,0.0,1.6818,1.6089,0.0,0.0,0.0,0.9452,0.95,0.9961,0.9211,0.9836,1.071,1.0726,0.0,0.0,1.1624,1.1818,0.0,0.0,0.0,0.0,0.0,0.0,0.0,0.0,0.0,0.0,0.0,0.0,0.0,0.0,0.0,0.0,0.0,0.0,5.4239,5.5498,5.6624,5.7184,5.6952,5.6942,5.6547,5.5585,5.5636,5.5572,5.5278,5.5159,5.5325,5.5736,5.5893,5.6432,5.7401,5.5918,5.5511,5.6061,5.5041,5.4678,5.4709,5.4485,5.4119,5.3641,5.3179,5.2588,5.1972,5.2315,5.2525,5.2842,-0.2115,-0.2463,-0.2452,-0.1147,-0.141,-0.162,-0.1174,-0.1118,-0.1174,-0.1341,-0.1345,-0.1291,-0.1291,-0.1569,0.0,-0.1533,-0.14,-0.0951,-0.0052,0.0648,0.1449,0.2278,0.4602,0.5944,0.6,0.8237,0.9408,0.9408,0.9567,0.9646,0.9646,0.9545,0.9614,0.9771,0.9716,0.9986,1.0475,0.0,1.1214,1.3128,1.5369,0.0,1.7595,2.0506,2.1228,2.0771,2.0844,2.0254,1.9081,1.6532,1.5796,0.0,0.0,1.2324,1.1755,0.0,1.0136,1.0801,0.9553,1.0146,1.1065,1.1015,0.0,0.0,0.0,0.0,0.0,0.0,0.0,0.0,0.0,0.0,0.0,0.0,0.0,0.0,0.0,0.0,0.0,0.0,0.0,0.0,0.0,0.0,5.5615,5.6399,5.7071,5.7053,5.6163,5.626,5.6053,5.5409,5.5131,5.4998,5.4948,5.4697,5.5026,5.5947,5.5947,5.643,5.7306,5.5918,5.532,5.5451,5.4657,5.4517,5.473,5.4166,5.3754,5.3171,5.252,5.1823,5.1217,5.1747,5.202,5.2322,-0.1181,-0.1315,-0.1384,-0.0786,-0.0894,-0.0838,-0.0112,-0.0224,-0.0447,-0.0729,-0.1009,-0.1291,-0.1401,0.0,0.0,0.0,-0.2371,-0.2064,-0.108,-0.0366,0.0403,0.1366,0.3422,0.4616,0.47,0.714,0.8455,0.8667,0.903,0.927,0.9368,0.9328,0.9582,0.0,0.0,0.0,0.0,0.0,0.0,1.3228,0.0,1.7834,1.8079,2.1496,2.197,2.0828,2.1182,2.0632,1.9353,1.6405,0.0,1.4956,1.3961,1.3057,0.0,0.0,0.0,0.0,0.0,0.0,0.0,0.0,0.0,1.1368,0.0,0.0,0.0,0.0,0.0,0.0,0.0,0.0,0.0,0.0,0.0,0.0,0.0,0.0,0.0,0.0,0.0,0.0,0.0,0.0,0.0,5.684,5.6427,5.6073,5.5913,5.5875,5.573,5.5328,5.4749,5.4497,5.4665,5.4274,5.4735,5.6088,5.5947,5.6275,5.6898,5.6054,5.5421,5.5018,5.4611,5.4621,5.4892,5.4259,5.3525,5.2701,5.1752,5.1035,5.043,5.1035,5.1508,5.1759,-0.0224,-0.1008,-0.1064,0.1062,0.0559,-0.0112,-0.0,0.0392,0.0224,-0.1062,-0.1064,-0.1177,0.0,0.0,0.0,0.0,0.0,0.0,-0.4352,0.0,-0.1767,0.0842,0.2413,0.371,0.477,0.6147,0.7244,0.8095,0.8136,0.8382,0.8805,0.8683,0.9006,0.0,1.0864,0.0,0.0,0.0,1.3345,0.0,1.6748,1.7754,0.0,1.9813,2.1407,2.2852,2.2144,2.1736,2.0941,0.0,1.6528,1.6525,0.0,1.2922,1.3699,1.0519,0.0,0.0,0.0,0.0,0.0,0.0,1.1318,0.0,0.0,0.0,0.0,0.0,0.0,0.0,0.0,0.0,0.0,0.0,0.0,0.0,0.0,0.0,0.0,0.0,0.0,0.0,0.0,0.0,0.0,0.0,5.2335,5.153,5.6128,5.571,5.5208,5.5131,5.4915,5.4581,5.4189,5.4103,5.4568,5.5534,5.5993,5.6298,5.6498,5.6326,5.5819,5.5149,5.4875,5.4756,5.4892,5.4259,5.3525,5.2701,5.1752,5.0894,5.015,5.0766,5.1123,5.1505,0.0392,0.0112,0.0112,0.1119,0.084,0.0504,0.0504,0.0513,0.0288,-0.0346,-0.1229,0.0,0.0,0.0,0.0,0.0,0.0,-0.5643,0.0,0.0,-0.2434,0.0373,0.2125,0.3268,0.3873,0.5871,0.7185,0.7659,0.777,0.7931,0.8136,0.8054,0.8685,0.9836,1.0738,0.0,1.2371,0.0,1.3515,0.0,0.0,0.0,0.0,2.1115,2.2035,2.244,2.1561,2.0983,2.0304,0.0,1.6706,0.0,0.0,0.0,0.0,1.2615,0.0,0.0,0.0,0.0,0.0,0.0,0.0,0.0,1.1268,0.0,1.1368,0.0,0.0,0.0,0.0,0.0,0.0,0.0,0.0,0.0,0.0,0.0,0.0,0.0,0.0,0.0,0.0,0.0,0.0,0.0,0.0,5.0942,5.5512,5.5608,5.5408,5.5131,5.4665,5.4274,5.4103,5.4103,5.4451,5.5233,5.5574,5.578,5.581,5.581,5.543,5.4684,5.4789,5.4885,5.4911,5.4284,5.3501,5.2701,5.1752,5.1007,5.0572,5.1017,5.1294,5.1627,0.028,0.0561,0.0673,0.0673,0.0673,0.0673,0.0673,0.0346,-0.0,0.0,0.0,0.0,-0.2519,-0.3851,0.0,0.0,-0.6889,-0.7118,0.0,0.0,-0.3623,-0.1256,0.1342,0.0,0.0,0.5664,0.6858,0.7211,0.7325,0.7475,0.7688,0.7603,0.8297,0.9657,0.0,1.1669,1.3177,0.0,1.4047,1.5733,1.6672,1.8227,2.0243,2.2599,2.2996,2.2241,2.1535,2.0992,2.0292,1.8631,1.7147,0.0,1.714,0.0,0.0,0.0,0.0,0.0,1.163,0.0,0.0,0.0,0.0,0.0,0.0,0.0,0.0,0.0,0.0,0.0,0.0,0.0,0.0,0.0,0.0,0.0,0.0,0.0,0.0,0.0,0.0,0.0,0.0,0.0,0.0,0.0,0.0,0.0,5.475,5.5052,5.4809,5.4397,5.403,5.3931,5.4103,5.4103,5.4356,5.4861,5.527,5.5318,5.5058,5.5523,5.5287,5.4545,5.4797,5.4981,5.5077,5.4317,5.3529,5.2681,5.2011,5.1458,5.0906,5.1017,5.1238,5.1568,-0.0841,-0.0393,0.0056,0.0056,0.0056,0.0056,0.0056,-0.0,0.0,0.0,0.0,0.0,0.0,0.0,0.0,0.0,0.0,-1.2588,-1.2224,0.0,-0.6104,0.0,0.0,0.2943,0.0,0.5291,0.5865,0.6738,0.6591,0.6914,0.7573,0.7348,0.7809,0.889,1.0152,1.0904,1.1442,1.374,1.5674,1.7269,1.8979,1.9921,2.0624,0.0,2.4083,2.3103,2.293,0.0,0.0,1.9019,1.8335,0.0,0.0,0.0,0.0,0.0,0.0,0.0,0.0,0.0,0.0,1.2244,0.0,0.0,0.0,0.0,1.2332,0.0,0.0,0.0,0.0,0.0,1.2245,1.2632,0.0,0.0,0.0,0.0,0.0,0.0,0.0,0.0,0.0,0.0,0.0,0.0,0.0,0.0,0.0,5.37,5.3101,5.2702,5.2941,5.3377,5.4103,5.4103,5.4103,5.4134,5.526,5.5254,5.426,5.5603,5.575,5.476,5.5145,5.5335,5.5213,5.439,5.35,5.2742,5.2714,5.1989,5.0906,5.0599,5.0711,5.0906,-0.1233,-0.1009,-0.0841,-0.0841,-0.0729,-0.0678,0.0,-0.0834,0.0,0.0,0.0,0.0,0.0,0.0,-0.8021,0.0,0.0,-1.0264,-0.6233,-0.6133,0.0,0.0,0.0,0.368,0.0,0.0,0.0,0.646,0.6374,0.6501,0.6761,0.6812,0.7375,0.831,0.0,1.1051,0.0,0.0,0.0,0.0,0.0,1.9133,2.0811,0.0,0.0,2.2051,2.3279,2.3749,0.0,2.2608,2.1191,2.0019,2.022,1.8933,1.7422,1.78,1.7571,0.0,0.0,0.0,1.571,1.4033,0.0,0.0,0.0,0.0,0.0,0.0,0.0,0.0,0.0,1.2461,1.2616,1.2351,1.2635,0.0,0.0,0.0,0.0,0.0,0.0,0.0,0.0,0.0,0.0,0.0,0.0,0.0,0.0,5.4178,5.3818,5.3852,5.3219,5.304,5.3192,5.3585,5.3637,5.3377,5.4075,5.436,5.426,5.4886,5.52,5.5115,5.5217,5.5331,5.5313,5.5103,5.4175,5.2936,5.3051,5.2268,5.1128,5.1017,5.1128,5.1128,-0.1681,-0.1289,-0.1065,-0.1291,-0.1179,0.0,0.0,0.0,0.0,0.0,-0.3173,0.0,-0.6242,0.0,-0.5529,0.0,-0.7122,-0.6407,-0.2624,-0.3329,0.0,-0.087,0.2359,0.0,0.0,0.0,0.0,0.0,0.0,0.6257,0.6329,0.6436,0.6823,0.7447,0.0,1.0363,1.3638,1.3973,1.5922,0.0,0.0,1.828,0.0,0.0,2.01,0.0,0.0,2.4821,2.4898,2.4785,2.3638,2.2385,2.3336,2.1613,1.9355,2.0261,1.9588,1.8582,1.8222,1.8394,0.0,0.0,1.6445,0.0,1.4205,0.0,0.0,0.0,0.0,0.0,0.0,0.0,1.2559,1.2098,1.2491,0.0,0.0,1.449,0.0,0.0,0.0,0.0,0.0,0.0,0.0,0.0,0.0,0.0,0.0,0.0,5.2958,5.3219,5.2518,5.2604,5.3621,5.3651,5.35,5.3127,5.3653,5.402,5.426,5.4546,5.496,5.5397,5.5322,5.5289,5.5313,5.532,5.4476,5.3034,5.3163,5.2352,5.1238,5.1128,5.0906,5.0906,-0.1934,-0.0765,0.0,0.0,-0.0941,0.0,0.0,0.0,-0.1044,0.0,0.1216,-0.0132,-0.2676,-0.0132,0.0135,-0.3875,-0.2753,0.0,-0.1595,-0.0664,0.0,0.0,0.2677,0.4492,0.5525,0.0,0.0,0.0,0.0,0.0,0.6381,0.6125,0.6135,0.6381,0.6707,0.0,1.2468,1.3628,1.6665,2.0505,1.829,1.7531,1.7825,1.7823,0.0,2.254,2.4982,2.5836,2.579,2.5552,2.5422,2.5302,2.513,2.41,2.2979,2.3057,2.2214,2.1118,2.0738,2.0764,2.0805,2.0078,0.0,0.0,0.0,0.0,1.6978,0.0,0.0,0.0,0.0,0.0,0.0,1.1926,1.2129,0.0,0.0,0.0,0.0,0.0,0.0,0.0,0.0,0.0,0.0,0.0,0.0,0.0,0.0,0.0,0.0,5.0981,5.0976,5.2265,5.4885,5.4229,5.3705,5.3253,5.3988,5.4293,5.4263,5.4679,5.5054,5.5481,5.5397,5.5234,5.5167,5.5235,5.436,5.2972,5.3091,5.2403,5.1238,5.0711,5.0375,5.0235,0.1891,0.5847,0.8736,0.0,0.4459,0.0878,0.0,0.0,0.0,0.0,-0.0862,-0.1597,-0.1827,-0.1347,-0.0377,0.1162,-0.0686,0.0,0.0,0.0,0.0,0.2708,0.3746,0.4455,0.4696,0.4741,0.0,0.562,0.0,0.0,0.5837,0.6054,0.6161,0.6273,0.0,0.8078,1.062,1.1586,1.4312,1.7869,1.7111,1.7421,0.0,0.0,2.1443,2.276,2.4386,2.5643,2.6561,2.6703,2.6242,2.568,2.6165,2.5763,2.5073,2.4788,2.4974,2.524,2.4979,2.5296,2.5275,2.3435,2.3292,2.3069,0.0,0.0,0.0,0.0,0.0,0.0,0.0,0.0,0.0,0.0,0.0,0.0,0.0,0.0,0.0,0.0,0.0,0.0,0.0,0.0,0.0,0.0,0.0,0.0,0.0,0.0,0.0,5.2933,5.2893,5.3121,5.3764,5.5092,5.4728,5.2755,5.402,5.4295,5.3621,5.4168,5.4455,5.456,5.5048,5.4921,5.4598,5.4555,5.412,5.3348,5.3446,5.276,5.1568,5.1017,5.0934,5.1045,0.6316,0.0,0.0,1.4766,0.0,0.0,0.5751,0.0,0.0,0.2354,0.171,0.0,0.0388,0.2231,0.3605,0.3784,0.3264,0.0,0.0,0.0,0.0,0.5303,0.5327,0.5408,0.5592,0.5337,0.0,0.5554,0.0,0.0,0.5673,0.5937,0.6209,0.6544,0.0,0.8221,1.0764,1.3695,1.5841,1.7213,1.8041,0.0,0.0,2.0857,2.2501,2.4197,2.4777,2.5888,2.7107,2.7357,2.732,2.7198,2.7691,2.7478,2.6979,2.6772,2.7173,2.7697,2.752,2.7992,2.8103,2.6503,2.639,2.608,2.3799,2.3067,2.3176,0.0,0.0,0.0,0.0,0.0,0.0,0.0,0.0,0.0,0.0,0.0,0.0,0.0,0.0,0.0,0.0,0.0,0.0,0.0,0.0,0.0,0.0,0.0,0.0,4.9729,4.9786,5.1001,5.3644,5.2653,5.2516,5.3274,5.3592,5.3652,5.3469,5.4018,5.4279,5.4291,5.488,5.4845,5.4333,5.4404,5.4031,5.3453,5.3267,5.275,5.1868,5.1458,5.1238,5.1155,1.1446,0.0,0.0,0.0,0.0,0.0,0.0,0.5407,0.0,0.6403,0.0,0.5262,0.3861,0.7876,0.9336,0.5927,0.0,0.9911,0.9774,0.9384,0.8963,0.8502,0.7466,0.7214,0.7821,0.7202,0.0,0.0,0.0,0.0,0.5927,0.5918,0.6301,0.6911,0.7228,0.0,0.0,1.688,1.8435,0.0,1.9936,2.085,2.0905,2.1211,2.3202,2.5829,2.5605,2.6334,2.7476,2.7765,2.8287,2.8874,2.9126,2.9058,2.8857,2.8857,2.9169,2.9471,2.9434,2.9823,3.0086,2.939,2.9342,2.883,2.6676,2.6199,2.6458,2.7459,2.5211,0.0,0.0,0.0,0.0,0.0,0.0,0.0,0.0,0.0,0.0,0.0,0.0,0.0,0.0,0.0,0.0,0.0,0.0,0.0,0.0,0.0,0.0,4.5786,4.6197,0.0,5.3301,0.0,4.9846,5.3219,5.2973,5.3069,5.353,5.3989,5.4253,5.4436,5.486,5.4786,5.4304,5.42,5.389,5.35,5.3001,5.2544,5.2301,5.2004,5.1458,5.1017,1.789,0.0,0.0,0.0,0.0,1.5625,1.3031,0.7862,0.5292,0.8139,0.7377,0.0,0.8974,1.002,1.1066,1.2219,1.2604,0.0,0.0,0.0,0.0,1.3765,1.1028,1.0221,1.177,1.0401,0.9263,0.0,0.0,0.0,0.6483,0.6587,0.6746,0.6982,0.7459,0.0,1.2267,1.4082,0.0,1.7755,2.043,2.1387,2.1351,2.3337,2.4575,2.5274,2.5421,2.6475,2.7779,2.8046,2.8217,2.842,2.9026,2.9945,3.0822,3.0822,3.1679,3.2625,3.2608,3.2684,3.2734,3.2577,3.2578,3.2461,3.2053,3.1398,3.1373,3.2957,3.0498,2.7952,2.7736,0.0,0.0,0.0,0.0,0.0,0.0,0.0,0.0,0.0,0.0,0.0,0.0,0.0,0.0,0.0,0.0,0.0,0.0,0.0,0.0,0.0,0.0,0.0,0.0,0.0,0.0,4.7881,5.2714,5.4006,5.2368,5.3316,5.3865,5.4031,5.4239,5.4339,5.4304,5.3815,5.371,5.3815,5.3213,5.2972,5.2972,5.2652,5.2033,5.1266,2.2423,0.0,0.0,0.0,0.0,0.0,0.0,1.3872,0.0,0.8883,0.861,0.9369,1.1663,1.259,1.3969,1.6221,1.6032,1.6404,1.784,1.6848,1.5816,1.4948,1.3534,0.0,1.2708,1.2192,1.126,0.9925,0.0,0.0,0.6983,0.71,0.7333,0.7786,0.0,1.1432,0.0,0.0,0.0,1.9553,2.1789,2.2986,2.3519,2.4536,2.5908,2.7311,2.7411,2.8593,2.984,2.8642,2.883,2.9688,3.0053,3.1384,3.2904,3.3364,3.4367,3.5458,3.5736,3.5842,3.5748,3.5264,3.5048,3.4816,3.4535,3.4067,3.3963,3.4892,3.3774,3.2027,3.0095,2.6995,0.0,0.0,0.0,0.0,0.0,0.0,0.0,0.0,0.0,0.0,0.0,0.0,0.0,0.0,0.0,0.0,0.0,0.0,0.0,0.0,0.0,0.0,0.0,0.0,0.0,5.0958,5.2869,5.3423,5.2698,5.3284,5.3498,5.3459,5.4491,5.451,5.373,5.3564,5.3605,5.3785,5.2943,5.3181,5.3906,5.2329,5.1986,5.2272,0.0,2.8524,0.0,0.0,2.5842,0.0,0.0,1.8842,1.5112,1.0632,1.0994,1.2168,1.3518,1.515,1.714,1.9419,1.9197,1.9401,2.0482,1.9477,1.818,1.6767,1.6441,1.5769,1.4549,1.4497,1.3785,0.0,0.0,0.0,0.0,0.9597,1.0171,0.0,0.0,0.0,0.0,0.0,2.0922,2.1911,2.3773,2.5023,2.586,2.6112,2.7594,2.9597,2.9799,3.0974,3.2096,3.0254,3.0491,3.1576,3.1809,3.3278,3.5049,3.5715,3.671,3.7721,3.835,3.8407,3.8132,3.7436,3.7063,3.6766,3.6339,3.5956,3.5804,3.6317,3.627,3.5327,3.2483,3.064,0.0,0.0,0.0,0.0,0.0,0.0,0.0,0.0,0.0,0.0,0.0,0.0,0.0,0.0,0.0,0.0,0.0,0.0,0.0,0.0,0.0,4.7415,4.9824,0.0,5.0704,0.0,5.3309,5.3227,5.3552,5.3371,5.3346,5.3438,5.4945,5.4825,5.3638,5.3435,5.3594,5.3756,5.2596,5.3304,5.4738,5.1947,5.186,5.3026,0.0,0.0,0.0,0.0,0.0,0.0,0.0,1.8587,1.8426,1.5475,1.6166,1.6435,1.5244,1.7353,1.9878,2.2375,2.2399,2.3213,2.5557,2.5087,2.4296,2.3345,2.1305,2.0439,2.0939,1.9236,1.8034,0.0,0.0,0.0,0.0,1.6846,0.0,0.0,0.0,0.0,0.0,2.0479,2.1898,2.4133,2.655,2.7246,2.709,2.926,3.0199,3.0495,3.1484,3.2421,3.328,3.3825,3.3788,3.3632,3.4253,3.5744,3.7292,3.7325,3.8024,3.8994,3.9778,3.9451,3.8883,3.8821,3.8762,3.8716,3.87,3.7932,3.7753,3.9336,3.8614,3.728,3.6031,3.6021,3.5702,0.0,0.0,0.0,0.0,0.0,0.0,0.0,0.0,0.0,0.0,0.0,0.0,0.0,0.0,0.0,0.0,0.0,0.0,4.5459,0.0,4.6153,4.2181,5.2235,0.0,4.9328,5.3582,5.5002,5.3859,5.3496,5.3871,5.4788,5.5034,5.4996,5.4749,5.3524,5.3186,5.3442,5.2491,5.3304,5.4839,5.2151,5.1831,5.2647,0.0,0.0,0.0,0.0,0.0,0.0,0.0,2.4075,2.3989,2.2824,2.0804,1.9633,2.005,2.1512,2.3355,2.5661,2.6005,2.6685,2.7999,2.72,2.6064,2.4742,2.3792,2.281,2.1744,2.1019,2.0094,0.0,0.0,0.0,0.0,0.0,0.0,0.0,0.0,2.0008,2.1639,2.4101,2.5707,2.6734,2.8235,2.9074,2.9508,3.0325,3.1678,3.3167,3.3484,3.4817,3.6546,3.7287,3.6511,3.5313,3.6012,3.719,3.8504,3.9475,4.013,4.077,4.1915,4.201,4.1761,4.1781,4.1635,4.1427,4.1053,4.0587,4.0442,4.1241,4.1091,4.0246,3.8424,3.8531,3.835,0.0,0.0,0.0,0.0,0.0,0.0,0.0,0.0,0.0,0.0,0.0,0.0,0.0,0.0,0.0,0.0,0.0,0.0,4.0247,0.0,4.8184,4.4441,5.2577,5.5794,5.3898,5.549,5.606,5.5824,5.5231,5.5522,5.6546,5.5891,5.6176,5.69,5.4916,5.4221,5.4441,5.3098,5.3796,5.5328,5.2928,5.2833,5.3652,2.9238,0.0,3.0452,0.0,2.856,2.8895,2.8683,2.8389,2.8237,2.8407,2.5735,2.3958,2.428,2.5221,2.6571,2.8433,2.8876,2.923,2.9715,2.9024,2.7867,2.627,2.6173,0.0,2.3571,2.3402,2.2819,2.1718,2.2245,0.0,0.0,0.0,0.0,0.0,2.2657,2.3487,2.4212,2.7214,2.8514,2.8633,2.9798,3.0687,3.1379,3.2299,3.386,3.5685,3.6265,3.7656,3.9284,3.9851,3.8961,3.7733,3.8226,3.8994,3.9981,4.1429,4.1888,4.2268,4.3713,4.3933,4.3745,4.3762,4.3623,4.3372,4.295,4.2511,4.2284,4.257,4.2974,4.2795,4.1207,4.1135,4.07,0.0,0.0,0.0,0.0,0.0,0.0,0.0,3.7567,3.6601,0.0,0.0,0.0,0.0,0.0,0.0,0.0,0.0,0.0,0.0,0.0,0.0,0.0,0.0,5.6429,5.7428,5.6862,5.6915,5.7419,5.6796,5.679,5.7186,5.6376,5.6563,5.729,5.5594,5.4786,5.4561,5.3621,5.4268,5.5534,5.3343,5.3495,5.439,3.1484,3.2292,3.2373,2.9924,3.0424,3.0907,3.0109,2.9924,3.0215,3.1111,3.1213,3.0013,2.7,2.7908,2.9228,3.0358,3.0532,3.0684,3.0952,3.1276,3.0701,0.0,0.0,2.8528,2.7852,2.7302,2.6984,2.6918,0.0,0.0,2.4461,0.0,2.3184,2.8714,2.4957,2.5307,2.8746,2.9199,2.9389,2.9554,3.1343,3.2039,3.2381,3.5875,3.7246,3.757,3.9986,4.0841,4.0917,4.1192,4.1267,4.123,4.1237,4.1535,4.2006,4.2812,4.3032,4.3324,4.4926,4.4744,4.4087,4.4087,4.4087,4.4087,4.4051,4.3355,4.2848,4.3385,4.4129,4.47,4.4724,4.448,4.3628,4.1681,0.0,0.0,0.0,0.0,0.0,4.0488,3.6914,3.534,3.789,0.0,0.0,0.0,0.0,0.0,0.0,0.0,0.0,4.5057,4.5317,0.0,4.7487,5.3687,5.697,5.7394,5.7269,5.759,5.8351,5.7857,5.7197,5.627,5.6001,5.5668,5.5216,5.5216,5.4476,5.3381,5.3989,5.4629,5.5065,5.3279,5.3663,5.4662,3.0414,3.1211,3.1784,3.0837,3.1062,3.1594,3.2104,3.2179,3.2505,3.3439,3.305,3.2513,3.2148,3.1708,3.1613,0.0,3.222,3.2406,0.0,3.2618,3.2116,3.0871,3.0304,2.9872,2.9525,2.7967,2.7439,2.8006,0.0,0.0,0.0,2.7768,2.8208,2.9902,2.8904,2.9445,3.1187,3.2298,3.3118,3.3849,3.5609,3.635,3.6635,3.8412,3.9369,3.9913,4.0651,4.1376,4.2076,4.2649,4.281,4.2802,4.3307,4.3101,4.2887,4.4271,4.4634,4.4744,4.529,4.5178,4.496,4.496,4.496,4.496,4.496,4.474,4.4489,4.441,4.5111,4.5514,4.4852,4.5194,4.5051,4.3602,0.0,0.0,0.0,0.0,4.0965,4.0831,3.864,3.7598,0.0,0.0,0.0,0.0,0.0,0.0,0.0,0.0,0.0,0.0,4.4466,0.0,4.6141,5.2521,5.6197,5.7028,5.7868,5.8355,5.8729,5.8497,5.8314,5.8183,5.8269,5.8059,5.7599,5.7588,5.6709,5.5229,5.5121,5.5407,5.5675,5.4096,5.419,5.4837,3.2487,3.2534,3.2891,3.3701,3.2889,3.2577,3.3942,3.3589,3.3633,3.4807,3.4258,3.4166,3.5351,3.4761,0.0,3.3813,3.4003,0.0,3.4095,3.386,3.3245,3.2299,3.1774,3.1421,3.1354,0.0,0.0,3.0245,3.0072,3.0577,3.1684,3.1217,3.1155,3.1517,3.1972,3.2673,3.3552,3.4694,3.5565,3.6283,3.7713,3.8371,3.8606,4.0108,4.1,4.1542,4.2179,4.2843,4.3467,4.3869,4.3927,4.3886,4.4188,4.4076,4.4114,4.5323,4.5515,4.5408,4.5982,4.5946,4.5695,4.5695,4.5695,4.5695,4.5695,4.5864,4.5997,4.6057,4.669,4.698,4.6225,4.645,4.6241,4.4824,0.0,4.4675,4.4311,0.0,0.0,0.0,0.0,0.0,0.0,3.6917,0.0,0.0,0.0,0.0,0.0,0.0,0.0,4.0058,4.6227,0.0,4.7445,5.1768,5.4632,5.5898,5.7621,5.8407,5.8443,5.858,5.851,5.8234,5.8527,5.8221,5.7566,5.7655,5.6944,5.5797,5.5701,5.5815,5.5845,5.5044,5.4973,5.5038,3.6913,3.5775,0.0,0.0,3.5605,0.0,3.5613,3.451,3.4028,3.557,3.5104,3.5236,3.6807,3.7084,3.6779,3.5929,0.0,0.0,0.0,3.509,3.4332,3.3508,3.3359,0.0,3.3272,3.3215,3.3134,3.3101,3.2384,3.2308,3.2851,3.2134,3.2378,3.3494,3.4089,3.4899,3.5813,3.6482,3.6905,3.7219,3.8227,3.8614,3.8877,4.129,4.2269,4.2596,4.4363,4.4986,4.4925,4.4813,4.4757,4.4645,4.4215,4.4696,4.5474,4.6009,4.567,4.5544,4.6981,4.679,4.623,4.621,4.621,4.621,4.621,4.659,4.7186,4.8074,4.8627,4.8835,4.8531,4.8147,4.7312,4.5597,4.5515,4.5156,4.3737,0.0,0.0,0.0,0.0,0.0,0.0,4.1323,4.1949,0.0,0.0,0.0,0.0,0.0,4.0644,4.848,4.9519,5.0139,5.0447,5.1292,5.2638,5.4423,5.6734,5.7621,5.7459,5.8279,5.7966,5.6912,5.715,5.6667,5.5687,5.5927,5.5631,5.517,5.5821,5.5951,5.5618,5.5876,5.5701,5.5246,0.0,0.0,3.7549,3.8114,3.7528,3.7123,3.7483,3.6677,3.6387,3.7402,3.7346,3.7371,3.7699,3.883,3.9234,3.8339,3.7868,3.7585,3.7604,3.687,3.6376,3.6122,3.5328,3.4981,3.5078,3.4306,3.3682,3.3192,3.339,3.3545,3.3652,3.3657,3.4179,3.5124,3.507,3.5936,3.74,3.8081,3.8756,3.9574,4.1109,4.1791,4.1969,4.3608,4.4246,4.4438,4.5663,4.5903,4.5672,4.6329,4.6295,4.5944,4.5976,4.6123,4.6157,4.5694,4.5852,4.6317,4.6658,4.6624,4.6464,4.6408,4.6377,4.6377,4.6377,4.6447,4.686,4.8089,4.8443,4.8762,4.9417,4.9453,4.8986,4.7737,4.6748,4.5841,4.5054,4.4045,0.0,0.0,4.2705,4.2664,4.2588,4.2932,4.2888,0.0,0.0,0.0,0.0,0.0,4.479,4.6782,4.7793,4.8304,4.8287,4.9981,5.2113,5.4543,5.5153,5.5721,5.6191,5.708,5.7316,5.7047,5.7765,5.7316,5.6264,5.7313,5.6711,5.5141,5.5281,5.562,5.5895,5.4615,5.481,5.5572,3.9289,3.9018,3.8902,3.9239,3.8646,3.8257,3.8601,3.7939,3.7697,3.8505,3.8227,3.8126,3.8516,3.9626,4.0182,3.9718,3.9049,3.8674,3.8674,3.8024,3.7624,3.7602,3.7086,3.6785,3.6797,3.6323,3.5989,3.5823,3.5778,3.5878,3.6066,3.6497,3.697,3.7368,3.7617,3.8218,3.9154,3.9502,3.9808,4.0251,4.2057,4.2538,4.239,4.4177,4.4957,4.5187,4.6327,4.678,4.688,4.7226,4.7122,4.6824,4.6219,4.6285,4.6519,4.5653,4.5957,4.6693,4.7031,4.6895,4.6583,4.6522,4.6715,4.6954,4.6954,4.7236,4.7835,4.8886,4.9195,4.9313,4.9664,4.9878,4.9455,4.7709,4.6705,4.5818,4.4956,4.3875,0.0,4.3892,4.3905,4.4079,4.4565,4.428,4.3933,4.3553,0.0,0.0,4.4079,4.5813,4.6785,4.6701,4.7951,4.849,4.8251,4.9882,5.1485,5.2938,5.3868,5.4415,5.4644,5.5806,5.655,5.6881,5.6882,5.6821,5.6726,5.6753,5.624,5.5407,5.5204,5.5492,5.5934,5.5117,5.509,5.564,4.0588,4.0029,3.9769,4.0496,3.9431,3.8685,3.9353,3.8832,3.8609,3.9284,3.8798,3.8652,3.9276,4.0024,4.0411,4.0278,3.97,3.9437,3.9582,3.8915,3.8507,3.8654,3.8523,3.8376,3.8277,3.8242,3.8432,3.8809,3.8265,3.823,3.867,3.9355,3.9531,3.9407,4.0166,4.0527,4.0527,4.0745,4.0636,4.0524,4.2359,4.2697,4.2334,4.4346,4.5331,4.5771,4.6864,4.7631,4.8125,4.7775,4.7638,4.7431,4.6076,4.6124,4.6618,4.5979,4.6192,4.6736,4.734,4.7194,4.6784,4.6858,4.7328,4.7861,4.7861,4.8311,4.9068,4.985,5.008,5.0039,4.9851,5.0053,4.9395,4.6921,4.6102,4.538,4.4365,0.0,4.3789,4.4969,4.5244,4.5544,4.618,4.5592,4.5168,4.5073,4.5143,0.0,0.0,4.6554,4.7522,4.7514,4.8761,4.9319,4.9102,5.024,5.0883,5.1096,5.2994,5.3721,5.3484,5.4693,5.5665,5.6269,5.5418,5.5703,5.668,5.5483,5.5297,5.5709,5.5166,5.5314,5.5825,5.5905,5.5762,5.5653,4.0588,4.046,4.0385,4.0562,4.0314,4.0077,4.0215,4.017,4.0145,4.0202,4.074,4.0842,4.0199,4.0774,4.0929,4.0182,4.0138,4.05,4.1345,4.004,3.9566,4.0323,3.954,3.9035,3.9035,3.8347,3.8058,3.8214,3.8518,3.8751,3.8958,3.9517,3.9799,3.9799,3.9942,4.0053,4.0164,4.1414,4.1988,4.2174,4.3772,4.4863,4.5621,4.6262,4.6963,4.7722,4.8277,4.8508,4.8515,4.8029,4.7858,4.773,4.691,4.6738,4.6828,4.6589,4.6596,4.6604,4.6702,4.7176,4.7703,4.7998,4.8497,4.896,4.896,4.8927,4.9114,4.9999,5.0189,5.0311,5.0724,5.0496,4.9606,4.7499,4.5881,4.4876,4.4848,0.0,4.5572,4.7296,4.8123,4.8343,4.7818,4.7235,4.6627,4.5976,4.5987,4.6025,4.605,4.6986,4.783,4.8548,4.8642,4.8798,4.9102,4.9969,5.09,5.1833,5.3067,5.3779,5.3981,5.4404,5.462,5.4655,5.4677,5.488,5.5218,5.5001,5.5142,5.5469,5.4787,5.4918,5.5475,5.4941,5.5152,5.578,4.0463,4.0452,4.0412,4.0428,4.0465,4.0423,4.0397,4.0489,4.0513,4.0463,4.0791,4.0839,4.0387,4.1034,4.1291,4.0849,4.0849,4.1137,4.1679,4.0631,4.0158,4.0549,4.017,3.9867,3.9867,3.9336,3.9328,3.9833,3.9664,3.9869,4.0352,4.0954,4.1294,4.1414,4.1924,4.2143,4.2186,4.2888,4.3076,4.3094,4.4721,4.5356,4.5492,4.6884,4.7568,4.7823,4.8432,4.8781,4.8711,4.8092,4.7836,4.7659,4.6988,4.6592,4.646,4.65,4.6504,4.6589,4.7052,4.7443,4.7883,4.8491,4.9192,4.9665,4.9665,5.005,5.046,5.0837,5.107,5.0904,5.0134,5.0342,4.9567,4.6176,4.5964,0.0,0.0,4.5811,4.6953,4.8328,4.8548,4.8834,4.9396,4.8137,4.7357,4.7481,4.7147,4.6739,4.63,4.7069,4.7684,4.8108,4.9235,4.9596,4.9102,4.992,5.0794,5.1744,5.1887,5.234,5.3075,5.3237,5.3429,5.3696,5.41,5.4675,5.5276,5.4972,5.5249,5.5706,5.5199,5.5104,5.5202,5.5066,5.5213,5.5471,4.0386,4.032,4.0306,4.0324,4.0415,4.0416,4.0446,4.0488,4.0561,4.0528,4.0485,4.0436,4.0288,4.0898,4.1239,4.1138,4.1087,4.1138,4.1205,4.0743,4.0436,4.0436,4.0436,4.0436,4.0436,4.0238,4.05,4.1139,4.0817,4.0968,4.1635,4.2312,4.2695,4.2859,4.3512,4.384,4.384,4.4015,4.393,4.3791,4.5481,4.5834,4.5544,4.7427,4.805,4.8083,4.8631,4.8727,4.8606,4.8166,4.7861,4.7658,4.6887,4.6577,4.6432,4.6376,4.6309,4.6531,4.7677,4.7814,4.7924,4.9054,4.9733,5.0176,5.0431,5.1092,5.1625,5.1731,5.1843,5.1472,5.0056,5.0474,4.9739,4.5867,0.0,0.0,0.0,4.6606,4.7808,4.8982,4.8531,4.868,5.0067,4.854,4.7726,4.8343,4.7844,4.7146,4.6342,4.7069,4.7684,4.8108,4.98,5.0279,4.947,5.0253,5.091,5.137,5.1206,5.1563,5.2386,5.2482,5.2786,5.323,5.3595,5.4288,5.5152,5.4919,5.5185,5.5766,5.5636,5.5472,5.5209,5.5334,5.5296,5.5279,4.0308,4.0237,4.0289,4.0437,4.0389,4.0366,4.0577,4.0523,4.048,4.05,4.0387,4.0288,4.0288,4.0256,4.0206,4.0206,4.0206,4.0206,4.0206,4.0172,4.0188,4.0288,4.0188,4.0188,4.0288,4.0288,4.0436,4.0728,4.1366,4.1759,4.1954,4.2748,4.3128,4.3178,4.3247,4.3247,4.3316,4.4007,4.4335,4.4574,4.6083,4.7283,4.8032,4.8342,4.8988,4.9688,4.9375,4.8694,4.8001,4.8191,4.8278,4.8102,4.6993,4.7214,4.7617,4.6433,4.6058,4.6381,4.836,4.8238,4.8012,4.9789,5.0188,5.0397,5.1443,5.1663,5.1795,5.2068,5.2038,5.1949,5.1891,5.1422,5.0416,4.8656,0.0,0.0,4.7665,4.7391,4.7823,4.95,4.8943,4.8555,4.9051,4.8398,4.7833,4.7523,4.7496,4.7144,4.6342,4.7069,4.822,4.9868,4.9829,5.0001,5.0486,5.1375,5.1552,5.1074,5.2193,5.2779,5.2953,5.301,5.3192,5.344,5.3182,5.3389,5.3951,5.4323,5.4825,5.5455,5.573,5.5844,5.5729,5.5209,5.523,5.5434,4.0226,4.027,4.0285,4.0394,4.0412,4.0446,4.0504,4.0582,4.0534,4.0387,4.0419,4.0348,4.0071,4.0071,4.0104,3.9959,4.0027,4.0087,4.0087,4.0629,4.0663,4.0222,4.0188,4.0238,4.0288,4.083,4.1169,4.1366,4.2156,4.2634,4.2733,4.3542,4.3922,4.3922,4.4457,4.4698,4.479,4.5206,4.5418,4.5648,4.7408,4.8309,4.8802,4.9975,5.0379,5.0338,5.019,4.9592,4.8987,4.9075,4.8941,4.8681,4.7668,4.7691,4.8041,4.7546,4.6667,4.6488,4.901,4.8954,4.8419,4.9751,5.053,5.1135,5.1582,5.1875,5.2065,5.2224,5.2301,5.209,5.1336,5.1435,5.0788,4.8359,0.0,4.9048,4.7937,4.8265,4.8829,4.9424,4.8862,4.8515,4.8846,4.8298,4.8009,4.8117,4.7693,4.7338,4.7067,4.7858,4.8872,5.0063,5.0477,5.0992,5.1595,5.0731,5.0663,5.1415,4.9949,5.0263,5.2102,5.1512,5.1927,5.3123,5.3182,5.3419,5.3826,5.3929,5.4301,5.4789,5.5366,5.547,5.5284,5.5495,5.5374,5.5196,4.0219,4.0259,4.0337,4.0387,4.0485,4.0583,4.0631,4.0631,4.0583,4.0387,4.0337,4.0215,3.9919,4.0023,3.9994,3.9891,4.0238,4.0456,4.046,4.1257,4.141,4.0561,4.0578,4.0678,4.0678,4.1579,4.2106,4.2205,4.3047,4.3476,4.3577,4.4285,4.4664,4.4712,4.528,4.5623,4.579,4.5906,4.617,4.6675,4.8225,4.9052,4.9452,5.0503,5.0553,5.0159,4.9959,4.9351,4.8768,4.905,4.8914,4.8559,4.7588,4.7452,4.7607,4.7674,4.6993,4.6579,4.8536,4.8738,4.8667,5.0184,5.0685,5.0984,5.1655,5.1927,5.2042,5.2345,5.2471,5.2217,5.1356,5.1558,5.1247,4.9144,4.984,5.0147,4.8824,4.909,4.939,4.9289,4.8889,4.874,4.8998,4.8515,4.8253,4.8416,4.7788,4.7442,4.7497,4.8322,4.9178,5.0063,5.0626,5.123,5.1916,5.0511,5.0141,5.079,4.8694,4.8998,5.1381,5.0749,5.1587,5.3451,5.32,5.34,5.3842,5.3608,5.3759,5.4265,5.4943,5.5023,5.4831,5.534,5.5177,5.4699,4.0288,4.0288,4.0387,4.0631,4.0714,4.0762,4.0905,4.0631,4.0485,4.0485,4.015,3.9891,3.9923,3.9945,3.9976,3.9895,4.0762,4.13,4.1219,4.2038,4.2158,4.1444,4.141,4.1478,4.1579,4.2517,4.3081,4.3232,4.394,4.4285,4.4285,4.5079,4.548,4.551,4.551,4.5622,4.5934,4.5934,4.6553,4.7536,4.8523,4.9452,5.0096,4.9555,4.9326,4.9194,4.8551,4.7749,4.705,4.7754,4.7977,4.7801,4.6494,4.6194,4.6225,4.6521,4.6609,4.6609,4.6609,4.7249,4.8561,5.1231,5.0581,4.9884,5.1688,5.1636,5.1516,5.2387,5.2573,5.2452,5.2347,5.2056,5.188,5.1714,5.1076,5.0615,5.0615,4.9858,4.9289,4.9289,4.9164,4.9225,4.9589,4.9062,4.8541,4.8121,4.7665,4.7415,4.7498,4.8337,4.9178,5.0063,5.0041,5.0416,5.1278,5.0996,5.0229,4.8914,4.912,4.9771,5.0894,5.1243,5.2577,5.4617,5.3282,5.323,5.3906,5.312,5.319,5.3862,5.4556,5.4639,5.441,5.4741,5.4455,5.3956,4.0288,4.0436,4.0617,4.0714,4.0714,4.066,4.0513,4.0426,4.0246,3.9976,3.9803,3.9974,4.0466,4.0679,4.0995,4.1579,4.2013,4.2463,4.3152,4.2723,4.2712,4.3228,4.277,4.2535,4.2551,4.3459,4.394,4.394,4.4699,4.5079,4.5079,4.532,4.548,4.551,4.5625,4.5805,4.5996,4.6255,4.652,4.7008,4.7998,4.8628,4.9026,5.005,5.0063,4.9418,4.9863,4.9448,4.8713,4.8781,4.8773,4.8758,4.8263,4.714,4.6133,4.705,4.6844,4.6491,4.7318,4.788,4.8313,4.8943,4.9756,5.0538,5.1252,5.1783,5.2287,5.252,5.2564,5.2505,5.2259,5.2104,5.1941,5.1825,5.1128,5.0615,5.0615,4.9858,4.9257,4.9262,4.9131,4.8973,4.8662,4.8447,4.8251,4.7987,4.7621,4.7442,4.7498,4.8313,4.8646,4.8287,4.9406,4.9814,4.9495,4.9186,4.9141,4.9311,4.8567,4.8715,4.9733,5.0794,5.198,5.3248,5.3838,5.3687,5.3049,5.3269,5.2858,5.2218,5.3363,5.3809,5.3891,5.4916,5.4652,5.401,4.0436,4.0583,4.0714,4.0776,4.0762,4.0646,4.0394,4.03,4.0126,3.9924,3.9847,4.012,4.0964,4.1156,4.152,4.2355,4.2773,4.3392,4.4395,4.3794,4.3889,4.4848,4.4541,4.4019,4.3374,4.4199,4.4682,4.4734,4.5545,4.5925,4.5925,4.6075,4.6113,4.6178,4.6032,4.6083,4.6212,4.6483,4.6838,4.7346,4.8009,4.8507,4.8903,4.9577,4.9434,4.8871,4.898,4.8671,4.8226,4.7989,4.7904,4.7878,4.7881,4.7019,4.6223,4.7051,4.6874,4.6639,4.7318,4.7702,4.7875,4.7598,4.879,5.0229,5.0919,5.132,5.1762,5.2378,5.2516,5.2461,5.2202,5.2072,5.1993,5.1899,5.1287,5.0775,5.0611,4.9973,4.9433,4.9235,4.9098,4.8911,4.8509,4.8326,4.8124,4.8004,4.7893,4.7771,4.7499,4.832,4.8547,4.8014,4.8673,4.8933,4.8737,4.8224,4.8296,4.9016,4.8343,4.8641,4.9855,5.064,5.188,5.3453,5.3786,5.3841,5.3666,5.3484,5.2975,5.2333,5.3105,5.3443,5.3616,5.464,5.4525,5.41,4.0714,4.0714,4.0762,4.0871,4.0776,4.0629,4.05,4.0351,4.0196,4.0224,4.0114,4.048,4.1475,4.1566,4.1841,4.2602,4.3278,4.4042,4.5017,4.4984,4.531,4.6225,4.64,4.5732,4.4258,4.4898,4.5333,4.5474,4.6377,4.6811,4.6773,4.7077,4.7149,4.7091,4.6584,4.6415,4.6582,4.6577,4.7174,4.8176,4.8167,4.8627,4.9219,4.8307,4.789,4.7738,4.6824,4.6456,4.6386,4.6251,4.6049,4.5956,4.6225,4.6195,4.6284,4.6756,4.6931,4.6931,4.6931,4.7106,4.7222,4.7019,4.7819,4.9035,5.057,5.0435,5.0546,5.1993,5.2373,5.2354,5.2236,5.2111,5.2037,5.1913,5.1444,5.1004,5.0712,5.0149,4.9639,4.9318,4.903,4.889,4.889,4.8471,4.8239,4.8253,4.8433,4.8301,4.7731,4.8398,4.8787,4.8783,4.801,4.7991,4.8794,4.7951,4.7797,4.8335,4.841,4.9219,5.0681,5.0803,5.2177,5.4417,5.3413,5.379,5.5071,5.3875,5.3403,5.3535,5.3413,5.3426,5.3532,5.4093,5.4194,5.4076,4.0714,4.0776,4.0871,4.0871,4.0776,4.0676,4.0452,4.0831,4.0945,4.0163,4.1117,4.2019,4.2287,4.291,4.37,4.4514,4.4693,4.4776,4.4934,4.552,4.5926,4.6191,4.6745,4.6941,4.6743,4.6305,4.6089,4.6089,4.6458,4.6639,4.6646,4.7056,4.6851,4.6258,4.6389,4.6517,4.6615,4.6693,4.6909,4.7216,4.6937,4.7007,4.7342,4.7746,4.7281,4.6607,4.7068,4.6971,4.6602,4.6634,4.6432,4.6225,4.6668,4.6491,4.6284,4.6756,4.6931,4.6931,4.6931,4.7106,4.7309,4.7222,4.7452,4.7849,4.8872,5.0023,5.094,5.1327,5.1908,5.2412,5.2354,5.2203,5.2145,5.1977,5.1563,5.1203,5.0995,5.0281,4.975,4.9676,4.9228,4.889,4.889,4.8534,4.864,4.9537,4.8771,4.8593,4.9328,4.8946,4.8705,4.8705,4.8554,4.8547,4.8815,4.856,4.849,4.8642,4.9232,4.9666,4.9915,5.1383,5.2237,5.2627,5.3802,5.4297,5.4295,5.4466,5.3943,5.308,5.3232,5.3277,5.3222,5.346,5.3194,5.2713,4.081,4.1133,4.1423,4.1423,4.1636,4.1726,4.1562,4.1852,4.1922,4.1427,4.2093,4.2862,4.3476,4.3819,4.4389,4.5129,4.4977,4.5039,4.5459,4.5823,4.6398,4.7331,4.7348,4.7427,4.7572,4.7127,4.6977,4.6969,4.7513,4.7636,4.7251,4.7717,4.7479,4.6582,4.6714,4.6629,4.6525,4.6613,4.674,4.674,4.6547,4.6562,4.6917,4.6966,4.6789,4.6461,4.6808,4.6726,4.6609,4.6756,4.658,4.6403,4.6668,4.658,4.6491,4.6844,4.6931,4.6931,4.6931,4.7106,4.7309,4.7106,4.7222,4.7538,4.8407,4.9599,5.0615,5.1027,5.1835,5.2373,5.2373,5.2267,5.2126,5.2035,5.1773,5.147,5.1138,5.0628,5.0163,4.9823,4.9455,4.9157,4.903,4.8995,4.9181,4.9822,4.9567,4.9497,4.9702,4.9457,4.9306,4.9336,4.8945,4.8742,4.88,4.8749,4.8709,4.872,4.9508,5.0048,5.0403,5.1399,5.2133,5.2773,5.3696,5.4438,5.4924,5.5121,5.4721,5.3905,5.3859,5.3791,5.3665,5.3654,5.3243,5.27,4.1043,4.1561,4.2043,4.2181,4.2634,4.294,4.2888,4.2875,4.2928,4.2873,4.3152,4.3684,4.4434,4.4465,4.4572,4.5055,4.4922,4.5201,4.6095,4.6268,4.7013,4.8357,4.8031,4.7798,4.7677,4.7671,4.7585,4.7478,4.838,4.8494,4.7787,4.8303,4.8032,4.7069,4.6888,4.6742,4.6504,4.6573,4.6687,4.6779,4.6548,4.6659,4.6978,4.6395,4.6411,4.6725,4.6373,4.6403,4.6668,4.6668,4.6668,4.6668,4.6697,4.6668,4.6668,4.6931,4.6931,4.6931,4.6931,4.7106,4.7222,4.7019,4.7106,4.7508,4.8201,4.9103,4.9962,5.0723,5.1655,5.2373,5.2445,5.2299,5.2164,5.2069,5.1952,5.1758,5.1297,5.1009,5.0624,5.0041,4.9638,4.9454,4.9388,4.9626,4.9854,5.0107,5.067,5.0692,4.9963,5.0062,5.0153,5.022,4.9453,4.909,4.9241,4.9301,4.9372,4.9348,5.0014,5.0636,5.1197,5.1214,5.2033,5.3522,5.3522,5.4409,5.5905,5.5724,5.5446,5.5057,5.4693,5.4568,5.4519,5.4252,5.3624,5.291,4.1698,4.1905,4.2216,4.2955,4.3012,4.3027,4.3065,4.3614,4.3771,4.3179,4.4409,4.5144,4.4524,4.4874,4.498,4.4723,4.5356,4.5804,4.5973,4.7403,4.8106,4.7729,4.8383,4.8456,4.7858,4.7842,4.747,4.6643,4.7551,4.7613,4.7006,4.7473,4.7237,4.6255,4.6612,4.6676,4.6642,4.6548,4.6762,4.6981,4.6701,4.6736,4.6841,4.6602,4.655,4.6637,4.655,4.6668,4.6931,4.7135,4.7019,4.6931,4.7135,4.7019,4.6931,4.7193,4.7222,4.7222,4.7222,4.7309,4.7309,4.7222,4.7309,4.7332,4.7372,4.8631,4.9805,4.9962,5.1252,5.2445,5.2553,5.2487,5.2335,5.2295,5.2106,5.1952,5.1844,5.1311,5.085,5.0538,4.975,4.9471,5.0104,5.0343,5.0861,5.1822,5.2064,5.2035,5.1691,5.1037,5.0821,5.1029,5.0303,5.0273,5.0976,5.1711,5.2052,5.2052,5.2103,5.1814,5.1202,5.1202,5.2059,5.3567,5.3538,5.4465,5.6,5.5885,5.5724,5.547,5.5084,5.5185,5.5495,5.4593,5.3317,5.2086,4.2492,4.2975,4.3388,4.3784,4.4096,4.4334,4.4393,4.4725,4.4867,4.4552,4.5208,4.5556,4.5142,4.5441,4.569,4.5508,4.6236,4.6874,4.7403,4.7808,4.8152,4.8292,4.7972,4.7585,4.7285,4.7297,4.692,4.6132,4.7275,4.7505,4.6828,4.7012,4.7005,4.663,4.6608,4.6748,4.7169,4.6811,4.6796,4.6947,4.6638,4.6727,4.7061,4.6696,4.6726,4.6961,4.6961,4.7048,4.7106,4.7309,4.7222,4.7106,4.7309,4.7222,4.7106,4.7309,4.7309,4.7309,4.7309,4.7309,4.7309,4.7309,4.7309,4.7306,4.7262,4.8213,4.9158,4.9623,5.0741,5.1806,5.2487,5.2516,5.2227,5.1707,5.1898,5.1917,5.1299,5.1401,5.1293,5.068,5.012,4.9986,5.0492,5.0975,5.1485,5.197,5.2247,5.2334,5.225,5.1734,5.1515,5.1628,5.1084,5.07,5.0578,5.1382,5.1839,5.1882,5.2298,5.2286,5.193,5.1431,5.1838,5.2951,5.3374,5.422,5.5354,5.5787,5.5905,5.5787,5.547,5.5271,5.5044,5.4012,5.317,5.2518]},{"header":{"parameterUnit":"m.s-1","parameterCategory":1,"la1":30.6,"la2":28.766,"lo1":-90.7593,"lo2":-88.6598,"dx":0.0162,"dy":0.0183,"nx":116,"ny":114,"refTime":"2022-11-22T18:00:00:Z","depth":0,"parameterNumber":3,"parameterNumberName":"V-component_of_WINDS"},"data":[0.0,0.0,0.0,0.0,0.0,0.0,0.0,0.0,0.0,0.0,0.0,0.0,0.0,0.0,0.0,0.0,0.0,0.0,0.0,0.0,0.0,0.0,0.0,0.0,0.0,0.0,0.0,0.0,0.0,0.0,0.0,0.0,0.0,0.0,0.0,0.0,0.0,0.0,0.0,0.0,0.0,0.0,0.0,0.0,0.0,0.0,0.0,0.0,0.0,0.0,0.0,0.0,0.0,0.0,0.0,0.0,0.0,0.0,0.0,0.0,0.0,0.0,0.0,0.0,0.0,0.0,0.0,0.0,0.0,0.0,0.0,0.0,0.0,0.0,0.0,0.0,0.0,0.0,0.0,0.0,0.0,0.0,0.0,0.0,0.0,0.0,0.0,0.0,0.0,0.0,0.0,0.0,0.0,0.0,0.0,0.0,0.0,0.0,0.0,0.0,0.0,0.0,0.0,0.0,0.0,0.0,0.0,0.0,0.0,0.0,0.0,0.0,0.0,0.0,0.0,0.0,0.0,0.0,0.0,0.0,0.0,0.0,0.0,0.0,0.0,0.0,0.0,0.0,0.0,0.0,0.0,0.0,0.0,0.0,0.0,0.0,0.0,0.0,0.0,0.0,0.0,0.0,0.0,0.0,0.0,0.0,0.0,0.0,0.0,0.0,0.0,0.0,0.0,0.0,0.0,0.0,0.0,0.0,0.0,0.0,0.0,0.0,0.0,0.0,0.0,0.0,0.0,0.0,0.0,0.0,0.0,0.0,0.0,0.0,0.0,0.0,0.0,0.0,0.0,0.0,0.0,0.0,0.0,0.0,0.0,0.0,0.0,0.0,0.0,0.0,0.0,0.0,0.0,0.0,0.0,0.0,0.0,0.0,0.0,0.0,0.0,0.0,0.0,0.0,0.0,0.0,0.0,0.0,0.0,0.0,0.0,0.0,0.0,0.0,0.0,0.0,0.0,0.0,0.0,0.0,0.0,0.0,0.0,0.0,0.0,0.0,0.0,0.0,0.0,0.0,0.0,0.0,0.0,0.0,0.0,0.0,0.0,0.0,0.0,0.0,0.0,0.0,0.0,0.0,0.0,0.0,0.0,0.0,0.0,0.0,0.0,0.0,0.0,0.0,0.0,0.0,0.0,0.0,0.0,0.0,0.0,0.0,0.0,0.0,0.0,0.0,0.0,0.0,0.0,0.0,0.0,0.0,0.0,0.0,0.0,0.0,0.0,0.0,0.0,0.0,0.0,0.0,0.0,0.0,0.0,0.0,0.0,0.0,0.0,0.0,0.0,0.0,0.0,0.0,0.0,0.0,0.0,0.0,0.0,0.0,0.0,0.0,0.0,0.0,0.0,0.0,0.0,0.0,0.0,0.0,0.0,0.0,0.0,0.0,0.0,0.0,0.0,0.0,0.0,0.0,0.0,0.0,0.0,0.0,0.0,0.0,0.0,0.0,0.0,0.0,0.0,0.0,0.0,0.0,0.0,0.0,0.0,0.0,0.0,0.0,0.0,0.0,0.0,0.0,0.0,0.0,0.0,0.0,0.0,0.0,0.0,0.0,0.0,0.0,0.0,0.0,0.0,0.0,0.0,0.0,0.0,0.0,0.0,0.0,0.0,0.0,0.0,0.0,0.0,0.0,0.0,0.0,0.0,0.0,0.0,0.0,0.0,0.0,0.0,0.0,0.0,0.0,0.0,0.0,0.0,0.0,0.0,0.0,0.0,0.0,0.0,0.0,0.0,0.0,0.0,0.0,0.0,0.0,0.0,0.0,0.0,0.0,0.0,0.0,0.0,0.0,0.0,0.0,0.0,0.0,0.0,0.0,0.0,0.0,0.0,0.0,0.0,0.0,0.0,0.0,0.0,0.0,0.0,0.0,0.0,0.0,0.0,0.0,0.0,0.0,0.0,0.0,0.0,0.0,0.0,0.0,0.0,0.0,0.0,0.0,0.0,0.0,0.0,0.0,0.0,0.0,0.0,0.0,0.0,0.0,0.0,0.0,0.0,0.0,0.0,0.0,0.0,0.0,0.0,0.0,0.0,0.0,0.0,0.0,0.0,0.0,0.0,0.0,0.0,0.0,0.0,0.0,0.0,0.0,0.0,0.0,0.0,0.0,0.0,0.0,0.0,0.0,0.0,0.0,0.0,0.0,0.0,0.0,0.0,0.0,0.0,0.0,0.0,0.0,0.0,0.0,0.0,0.0,0.0,0.0,0.0,0.0,0.0,0.0,0.0,0.0,0.0,0.0,0.0,0.0,0.0,0.0,0.0,0.0,0.0,0.0,0.0,0.0,0.0,0.0,0.0,0.0,0.0,0.0,0.0,0.0,0.0,0.0,0.0,0.0,0.0,0.0,0.0,0.0,0.0,0.0,0.0,0.0,0.0,0.0,0.0,0.0,0.0,0.0,0.0,0.0,0.0,0.0,0.0,0.0,0.0,0.0,0.0,0.0,0.0,0.0,0.0,0.0,0.0,0.0,0.0,0.0,0.0,0.0,0.0,0.0,0.0,0.0,0.0,0.0,0.0,0.0,0.0,0.0,0.0,0.0,0.0,0.0,0.0,0.0,0.0,0.0,0.0,0.0,0.0,0.0,0.0,0.0,0.0,0.0,0.0,0.0,0.0,0.0,0.0,0.0,0.0,0.0,0.0,0.0,0.0,0.0,0.0,0.0,0.0,0.0,0.0,0.0,0.0,0.0,0.0,0.0,0.0,0.0,0.0,0.0,0.0,0.0,0.0,0.0,0.0,0.0,0.0,0.0,0.0,0.0,0.0,0.0,0.0,0.0,0.0,0.0,0.0,0.0,0.0,0.0,0.0,0.0,0.0,0.0,0.0,0.0,0.0,0.0,0.0,0.0,0.0,0.0,0.0,0.0,0.0,0.0,0.0,0.0,0.0,0.0,0.0,0.0,0.0,0.0,0.0,0.0,0.0,0.0,0.0,0.0,0.0,0.0,0.0,0.0,0.0,0.0,0.0,0.0,0.0,0.0,0.0,0.0,0.0,0.0,0.0,0.0,0.0,0.0,0.0,0.0,0.0,0.0,0.0,0.0,0.0,0.0,0.0,0.0,0.0,0.0,0.0,0.0,0.0,0.0,0.0,0.0,0.0,0.0,0.0,0.0,0.0,0.0,0.0,0.0,0.0,0.0,0.0,0.0,0.0,0.0,0.0,0.0,0.0,0.0,0.0,0.0,0.0,0.0,0.0,0.0,0.0,0.0,0.0,0.0,0.0,0.0,0.0,0.0,0.0,0.0,0.0,0.0,0.0,0.0,0.0,0.0,0.0,0.0,0.0,0.0,0.0,0.0,0.0,0.0,0.0,0.0,0.0,0.0,0.0,0.0,0.0,0.0,0.0,0.0,0.0,0.0,0.0,0.0,0.0,0.0,0.0,0.0,0.0,0.0,0.0,0.0,0.0,0.0,0.0,0.0,0.0,0.0,0.0,0.0,0.0,0.0,0.0,0.0,0.0,0.0,0.0,0.0,0.0,0.0,0.0,0.0,0.0,0.0,0.0,0.0,0.0,0.0,0.0,0.0,0.0,0.0,0.0,0.0,0.0,0.0,0.0,0.0,0.0,0.0,0.0,0.0,0.0,0.0,0.0,0.0,0.0,0.0,0.0,0.0,0.0,0.0,0.0,0.0,0.0,0.0,0.0,0.0,0.0,0.0,0.0,0.0,0.0,0.0,0.0,0.0,0.0,0.0,0.0,0.0,0.0,0.0,0.0,0.0,0.0,0.0,0.0,0.0,0.0,0.0,0.0,0.0,0.0,0.0,0.0,0.0,0.0,0.0,0.0,0.0,0.0,0.0,0.0,0.0,0.0,0.0,0.0,0.0,0.0,0.0,0.0,0.0,0.0,0.0,0.0,0.0,0.0,0.0,0.0,0.0,0.0,0.0,0.0,0.0,0.0,0.0,0.0,0.0,0.0,0.0,0.0,0.0,0.0,0.0,0.0,0.0,0.0,0.0,0.0,0.0,0.0,0.0,0.0,0.0,0.0,0.0,0.0,0.0,0.0,0.0,0.0,0.0,0.0,0.0,0.0,0.0,0.0,0.0,0.0,0.0,0.0,0.0,0.0,0.0,0.0,0.0,0.0,0.0,0.0,0.0,0.0,0.0,0.0,0.0,0.0,0.0,0.0,0.0,0.0,0.0,0.0,0.0,0.0,0.0,0.0,0.0,0.0,0.0,0.0,0.0,0.0,0.0,0.0,0.0,0.0,0.0,0.0,0.0,0.0,0.0,0.0,0.0,0.0,0.0,0.0,0.0,0.0,0.0,0.0,0.0,0.0,0.0,0.0,0.0,0.0,0.0,0.0,0.0,0.0,0.0,0.0,0.0,0.0,0.0,0.0,0.0,0.0,0.0,0.0,0.0,0.0,0.0,0.0,0.0,0.0,0.0,0.0,0.0,0.0,0.0,0.0,0.0,0.0,0.0,0.0,0.0,0.0,0.0,0.0,0.0,0.0,0.0,0.0,0.0,0.0,0.0,0.0,0.0,0.0,0.0,0.0,0.0,0.0,0.0,0.0,0.0,0.0,0.0,0.0,0.0,0.0,0.0,0.0,0.0,0.0,0.0,0.0,0.0,0.0,0.0,0.0,0.0,0.0,0.0,0.0,0.0,0.0,0.0,0.0,0.0,0.0,0.0,0.0,0.0,0.0,0.0,0.0,0.0,0.0,0.0,0.0,0.0,0.0,0.0,0.0,0.0,0.0,0.0,0.0,0.0,0.0,0.0,0.0,0.0,0.0,0.0,0.0,0.0,0.0,0.0,0.0,0.0,0.0,0.0,0.0,0.0,0.0,0.0,0.0,0.0,0.0,0.0,0.0,0.0,0.0,0.0,0.0,0.0,0.0,0.0,0.0,0.0,0.0,0.0,0.0,0.0,0.0,0.0,0.0,0.0,0.0,0.0,0.0,0.0,0.0,0.0,0.0,0.0,0.0,0.0,0.0,0.0,0.0,0.0,0.0,0.0,0.0,0.0,0.0,0.0,0.0,0.0,0.0,0.0,0.0,0.0,0.0,0.0,0.0,0.0,0.0,0.0,0.0,0.0,0.0,0.0,0.0,0.0,0.0,0.0,0.0,0.0,0.0,0.0,0.0,0.0,0.0,0.0,0.0,0.0,0.0,0.0,0.0,0.0,0.0,0.0,0.0,0.0,0.0,0.0,0.0,0.0,0.0,0.0,0.0,0.0,0.0,0.0,0.0,0.0,0.0,0.0,0.0,0.0,0.0,0.0,0.0,0.0,0.0,0.0,0.0,0.0,0.0,0.0,0.0,0.0,0.0,0.0,0.0,0.0,0.0,0.0,0.0,0.0,0.0,0.0,0.0,0.0,0.0,0.0,0.0,0.0,0.0,0.0,0.0,0.0,0.0,0.0,0.0,0.0,0.0,0.0,0.0,0.0,0.0,0.0,0.0,0.0,0.0,0.0,0.0,0.0,0.0,0.0,0.0,0.0,0.0,0.0,0.0,0.0,0.0,0.0,0.0,0.0,0.0,0.0,0.0,0.0,0.0,0.0,0.0,0.0,0.0,0.0,0.0,0.0,0.0,0.0,0.0,0.0,0.0,0.0,0.0,0.0,0.0,0.0,0.0,0.0,0.0,0.0,0.0,0.0,0.0,0.0,0.0,0.0,0.0,0.0,0.0,0.0,0.0,0.0,0.0,0.0,0.0,0.0,0.0,0.0,0.0,0.0,0.0,0.0,0.0,0.0,0.0,0.0,0.0,0.0,0.0,0.0,0.0,0.0,0.0,0.0,0.0,0.0,0.0,0.0,0.0,0.0,0.0,0.0,0.0,0.0,0.0,0.0,0.0,0.0,0.0,0.0,0.0,0.0,0.0,0.0,0.0,0.0,0.0,0.0,0.0,0.0,0.0,0.0,0.0,0.0,0.0,0.0,0.0,0.0,0.0,0.0,0.0,0.0,0.0,0.0,0.0,0.0,0.0,0.0,0.0,0.0,0.0,0.0,0.0,0.0,0.0,0.0,0.0,0.0,0.0,0.0,0.0,0.0,0.0,0.0,0.0,0.0,0.0,0.0,0.0,0.0,0.0,0.0,0.0,0.0,0.0,0.0,0.0,0.0,0.0,0.0,-2.8536,0.0,0.0,0.0,0.0,0.0,0.0,0.0,0.0,0.0,0.0,0.0,0.0,0.0,0.0,0.0,0.0,0.0,0.0,0.0,0.0,0.0,0.0,0.0,0.0,-2.3294,-2.3271,-2.341,-2.3248,0.0,0.0,0.0,0.0,0.0,0.0,0.0,0.0,0.0,-2.2586,-2.3069,-2.399,-2.4884,-2.5716,-2.5339,-2.4434,-2.3056,0.0,0.0,0.0,0.0,0.0,0.0,0.0,0.0,0.0,0.0,0.0,0.0,0.0,0.0,0.0,0.0,0.0,0.0,0.0,0.0,0.0,0.0,0.0,0.0,0.0,0.0,0.0,0.0,0.0,0.0,0.0,0.0,0.0,0.0,0.0,0.0,0.0,0.0,0.0,0.0,0.0,0.0,0.0,0.0,0.0,0.0,0.0,0.0,0.0,0.0,0.0,0.0,0.0,0.0,0.0,0.0,0.0,0.0,0.0,0.0,0.0,0.0,0.0,0.0,0.0,0.0,0.0,0.0,0.0,0.0,0.0,-2.8356,0.0,0.0,0.0,0.0,0.0,0.0,0.0,0.0,0.0,0.0,0.0,0.0,0.0,0.0,0.0,0.0,0.0,0.0,0.0,0.0,0.0,-2.3602,-2.3364,-2.314,-2.3102,-2.3248,-2.3042,-2.2977,-2.3153,-2.3056,0.0,0.0,0.0,0.0,0.0,-2.2832,-2.2955,-2.3284,-2.5305,-2.7029,-2.841,-2.8213,-2.6443,-2.3414,-2.3989,0.0,0.0,0.0,0.0,0.0,0.0,0.0,0.0,0.0,0.0,0.0,0.0,0.0,0.0,0.0,0.0,0.0,0.0,0.0,0.0,0.0,0.0,0.0,0.0,0.0,0.0,0.0,0.0,0.0,0.0,0.0,0.0,0.0,0.0,0.0,0.0,0.0,0.0,0.0,0.0,0.0,0.0,0.0,0.0,0.0,0.0,0.0,0.0,0.0,0.0,0.0,0.0,0.0,0.0,0.0,0.0,0.0,0.0,0.0,0.0,0.0,0.0,0.0,0.0,0.0,-3.1529,-3.3122,-3.3087,-3.1691,-3.1728,-3.0986,-2.9784,0.0,0.0,0.0,0.0,0.0,0.0,0.0,0.0,0.0,0.0,0.0,0.0,0.0,0.0,0.0,0.0,0.0,0.0,0.0,0.0,-2.3175,-2.3151,-2.285,-2.2703,-2.2694,-2.2596,-2.2487,-2.2542,-2.246,0.0,0.0,0.0,0.0,0.0,-2.246,-2.3265,-2.532,-2.6512,-2.6924,-2.6567,-2.6523,-2.6212,-2.5853,-2.7325,-2.7129,-2.5651,0.0,0.0,0.0,0.0,0.0,0.0,0.0,0.0,0.0,0.0,0.0,0.0,0.0,0.0,0.0,0.0,0.0,0.0,0.0,0.0,0.0,0.0,0.0,0.0,0.0,0.0,0.0,0.0,0.0,0.0,0.0,0.0,0.0,0.0,0.0,0.0,0.0,0.0,0.0,0.0,0.0,-2.8299,-2.7779,0.0,0.0,0.0,0.0,0.0,0.0,0.0,0.0,0.0,0.0,0.0,0.0,0.0,0.0,-3.2884,-3.2374,-3.2494,-3.3246,-3.3214,-3.3568,-3.4231,-3.5207,-3.5528,-3.53,-3.5291,0.0,-3.0596,-2.9908,0.0,0.0,0.0,0.0,0.0,0.0,0.0,0.0,0.0,0.0,0.0,0.0,0.0,0.0,0.0,0.0,0.0,0.0,0.0,0.0,0.0,-2.4085,-2.4683,-2.4511,-2.5617,-2.5791,-2.4466,-2.4275,0.0,0.0,0.0,-2.2355,-2.2405,-2.3422,-2.5246,-2.7871,-2.8327,-2.8732,-2.9058,-2.9377,-2.9561,-2.9581,-2.9768,-2.8759,-2.6916,-2.5849,0.0,0.0,0.0,0.0,0.0,0.0,0.0,0.0,0.0,0.0,0.0,0.0,0.0,0.0,0.0,0.0,0.0,0.0,0.0,0.0,0.0,0.0,0.0,0.0,0.0,0.0,0.0,0.0,0.0,0.0,0.0,0.0,0.0,0.0,0.0,0.0,0.0,0.0,0.0,-2.6916,-2.8267,-2.6945,-2.7644,-2.7523,0.0,0.0,0.0,0.0,0.0,0.0,0.0,0.0,0.0,-3.1515,-3.3704,-3.4859,-3.4842,-3.5467,-3.6169,-3.6986,-3.7024,-3.6985,-3.6911,-3.7808,-3.7925,-3.7456,-3.7458,-3.6593,-3.5093,-3.374,-3.2922,-3.2489,0.0,0.0,0.0,0.0,0.0,0.0,0.0,0.0,0.0,0.0,0.0,0.0,0.0,0.0,0.0,0.0,0.0,0.0,-2.3877,-2.5796,-2.7034,-2.6845,-2.839,-2.839,-2.6034,-2.5834,-2.4751,0.0,0.0,-2.2209,-2.2065,-2.4447,-2.6951,-2.9548,-2.9763,-3.0365,-3.1218,-3.1407,-3.1501,-3.1501,-3.0795,-2.9695,-2.8304,-2.6613,-2.6175,-2.6347,0.0,0.0,0.0,0.0,0.0,0.0,0.0,0.0,0.0,0.0,0.0,0.0,0.0,0.0,0.0,0.0,0.0,0.0,0.0,0.0,0.0,0.0,0.0,0.0,0.0,0.0,0.0,0.0,0.0,0.0,0.0,0.0,0.0,0.0,0.0,0.0,0.0,-2.7777,-2.8828,-2.6871,-2.8158,-2.8618,0.0,0.0,0.0,0.0,0.0,0.0,-3.1122,-3.2775,-3.3643,-3.3456,-3.5759,-3.7102,-3.7301,-3.8391,-3.9214,-3.9804,-3.9648,-3.9218,-3.8633,-3.9257,-3.9217,-3.8592,-3.8593,-3.8588,-3.8495,-3.6946,-3.5932,-3.5423,-3.5815,-3.6007,0.0,-3.6014,-3.6014,-3.6013,0.0,0.0,0.0,0.0,0.0,0.0,0.0,0.0,0.0,0.0,0.0,-2.6451,-2.6167,-2.7872,-2.904,-2.904,-2.9178,-2.8323,-2.597,-2.5802,-2.4751,-2.2395,-2.2327,-2.2089,-2.1642,-2.5022,-2.7612,-2.9301,-3.0529,-3.1102,-3.1008,-3.0154,-2.9713,-2.9713,-2.978,-3.0,-3.0177,-2.8748,-2.8188,-2.8077,-2.574,0.0,0.0,0.0,0.0,0.0,0.0,0.0,0.0,0.0,0.0,0.0,0.0,0.0,0.0,0.0,0.0,0.0,0.0,0.0,0.0,0.0,0.0,0.0,0.0,0.0,0.0,0.0,0.0,0.0,0.0,0.0,0.0,0.0,0.0,0.0,0.0,0.0,0.0,-2.9541,-3.0802,0.0,0.0,0.0,0.0,-3.1789,-3.1945,-3.2023,-3.2019,-3.3688,-3.5388,-3.6988,-3.8789,-4.0078,-4.0859,-4.0186,-3.9869,-3.988,-3.9062,-3.8632,-3.8589,-3.8659,-3.8625,-3.8594,-3.8583,-3.8609,-3.8534,-3.7611,-3.7226,-3.7109,-3.6316,-3.5994,-3.5994,-3.5994,-3.5994,-3.5994,0.0,0.0,0.0,-2.2968,-2.3116,-2.333,-2.3816,-2.3774,-2.371,-2.3753,-2.4971,-2.5975,-2.6254,-2.9038,-3.0982,-3.1283,-3.2381,-3.2001,-2.9503,-2.7855,-2.6118,-2.42,-2.2867,-2.3254,-2.5584,-2.7041,-2.8565,-3.0048,-3.0338,-3.0151,-2.9492,-2.9566,-2.9617,-2.9588,-2.9105,-2.9609,-3.0721,-2.9327,-2.8965,-2.9118,-2.7611,-2.6112,0.0,0.0,0.0,0.0,0.0,0.0,0.0,0.0,0.0,0.0,0.0,0.0,0.0,0.0,0.0,0.0,0.0,0.0,0.0,0.0,0.0,0.0,0.0,0.0,0.0,0.0,0.0,0.0,0.0,0.0,0.0,0.0,0.0,0.0,0.0,0.0,0.0,-3.0484,-3.279,0.0,0.0,-3.1796,-3.2352,-3.2137,-3.4198,-3.5469,-3.5468,-3.7578,-3.8867,-3.8978,-3.9561,-4.0029,-4.0303,-4.0029,-4.0148,-4.0698,-4.093,-4.105,-4.1054,-4.164,-4.1875,-4.1865,-4.1871,-4.1874,-4.1852,-4.1548,-4.0462,-3.8984,-3.9218,-3.96,-4.0132,-4.0132,-4.0486,-4.0955,0.0,0.0,0.0,-2.2799,-2.2892,-2.314,-2.3631,-2.35,-2.3672,-2.4587,-2.593,-2.7195,-2.8184,-3.1278,-3.3355,-3.359,-3.4621,-3.3941,-3.0974,-2.905,-2.6929,-2.4537,-2.3364,-2.4453,-2.8093,-2.8192,-2.9085,-3.0863,-3.0451,-3.0021,-2.9588,-2.9876,-2.9862,-2.9644,-2.9261,-2.961,-3.0303,-2.9848,-3.0081,-3.0642,-2.9436,-2.7564,-2.5445,0.0,0.0,0.0,0.0,0.0,0.0,0.0,0.0,0.0,0.0,0.0,0.0,0.0,0.0,0.0,0.0,0.0,0.0,0.0,0.0,0.0,0.0,0.0,0.0,0.0,0.0,0.0,0.0,0.0,0.0,0.0,0.0,0.0,0.0,0.0,-3.2969,-3.1834,-3.4216,-3.5151,-3.3192,-3.4053,-3.4703,-3.473,-3.6869,-3.8039,-3.7747,-3.9328,-4.0151,-3.991,-3.9903,-4.0171,-4.0756,-4.0728,-4.1162,-4.198,-4.2566,-4.2841,-4.2846,-4.3436,-4.3707,-4.3696,-4.3698,-4.371,-4.3698,-4.3698,-4.2728,-4.125,-4.1758,-4.2342,-4.2841,-4.2834,-4.3186,-4.3771,0.0,0.0,-2.2377,-2.2642,-2.2712,-2.2898,-2.35,-2.3387,-2.4014,-2.6364,-2.8359,-3.0211,-3.1996,-3.4559,-3.6053,-3.5834,-3.5543,-3.3782,-3.0079,-2.9149,-2.7073,-2.3327,-2.3902,-2.5652,-2.8634,-2.8373,-2.9285,-3.1526,-3.0916,-3.0955,-3.1509,-3.1019,-3.0479,-2.9893,-3.0322,-3.0051,-2.924,-3.0539,-3.1679,-3.2632,-3.1082,-2.9576,-2.8119,0.0,0.0,0.0,0.0,0.0,0.0,0.0,0.0,0.0,0.0,0.0,0.0,0.0,0.0,0.0,0.0,0.0,0.0,0.0,0.0,0.0,0.0,0.0,0.0,0.0,0.0,0.0,0.0,0.0,0.0,0.0,0.0,0.0,-2.9801,-3.3398,-3.5386,-3.375,-3.5077,-3.6444,-3.7258,-3.7383,-3.8083,-3.9726,-3.9883,-3.9529,-3.8687,-3.8684,-3.9117,-3.9937,-4.0015,-4.0795,-4.2435,-4.2435,-4.2864,-4.3687,-4.3743,-4.3745,-4.3739,-4.3782,-4.3785,-4.3786,-4.3789,-4.3789,-4.3787,-4.3787,-4.3789,-4.3789,-4.3711,-4.3711,-4.375,-4.3745,-4.3779,-4.4052,-2.2192,-2.2321,-2.2426,-2.2652,-2.2634,-2.2738,-2.3318,-2.2982,-2.3488,-2.5605,-2.7261,-2.9237,-3.184,-3.3885,-3.5065,-3.5191,-3.4783,-3.3371,-3.0688,-2.8669,-2.6576,-2.4365,-2.6901,-2.8551,-2.8966,-3.0485,-3.1416,-3.1711,-3.1628,-3.169,-3.1838,-3.15,-3.1284,-3.119,-3.1452,-3.1176,-3.058,-3.1601,-3.1781,-3.139,-3.2058,-3.1275,-2.9778,0.0,0.0,0.0,0.0,0.0,0.0,0.0,0.0,0.0,0.0,0.0,0.0,0.0,0.0,0.0,0.0,0.0,0.0,0.0,0.0,0.0,0.0,0.0,0.0,0.0,0.0,0.0,0.0,0.0,0.0,0.0,0.0,-3.4949,-3.4328,-3.5271,-3.6287,-3.7099,-3.8119,-3.863,-3.828,-3.8826,-3.9135,-3.8971,-3.9557,-3.9789,-3.9546,-4.0678,-4.1459,-4.1696,-4.2318,-4.2868,-4.3344,-4.3347,-4.3466,-4.3704,-4.4334,-4.4648,-4.4643,-4.5307,-4.5583,-4.5575,-4.5573,-4.5581,-4.5586,-4.5583,-4.5582,-4.5465,-4.4177,-4.4101,-4.4648,-4.4645,-4.5429,-4.67,-2.2158,-2.2321,-2.2405,-2.25,-2.2453,-2.2561,-2.2972,-2.2686,-2.3527,-2.6521,-2.7794,-2.9642,-3.2947,-3.451,-3.5249,-3.5018,-3.4032,-3.2514,-3.0353,-2.8165,-2.6995,-2.713,-2.9237,-3.0514,-3.0719,-3.2335,-3.3006,-3.2528,-3.2687,-3.2565,-3.2198,-3.217,-3.2103,-3.2037,-3.2368,-3.209,-3.1489,-3.186,-3.1931,-3.1839,-3.2388,-3.1623,-3.0165,-3.0771,-2.9971,-2.8669,-2.9386,-2.9628,-2.9519,-2.932,0.0,0.0,0.0,0.0,0.0,0.0,0.0,0.0,0.0,0.0,0.0,0.0,0.0,0.0,0.0,0.0,0.0,0.0,0.0,0.0,0.0,0.0,0.0,0.0,-3.5188,-3.7482,-3.806,-3.8153,-3.8392,-3.9049,-3.9561,-3.9641,-3.9133,-3.9248,-3.9285,-3.9125,-3.9588,-3.99,-3.9908,-4.1509,-4.2402,-4.2396,-4.3255,-4.3883,-4.424,-4.4243,-4.444,-4.4794,-4.5305,-4.5546,-4.5545,-4.6088,-4.6286,0.0,-4.6315,-4.6518,-4.6836,-4.6835,-4.7065,0.0,0.0,0.0,0.0,0.0,-4.6406,-4.7679,-2.2029,-2.226,-2.2327,-2.2327,-2.2327,-2.2371,-2.2652,-2.248,-2.3883,-2.8212,-2.9034,-3.0692,-3.4631,-3.5688,-3.5776,-3.5018,-3.3321,-3.1453,-2.9526,-2.7946,-2.815,-3.0522,-3.1042,-3.1898,-3.3111,-3.3976,-3.4233,-3.3806,-3.4097,-3.3732,-3.2913,-3.3207,-3.3082,-3.2772,-3.3121,-3.2881,-3.2184,-3.1864,-3.2226,-3.2962,-3.2497,-3.1389,-3.019,-3.0861,-3.0326,-2.9331,-2.9966,-3.0485,-3.0898,-3.1225,0.0,0.0,0.0,0.0,0.0,0.0,0.0,0.0,0.0,0.0,0.0,0.0,0.0,0.0,0.0,0.0,0.0,0.0,0.0,0.0,0.0,0.0,0.0,0.0,-3.6704,-3.8771,-4.0937,-4.1257,-4.0957,-4.0111,-3.9947,-3.9942,-4.0068,-3.9357,-3.9239,-4.0031,-4.0064,-4.0025,-4.0034,0.0,0.0,0.0,0.0,-4.4231,-4.4972,-4.509,-4.5519,-4.63,-4.6303,-4.6351,-4.644,-4.644,-4.6482,-4.6601,-4.6599,-4.7029,-4.7734,-4.7734,-4.8197,-4.8727,-4.7186,-4.66,-4.6596,-4.668,-4.7225,0.0,-2.1299,-2.1887,-2.2327,-2.2327,-2.2327,-2.2321,-2.2426,-2.2377,-2.3793,-2.8025,-2.8632,-3.0381,-3.4846,-3.5098,-3.4878,-3.4688,-3.2804,-3.0958,-2.949,-2.9448,-3.0112,-3.1441,-3.2611,-3.3427,-3.3947,-3.5198,-3.5889,-3.5889,-3.5987,-3.6043,-3.6014,-3.4934,-3.4634,-3.4813,-3.4157,-3.3677,-3.3202,-3.3151,-3.2834,-3.2407,-3.3012,-3.3091,-3.2934,-3.2985,-3.3079,-3.3266,-3.3717,-3.438,-3.487,-3.3697,-3.3538,-3.3379,-3.11,-2.9104,0.0,0.0,0.0,0.0,0.0,0.0,0.0,0.0,0.0,0.0,0.0,0.0,0.0,0.0,0.0,0.0,0.0,0.0,0.0,-3.6584,-3.9958,-4.2325,-4.2178,-4.2147,-4.1843,-4.0957,-4.026,-4.0379,-4.1777,-4.1111,-4.0957,-4.1829,-4.1247,-4.0855,-4.0882,-4.1826,0.0,-4.2382,-4.393,-4.4816,-4.5012,-4.5714,-4.6144,-4.63,0.0,0.0,-4.7344,-4.7344,-4.7732,-4.8382,-4.8418,-4.8496,-4.8652,-4.866,-4.8736,-4.8802,-4.8514,-4.8359,-4.8396,-4.9094,-4.9485,-4.9725,-2.0619,-2.1416,-2.2123,-2.2265,-2.2327,-2.2293,-2.2321,-2.2293,-2.3392,-2.6343,-2.6989,-2.8373,-3.1582,-3.1792,-3.1712,-3.1691,-3.0592,-2.9918,-2.9889,-3.0721,-3.1829,-3.3186,-3.417,-3.4842,-3.5037,-3.6216,-3.6901,-3.705,-3.7063,-3.6921,-3.6458,-3.5712,-3.5324,-3.5189,-3.4802,-3.438,-3.3906,-3.3616,-3.3499,-3.3391,-3.346,-3.3814,-3.43,-3.4101,-3.425,-3.4691,-3.5215,-3.5795,-3.6167,-3.5864,-3.5894,-3.5634,-3.3502,-3.201,-3.0709,0.0,0.0,0.0,0.0,0.0,0.0,0.0,0.0,0.0,0.0,0.0,0.0,0.0,0.0,-3.1753,0.0,0.0,-3.7482,-3.8411,-4.0703,-4.2221,-4.18,-4.2108,-4.2073,-4.1186,-4.0723,-4.0804,-4.1657,-4.0991,-4.0684,-4.1126,-4.0741,-4.0508,-4.0508,-4.1718,-4.2382,-4.2383,-4.3669,-4.4362,-4.4348,-4.5636,-4.63,-4.63,-4.7165,-4.7799,-4.8236,-4.8242,-4.8475,-4.8899,-4.8886,-4.9111,-4.954,-4.9977,-5.0139,-5.0105,-5.0155,-4.9609,-4.8864,-4.9291,-4.9445,-4.9528,-2.0213,-2.1002,-2.1827,-2.2152,-2.2237,-2.2327,-2.2327,-2.2327,-2.2988,-2.4846,-2.5511,-2.6521,-2.8434,-2.8669,-2.8577,-2.8248,-2.8575,-2.9243,-3.0351,-3.1824,-3.3391,-3.5061,-3.548,-3.5884,-3.6259,-3.6999,-3.7585,-3.7886,-3.7886,-3.7477,-3.6693,-3.6173,-3.5827,-3.5635,-3.5189,-3.4813,-3.4545,-3.3856,-3.3961,-3.4519,-3.3923,-3.4238,-3.4963,-3.4739,-3.4835,-3.5085,-3.5786,-3.5862,-3.5873,-3.7142,-3.7255,-3.6684,-3.5354,-3.4695,-3.3587,-2.9635,-2.9687,0.0,0.0,0.0,0.0,0.0,0.0,0.0,0.0,0.0,-3.2044,-3.3601,-3.472,-3.5664,-3.6365,-3.7995,-3.9462,-4.0188,-4.1172,-4.1843,-4.1843,-4.2303,-4.2385,-4.169,-4.1615,-4.1654,-4.1852,-4.0957,-4.0455,-4.062,-4.0351,-4.0155,-4.0142,-4.1444,-4.2187,-4.2187,-4.3164,-4.3707,-4.3687,-4.5441,-4.6374,-4.6569,-4.7939,-4.8759,-4.9114,-4.9136,-4.9219,-4.9375,-4.9404,-4.9742,-5.0399,-5.1102,-5.1385,-5.14,-5.1406,-5.0546,-4.9332,-4.9489,-4.9561,-4.96,-2.0219,-2.0821,-2.1462,-2.1797,-2.2123,-2.2327,-2.2327,-2.2327,-2.3076,-2.524,-2.5673,-2.6653,-2.8795,-2.8632,-2.7755,-2.6271,-2.859,-3.0228,-3.0412,-3.2877,-3.5002,-3.626,-3.5816,-3.619,-3.7624,-3.7511,-3.7893,-3.8928,-3.8928,-3.8868,-3.8707,-3.7227,-3.6892,-3.7517,-3.5409,-3.4806,-3.5252,-3.4296,-3.4147,-3.4576,-3.4446,-3.4753,-3.5245,-3.5337,-3.5441,-3.5554,-3.5882,-3.503,-3.4126,-3.6274,-3.5935,-3.4896,-3.6649,-3.5826,-3.3804,-3.1535,-2.9655,-2.7746,-2.5437,-2.6975,-2.9273,-2.9246,-3.0996,-3.281,0.0,0.0,-3.5388,-3.5633,-3.6983,-3.8085,-3.8202,-4.021,-4.193,-4.207,-4.3434,-4.4454,-4.4454,-4.3929,-4.3513,-4.3435,-4.34,-4.372,-4.4479,-4.3078,-4.2457,-4.3203,-4.1914,-4.1055,-4.1054,-4.1211,-4.1328,-4.1328,-4.2888,-4.3704,-4.3702,-4.5447,-4.669,-4.7471,-4.7627,-4.8525,-4.9973,-4.9951,-5.0389,-5.1133,-5.1133,-5.1166,-5.1258,-5.1375,-5.1414,-5.1382,-5.1404,-5.1288,-5.1209,-5.198,-5.2277,-5.2394,-2.0252,-2.0831,-2.1276,-2.1214,-2.1827,-2.2327,-2.2327,-2.2327,-2.2632,-2.3579,-2.371,-2.4113,-2.5028,-2.4946,-2.4454,-2.3538,-2.7038,0.0,-2.9797,-3.3253,-3.5554,-3.6321,-3.6163,-3.6429,-3.7171,-3.697,-3.7425,-3.8698,-3.8483,-3.8733,-3.9451,-3.8483,-3.7949,-3.7724,-3.6615,-3.5651,-3.4794,-3.4715,-3.4603,-3.4573,-3.4876,-3.5383,-3.6034,-3.6356,-3.6864,-3.7178,-3.5525,-3.5028,0.0,-3.5865,-3.561,-3.5375,-3.7112,-3.6107,-3.4032,-3.2464,-3.1444,-3.0947,-3.1493,-3.1468,-3.1594,-3.2876,-3.4347,-3.5605,-3.6187,-3.7625,-3.9184,-4.0266,-4.14,-4.2226,-4.2225,-4.2666,-4.3089,0.0,-4.3758,-4.4036,-4.3504,-4.4012,-4.4406,-4.4458,-4.4894,-4.4742,-4.3612,-4.2834,-4.2373,-4.2265,-4.1601,-4.1211,-4.1211,-4.1636,-4.2136,-4.2644,-4.3818,-4.4716,-4.5216,-4.6889,-4.7936,-4.8326,-4.9345,-5.0165,-5.0867,-5.0878,-5.1047,-5.1406,-5.1406,-5.1405,-5.1439,-5.1941,-5.2172,-5.2211,-5.2731,-5.2891,-5.2887,-5.2749,-5.2702,-5.2819,-2.0426,-2.0958,-2.137,-2.1119,-2.1738,-2.2265,-2.218,-2.2237,-2.2327,-2.2327,-2.2327,-2.2327,-2.2327,-2.2231,-2.2086,-2.1977,-2.5269,0.0,0.0,-3.2801,-3.5303,-3.6352,-3.6414,-3.6595,-3.6975,-3.6712,-3.7083,-3.8222,-3.8012,-3.8322,-3.9124,-3.8661,-3.8292,-3.7886,-3.7141,-3.6295,-3.5459,-3.5151,-3.498,-3.5037,-3.5393,-3.5909,-3.6552,-3.708,-3.7624,-3.7767,-3.5501,-3.5011,-3.5388,-3.5051,-3.4443,-3.4157,-3.5792,-3.5173,-3.3575,-3.2095,-3.16,-3.1996,-3.4249,-3.4086,-3.3847,-3.606,-3.7576,-3.8834,-3.9964,-4.1373,-4.2827,-4.4168,-4.5074,-4.5541,-4.531,-4.4727,-4.4319,-4.437,-4.4187,-4.388,-4.35,-4.4285,-4.5035,-4.5327,-4.5924,-4.546,-4.331,-4.2912,-4.2407,-4.1599,-4.1328,-4.1289,-4.1521,-4.2092,-4.2779,-4.3677,-4.4549,-4.5411,-4.6296,-4.774,-4.8716,-4.9185,-5.0438,-5.118,-5.1414,-5.1414,-5.1394,-5.1406,-5.1639,-5.1755,-5.1833,-5.2693,-5.3044,-5.3119,-5.3749,-5.3982,-5.3932,-5.3565,-5.3235,-5.3147,-2.0794,-2.1308,-2.1797,-2.1768,-2.2065,-2.218,-2.1857,-2.2094,-2.2327,-2.2327,-2.2327,-2.2327,-2.2327,-2.2007,-2.1944,-2.228,0.0,0.0,0.0,-3.1336,-3.3877,-3.6814,-3.6476,-3.6658,-3.7652,-3.7201,-3.7207,-3.7737,-3.7842,-3.7873,-3.7767,-3.7104,-3.7436,-3.8484,-3.6291,-3.6352,-3.7928,-3.553,-3.5251,-3.6345,-3.6109,-3.6185,-3.6572,-3.7215,-3.7092,-3.6498,-3.6022,-3.486,-3.3595,-3.3559,-3.1653,-2.968,-3.2023,-3.2684,-3.2132,-3.0092,-2.8645,-2.8158,-2.9979,-3.2377,-3.4987,-3.7669,-4.0301,-4.2705,-4.4411,-4.5503,-4.6132,-4.6218,-4.6874,-4.7141,-4.6321,-4.6153,-4.6115,-4.6115,-4.5404,-4.5137,-4.599,-4.545,-4.5297,-4.6158,-4.6286,-4.5937,0.0,-4.4179,-4.3308,-4.2435,-4.1637,-4.1521,-4.2318,-4.2393,-4.2783,-4.3681,-4.4543,-4.5402,-4.6296,-4.7194,-4.8447,-5.0048,-5.0126,-5.0594,-5.1414,-5.1414,-5.1394,-5.1445,-5.2287,-5.2659,-5.2741,-5.3593,-5.3944,-5.3943,-5.3981,-5.4017,-5.4095,-5.4935,-5.4573,-5.3922,-2.0794,-2.115,-2.1401,-2.1183,-2.1617,-2.1915,-2.1827,-2.2094,-2.2209,-2.1974,-2.1974,0.0,0.0,0.0,0.0,0.0,0.0,0.0,0.0,-3.0878,-3.3784,-3.4822,-3.6603,-3.7539,-3.7524,-3.7157,-3.7281,-3.7961,-3.7802,-3.8275,-3.9439,-3.9062,-3.9027,-3.923,-3.8285,-3.7828,-3.7544,-3.7101,-3.6894,-3.6868,-3.7053,-3.7449,-3.7718,-3.6127,-3.5854,-3.589,0.0,-3.1758,-3.2084,-3.1617,-3.0509,-2.9749,-3.1898,-3.1612,-3.023,-2.925,-2.9867,-3.1455,-3.3891,-3.6091,-3.8364,-4.1091,-4.2515,-4.3712,-4.5425,-4.6483,-4.7151,-4.7099,-4.6903,-4.6406,-4.5506,-4.4867,-4.4655,-4.5221,-4.5591,-4.5878,-4.6209,-4.5972,-4.5922,-4.6247,-4.6289,0.0,0.0,0.0,0.0,-4.2457,-4.214,-4.2092,-4.2393,-4.3486,-4.4501,-4.5398,-4.6261,-4.712,-4.7939,-4.8287,-4.899,-5.0126,-5.0672,-5.1109,-5.1394,-5.1364,-5.1317,-5.1371,-5.2264,-5.2632,-5.2741,-5.4257,-5.4879,-5.4909,-5.5485,-5.572,-5.5759,-5.6064,-5.5436,-5.4719,0.0,-2.1432,-2.1584,-2.1371,-2.1708,0.0,0.0,0.0,0.0,0.0,0.0,0.0,0.0,0.0,0.0,0.0,0.0,0.0,0.0,0.0,-3.1308,-3.2643,-3.4497,-3.5487,-3.545,-3.5197,-3.5275,-3.5805,-3.6443,-3.7335,-3.8423,-3.9108,-3.9469,-3.9476,-3.907,-3.8657,-3.8302,-3.8033,-3.7937,-3.7769,-3.6969,-3.6895,-3.703,-3.4517,-3.3579,0.0,-3.026,-2.933,-2.9418,-2.9282,-2.8858,-2.8628,-3.0278,-3.0056,-2.9361,-3.0284,-3.1553,-3.3433,-3.706,-3.8771,-4.0199,-4.3171,-4.4298,-4.5078,-4.6752,-4.7854,-4.8404,-4.804,-4.7093,-4.5935,-4.4718,-4.351,-4.2975,-4.3818,-4.4445,-4.5072,-4.5685,-4.5753,-4.5774,-4.5818,-4.585,-4.5489,0.0,0.0,0.0,-4.2929,-4.2563,-4.2666,-4.329,-4.4383,-4.5402,-4.6261,-4.6846,-4.7514,-4.8379,-4.8415,-4.8844,-4.9667,-5.0512,-5.0754,-5.0496,-5.1062,-5.1326,-5.1413,-5.2578,-5.3295,-5.3678,-5.5145,-5.5742,-5.5837,-5.6383,-5.6614,-5.6563,-5.6196,-5.5576,-5.5158,0.0,0.0,-2.2265,0.0,0.0,0.0,0.0,0.0,0.0,0.0,0.0,0.0,0.0,0.0,0.0,0.0,0.0,0.0,0.0,0.0,0.0,-3.0364,-3.0518,-3.0937,-3.1866,-3.1787,-3.1692,-3.1662,-3.3973,-3.5049,-3.4943,-3.7134,-3.8351,-3.8778,-3.8081,-3.8455,-3.9596,-3.8029,-3.7956,-3.8554,-3.5674,-3.4651,-3.4616,-3.2426,-3.0485,-2.8953,-2.9016,-2.7579,-2.5813,-2.6785,-2.6881,-2.6732,-2.7747,-2.8578,-2.9801,-3.307,-3.3608,-3.4174,-3.9167,-4.02,-4.071,-4.4003,-4.5657,-4.6843,-4.8474,-4.9493,-4.9813,-4.8876,-4.7332,-4.5622,0.0,0.0,-4.1272,-4.207,-4.2399,-4.31,-4.4675,-4.4984,-4.5039,0.0,0.0,0.0,0.0,0.0,0.0,-4.3746,0.0,-4.3251,-4.4894,-4.5051,-4.5441,-4.6261,-4.63,-4.67,-4.7532,-4.7571,-4.7963,-4.8746,-4.9614,-4.9606,-4.8841,-5.0507,-5.1307,-5.1472,-5.3203,-5.4467,-5.5365,-5.6259,-5.6595,-5.6597,-5.6593,-5.6579,-5.6475,-5.5521,-5.51,-5.5208,0.0,0.0,0.0,0.0,0.0,0.0,0.0,0.0,0.0,0.0,0.0,0.0,0.0,0.0,0.0,0.0,0.0,0.0,0.0,0.0,0.0,0.0,0.0,0.0,-3.1812,-3.1898,-3.2174,-3.274,-3.2827,-3.3119,-3.3488,-3.3271,-3.3262,-3.3381,-3.3393,-3.3468,-3.359,-3.3385,-3.347,-3.3613,-3.2711,-3.2521,-3.2399,-2.9881,-2.8641,-2.8094,-2.6344,-2.5392,-2.5083,-2.6004,-2.8051,-3.0701,-3.3325,-3.4833,-3.5681,-3.5875,-3.7194,-3.8863,-4.0216,-4.2466,-4.4798,-4.6349,-4.7423,-4.8439,-4.9536,-4.9926,-4.9501,-4.7354,-4.5565,-4.3612,-4.1257,0.0,0.0,-4.2108,-4.3476,0.0,-4.5765,-4.593,0.0,-4.5086,0.0,-4.4653,-4.3786,-4.3708,0.0,0.0,-4.4444,-4.4543,-4.4972,-4.5636,-4.6066,-4.63,-4.63,-4.642,-4.6619,-4.7265,-4.7691,-4.792,-4.874,-4.904,-4.8821,-4.9166,-5.0002,-5.132,-5.24,-5.3791,-5.5313,-5.621,-5.6522,-5.6458,-5.6419,-5.6316,-5.6191,-5.5989,-5.5447,-5.4924,0.0,0.0,0.0,0.0,0.0,0.0,0.0,0.0,0.0,0.0,0.0,0.0,0.0,0.0,0.0,0.0,0.0,0.0,0.0,0.0,0.0,0.0,0.0,0.0,-2.8605,-2.8789,-2.9197,-2.9833,-3.0292,-3.0825,-3.1495,-3.1591,-3.1691,-3.1731,-3.1842,-3.1877,-3.1731,-3.1806,-3.1914,0.0,0.0,-3.0097,-3.0031,-2.7358,-2.6356,-2.6241,-2.4968,-2.5346,-2.6828,-2.9178,-3.1475,-3.3699,-3.5867,-3.7179,-3.8084,-3.8639,-3.9653,-4.0924,-4.2419,-4.4167,-4.5835,-4.7058,-4.8086,-4.8751,-4.8486,-4.872,-4.8174,-4.5207,-4.3212,-4.141,-3.9559,-3.9242,-3.9683,0.0,0.0,0.0,-4.496,-4.5117,-4.4802,0.0,-4.3837,0.0,-4.2641,-4.2868,-4.3276,0.0,-4.4529,-4.5188,-4.5538,-4.6044,-4.6315,-4.6312,-4.6303,-4.6315,-4.6289,-4.6783,-4.7009,-4.6988,-4.7796,-4.8001,-4.7654,-4.866,-4.9692,-5.0724,0.0,-5.3912,-5.526,-5.6167,-5.6464,-5.6393,-5.626,-5.6181,-5.6058,-5.567,-5.5171,-5.4723,0.0,0.0,0.0,0.0,0.0,0.0,0.0,0.0,0.0,0.0,-2.2327,0.0,0.0,0.0,0.0,0.0,0.0,0.0,0.0,0.0,0.0,0.0,0.0,0.0,-2.4414,-2.4658,-2.5094,-2.5692,-2.7178,-2.8271,-2.9027,-3.0279,-3.0904,-3.0935,-3.0968,-3.0968,-3.0935,-3.0868,-3.0966,-3.1016,-2.8436,-2.7574,-2.7562,0.0,-2.4357,-2.441,-2.4505,-2.6367,-2.9427,-3.3723,-3.5537,-3.6215,-3.7346,-3.8204,-3.9191,-4.117,-4.1475,-4.1776,-4.4639,-4.5287,-4.5546,-4.7104,-4.8137,-4.8408,-4.6846,-4.6963,-4.6417,-4.2783,-4.0867,-3.9451,-3.8346,-3.8252,-3.8606,-3.9413,0.0,-4.2376,-4.3203,-4.3357,-4.3083,-4.2383,-4.224,-4.1919,-4.1173,-4.1829,-4.2262,-4.2218,-4.3906,-4.5312,-4.6054,-4.6249,-4.6288,-4.6285,-4.6317,-4.6287,-4.63,-4.6309,-4.6261,-4.6208,-4.6904,-4.6846,-4.6185,-4.8448,-4.9642,-5.0052,0.0,0.0,-5.5416,-5.5996,-5.6336,-5.6503,-5.6208,-5.6071,-5.5952,-5.51,-5.4705,-5.4573,0.0,0.0,0.0,0.0,0.0,0.0,0.0,0.0,0.0,0.0,-2.2327,-2.2327,0.0,0.0,0.0,0.0,0.0,0.0,0.0,0.0,0.0,0.0,0.0,0.0,0.0,-2.4143,-2.4716,-2.5694,-2.5393,-2.544,-2.5793,-2.5191,-2.4878,-2.4917,-2.5147,-2.5124,-2.4917,-2.5112,-2.5334,-2.5463,-2.496,-2.4983,-2.5276,-2.48,0.0,0.0,-2.4898,-2.6696,-2.969,-3.4045,-3.6935,-3.9213,-4.2082,-4.3221,-4.333,-4.2382,-4.3054,-4.4072,-4.3981,-4.5475,-4.7273,-4.8274,-4.8673,-4.8564,-4.7588,-4.6924,-4.5324,-4.114,-4.0005,-3.9099,-3.6777,-3.698,-3.7783,-3.8589,-3.9568,-4.0798,-4.2295,-4.1963,-4.175,0.0,-4.1707,-4.1254,-4.11,-4.1785,0.0,0.0,0.0,0.0,-4.5035,-4.5859,-4.6317,-4.6286,-4.6287,-4.6282,-4.63,-4.6246,-4.6211,-4.6211,-4.6304,-4.6232,-4.6146,-4.7162,-4.8477,-4.9963,0.0,0.0,-5.6234,-5.554,-5.6044,-5.7125,-5.6249,-5.5861,-5.573,-5.5532,-5.5028,-5.4507,0.0,0.0,0.0,0.0,0.0,0.0,0.0,-2.2327,-2.2327,-2.2327,-2.2327,-2.2327,-2.2327,-2.2327,-2.2327,0.0,0.0,0.0,0.0,0.0,0.0,0.0,0.0,0.0,0.0,0.0,0.0,0.0,0.0,-2.4277,-2.4879,-2.3939,-2.3602,-2.3732,-2.3837,-2.3837,-2.3795,-2.3963,-2.4136,-2.4284,-2.4373,-2.451,-2.4707,0.0,0.0,0.0,-2.5069,-2.683,-2.9669,-3.259,-3.6226,-4.0087,-4.349,-4.4326,-4.3903,-4.3091,-4.3761,-4.4729,-4.4323,-4.5176,-4.6454,-4.7801,-4.781,-4.6917,-4.4731,-4.3876,-4.224,-3.7468,-3.6489,-3.6087,-3.4764,-3.6026,-3.7379,-3.775,-3.9334,-4.0582,-4.0911,-4.0621,-4.0522,-4.084,-4.0234,-3.9912,-4.0372,-4.0272,-4.0324,0.0,0.0,0.0,-4.4742,-4.5739,-4.63,-4.63,-4.5855,-4.5819,-4.6243,-4.5779,-4.5726,-4.614,-4.6086,-4.6013,-4.6056,-4.7275,-4.8308,-4.9209,0.0,0.0,-5.4359,-5.4696,-5.531,-5.5962,-5.5845,-5.5768,-5.5703,-5.5638,-5.5324,-5.501,0.0,0.0,0.0,0.0,0.0,0.0,0.0,-2.2327,-2.2327,-2.2327,-2.2327,-2.2293,-2.2377,-2.2321,-2.2327,0.0,0.0,0.0,0.0,0.0,0.0,0.0,0.0,0.0,0.0,0.0,0.0,0.0,-2.3697,0.0,0.0,0.0,0.0,0.0,-2.4114,-2.4153,-2.421,-2.432,-2.4405,0.0,0.0,-2.4753,0.0,0.0,0.0,0.0,0.0,-2.6551,-2.8762,-3.077,-3.424,-3.8285,-4.179,-4.2921,-4.2877,-4.2463,-4.3155,-4.4075,-4.4448,-4.4865,-4.5552,-4.7123,-4.6904,-4.5391,-4.1878,-4.0948,-3.9429,-3.4423,-3.3399,-3.3384,-3.3345,-3.4993,-3.6489,-3.685,-3.8515,-3.9653,-3.9468,-3.9334,-3.9259,-3.9335,-3.8854,0.0,-3.9453,-3.8762,0.0,0.0,0.0,0.0,0.0,-4.5733,-4.6175,-4.6011,-4.5349,-4.5195,-4.5625,-4.4945,-4.5031,-4.5839,-4.5733,-4.5774,-4.5944,-4.7456,-4.8227,-4.8546,0.0,0.0,0.0,-5.3894,-5.4628,-5.5017,-5.5499,-5.5703,-5.5682,-5.5615,-5.5485,-5.5437,0.0,0.0,0.0,0.0,0.0,0.0,0.0,-2.2327,-2.2327,-2.2327,-2.2327,-2.2377,-2.2649,-2.2432,-2.2327,0.0,0.0,0.0,0.0,0.0,0.0,0.0,0.0,0.0,0.0,0.0,0.0,0.0,0.0,0.0,0.0,0.0,0.0,0.0,0.0,-2.4547,-2.4547,-2.4564,0.0,0.0,0.0,0.0,0.0,0.0,0.0,0.0,0.0,-2.5476,-2.6253,-2.9516,-3.1014,-3.2133,-3.5619,-3.8805,-4.0916,-3.9413,-4.0126,-4.1774,-4.3387,-4.4904,-4.6304,-4.7255,-4.6917,-4.5402,-4.1888,-4.0483,-3.8684,-3.4296,-3.3395,-3.3388,-3.3395,-3.3589,-3.4257,-3.5783,-3.5606,-3.6055,-3.8209,-3.7882,-3.7722,-3.8424,-3.8498,-3.8514,-3.8593,-3.8419,0.0,0.0,0.0,0.0,0.0,-4.5682,-4.5863,-4.5034,-4.4956,-4.4569,-4.3863,-4.3759,-4.4124,-4.4938,-4.485,-4.5215,-4.5944,-4.6809,-4.7657,-4.8469,0.0,0.0,0.0,-5.3447,-5.4413,-5.5885,-5.575,-5.5682,-5.5577,-5.5499,-5.5402,-5.5326,0.0,0.0,0.0,0.0,0.0,0.0,-2.2327,-2.2432,-2.2542,-2.2542,-2.2668,-2.3024,-2.3606,-2.3154,-2.2799,-2.2799,0.0,0.0,0.0,0.0,0.0,0.0,0.0,0.0,0.0,0.0,-2.3667,-2.3774,-2.3899,0.0,0.0,0.0,0.0,0.0,0.0,-2.4476,-2.4547,-2.4607,0.0,0.0,0.0,0.0,0.0,0.0,0.0,0.0,0.0,0.0,-2.5786,-2.7649,-2.9735,-3.1584,-3.1877,-3.4379,-3.7468,-3.8857,-4.0161,-4.1576,-4.3812,-4.4543,-4.5106,-4.7016,-4.493,-4.2021,-4.0636,-3.845,-3.5798,-3.2517,-3.1853,-3.1848,-3.1854,-3.224,-3.3028,-3.4215,-3.4588,-3.5193,-3.6699,-3.7089,-3.7321,-3.7656,-3.7714,-3.7723,0.0,0.0,0.0,0.0,0.0,0.0,0.0,-4.351,-4.4492,-4.414,-4.3628,-4.3423,-4.3606,-4.359,-4.3746,-4.4097,-4.5551,-4.5863,-4.5231,-4.7068,-4.7801,-4.7695,0.0,0.0,0.0,-5.2211,-5.3297,-5.4473,-5.5343,-5.566,-5.5631,-5.6001,-5.5772,-5.5301,0.0,0.0,0.0,0.0,0.0,-2.2355,-2.2405,-2.2596,-2.2721,-2.2799,-2.2968,-2.3432,-2.4272,-2.3883,-2.366,-2.3981,-2.347,0.0,0.0,0.0,0.0,0.0,0.0,0.0,0.0,0.0,-2.4058,-2.4058,-2.4192,-2.4229,0.0,0.0,0.0,-2.4493,0.0,0.0,0.0,0.0,0.0,0.0,0.0,0.0,0.0,0.0,0.0,0.0,0.0,0.0,0.0,0.0,0.0,-3.0354,-2.9072,-3.0715,-3.3771,-3.695,-3.9044,-4.0853,-4.3166,-4.4056,-4.4804,-4.6655,-4.3815,-4.0349,-3.9588,-3.6774,-3.3576,-3.0962,-3.0417,-3.0454,-3.044,-3.1145,-3.2001,-3.2872,-3.376,-3.4601,-3.5428,-3.6718,-3.7497,-3.7216,0.0,-3.7723,0.0,0.0,0.0,0.0,0.0,0.0,0.0,-4.1629,-4.2802,-4.2789,-4.2463,-4.2598,-4.3195,-4.3226,-4.3575,-4.4335,-4.6102,-4.6523,-4.584,-4.7339,-4.7956,0.0,0.0,0.0,0.0,-5.1807,-5.2798,-5.3494,-5.534,-5.5868,-5.5646,-5.6359,-5.6026,-5.5248,0.0,0.0,0.0,0.0,0.0,0.0,-2.2676,-2.2729,-2.2799,-2.3042,-2.3091,-2.347,-2.4516,-2.4611,-2.5028,-2.609,-2.429,0.0,0.0,0.0,0.0,0.0,0.0,0.0,0.0,0.0,-2.4371,-2.4371,-2.4408,-2.4408,-2.4425,-2.4591,-2.4707,-2.4707,0.0,0.0,0.0,0.0,0.0,0.0,0.0,0.0,0.0,0.0,0.0,0.0,0.0,0.0,0.0,0.0,0.0,0.0,0.0,-2.8121,-3.0044,-3.2634,-3.5804,-3.8906,-4.0664,-4.3552,-4.608,-4.6208,-4.4219,-4.1601,-3.9096,-3.5886,-3.268,-3.0057,-2.9554,-2.9601,-2.9605,-3.0253,-3.1086,-3.1958,-3.2838,-3.3721,-3.4601,-3.6874,-3.8125,-3.7219,-3.8631,-3.8984,-3.7262,0.0,0.0,0.0,0.0,0.0,0.0,0.0,-4.0935,-4.0933,-4.1827,-4.227,-4.2226,-4.2268,-4.3536,-4.5986,-4.6003,-4.6848,-4.8333,-4.7478,0.0,0.0,0.0,0.0,0.0,-5.2622,-5.3281,-5.3532,-5.5951,-5.6299,-5.5576,-5.6333,-5.5973,-5.5102,0.0,0.0,0.0,0.0,0.0,0.0,0.0,-2.3151,-2.3295,-2.3365,-2.3955,-2.4739,-2.56,-2.5672,-2.6056,-2.6922,-2.5396,0.0,0.0,0.0,0.0,0.0,0.0,0.0,0.0,0.0,-2.4408,-2.4408,-2.4526,-2.4629,-2.4591,-2.4798,-2.4908,-2.4922,-2.5031,-2.5082,0.0,0.0,0.0,0.0,0.0,0.0,0.0,0.0,0.0,0.0,0.0,0.0,0.0,0.0,0.0,0.0,0.0,0.0,0.0,-2.9604,-3.2656,-3.6323,-3.8633,-3.9588,-4.0126,-4.0779,-3.8081,-3.5224,-3.5035,-3.2375,-2.968,-2.8857,-2.8704,-2.8903,-2.9491,-2.98,-3.0452,-3.1874,-3.2826,-3.3695,-3.4593,-3.6366,-3.7265,-3.6405,-3.6732,-3.6811,0.0,0.0,0.0,0.0,0.0,0.0,0.0,0.0,-4.0498,-4.1684,-4.2576,-4.3043,-4.3093,-4.4248,-4.4958,-4.5201,-4.7481,-4.8205,-4.7624,-4.8498,0.0,0.0,0.0,0.0,0.0,-5.2022,-5.3127,-5.4323,-5.6176,-5.6683,-5.6534,-5.7772,-5.7606,-5.6738,0.0,0.0,0.0,0.0,0.0,0.0,0.0,-2.3389,-2.3526,-2.358,-2.4432,-2.5316,-2.6113,-2.6568,-2.7123,-2.7924,-2.6871,0.0,0.0,0.0,0.0,0.0,0.0,0.0,0.0,-2.5527,-2.556,-2.556,-2.5718,-2.5626,-2.5309,-2.5462,-2.5374,-2.5069,-2.5118,-2.5141,0.0,0.0,0.0,0.0,0.0,0.0,-2.5395,0.0,0.0,0.0,0.0,0.0,0.0,0.0,0.0,0.0,0.0,0.0,0.0,0.0,-2.9828,-3.2748,-3.5302,-3.627,-3.6755,-3.7365,-3.4747,-3.2204,-3.2773,-3.0271,-2.781,-2.7804,-2.8082,-2.8475,-2.9022,-2.9644,-3.0495,-3.1889,-3.2834,-3.3701,-3.4523,-3.6133,-3.7104,-3.6823,0.0,0.0,0.0,0.0,0.0,0.0,0.0,0.0,0.0,0.0,-4.0781,-4.2497,-4.2776,-4.3236,-4.3945,-4.4971,-4.5708,-4.6197,-4.8244,-4.8977,-4.8604,0.0,0.0,0.0,0.0,0.0,0.0,-5.2099,-5.3301,-5.4688,-5.6614,-5.7287,-5.7429,-5.8612,-5.8406,-5.7506,0.0,0.0,0.0,0.0,0.0,0.0,0.0,-2.3481,-2.3594,-2.3774,-2.4505,-2.5339,-2.6136,-2.7163,-2.814,-2.8971,0.0,0.0,0.0,0.0,0.0,0.0,0.0,0.0,-2.7123,-2.7267,-2.7304,-2.7304,-2.738,-2.7001,-2.6225,-2.6335,-2.597,-2.5192,-2.5203,-2.5203,0.0,0.0,0.0,0.0,0.0,-2.6227,0.0,0.0,0.0,0.0,0.0,0.0,0.0,0.0,0.0,0.0,0.0,0.0,0.0,0.0,0.0,0.0,0.0,-3.3345,-3.5256,-3.5281,-3.3477,-3.1704,-3.1678,-2.918,0.0,-2.6978,-2.765,-2.824,-2.8353,-2.9669,-3.1028,-3.1938,-3.2836,-3.3664,-3.4492,-3.6048,-3.7324,-3.7904,-3.7351,0.0,0.0,0.0,0.0,0.0,0.0,0.0,0.0,0.0,0.0,-4.3169,-4.2521,-4.302,-4.4781,-4.4846,-4.6035,-4.8319,-4.8445,-4.9281,-5.0697,0.0,0.0,0.0,0.0,0.0,0.0,-5.2759,-5.3918,-5.4975,-5.7258,-5.8119,-5.8157,-5.888,-5.852,-5.7666,0.0,0.0,0.0,0.0,0.0,0.0,0.0,0.0,0.0,0.0,-2.4647,-2.5575,-2.6402,-2.7364,-2.8301,0.0,0.0,0.0,0.0,0.0,0.0,0.0,0.0,0.0,-2.645,-2.5873,-2.5598,-2.5598,-2.5653,-2.5577,-2.5387,-2.5455,-2.5384,-2.5192,-2.5264,-2.5321,0.0,0.0,0.0,0.0,-2.5716,-2.5712,0.0,0.0,0.0,0.0,-2.5629,-2.5659,0.0,0.0,0.0,0.0,0.0,0.0,0.0,0.0,-2.6057,-2.6325,-2.6926,0.0,-2.9852,-2.9242,-2.8626,-2.8017,0.0,-2.6562,-2.617,-2.6852,-2.7164,-2.7719,-2.9058,-2.9558,-3.0298,-3.1832,-3.2811,-3.3711,-3.4569,-3.5555,-3.5931,-3.5116,-3.5592,0.0,0.0,0.0,0.0,0.0,0.0,0.0,0.0,0.0,0.0,-4.228,-4.277,-4.3828,-4.5596,-4.6886,-4.7478,-4.7439,-4.8709,-4.918,-4.8916,0.0,0.0,0.0,0.0,0.0,0.0,-5.4073,-5.5395,-5.7373,-5.8502,-5.8857,-5.8835,-5.9616,-5.9526,-5.9194,0.0,0.0,0.0,0.0,0.0,0.0,0.0,0.0,0.0,0.0,0.0,0.0,0.0,0.0,0.0,0.0,0.0,0.0,0.0,0.0,0.0,0.0,0.0,0.0,-2.6811,-2.6764,-2.6754,-2.6768,-2.6899,-2.6742,-2.637,-2.6033,-2.5688,-2.5341,-2.5772,-2.5768,0.0,0.0,0.0,0.0,-2.597,0.0,0.0,0.0,0.0,0.0,-2.566,-2.5663,0.0,-2.5609,-2.5603,-2.5629,0.0,0.0,0.0,0.0,-2.5511,-2.5505,-2.554,-2.6277,-2.6969,-2.6529,-2.6415,-2.6266,-2.5819,-2.6016,-2.6444,-2.6888,-2.7635,-2.8463,-2.9406,-3.0185,-3.1125,-3.2461,-3.3436,-3.4448,-3.5689,-3.6567,-3.6489,-3.482,-3.565,0.0,0.0,0.0,0.0,0.0,0.0,0.0,0.0,0.0,0.0,0.0,-4.286,-4.3956,-4.5286,-4.6573,-4.7371,-4.7695,-4.8578,-4.8987,-4.8987,0.0,0.0,0.0,0.0,0.0,-5.4454,-5.4857,-5.6191,-5.8106,-5.8898,-5.9338,-5.9549,-5.9946,-6.0113,-6.0186,0.0,0.0,0.0,0.0,0.0,0.0,0.0,0.0,0.0,0.0,0.0,0.0,0.0,0.0,0.0,0.0,0.0,0.0,0.0,0.0,0.0,0.0,0.0,-2.7365,-2.7509,-2.8099,-2.8498,-2.8744,-2.8859,-2.8516,-2.7701,-2.6996,-2.6257,-2.553,-2.6218,-2.6141,0.0,0.0,0.0,-2.5684,-2.6417,0.0,0.0,0.0,0.0,0.0,0.0,0.0,0.0,-2.5601,-2.5577,-2.5576,-2.5502,0.0,0.0,0.0,0.0,0.0,-2.5466,-2.5678,-2.5863,-2.5715,-2.5681,-2.5691,-2.5703,-2.6367,-2.7031,-2.7169,-2.8467,-2.9645,-2.9877,-3.1088,-3.2421,-3.3432,-3.4156,-3.5069,-3.6362,-3.7167,-3.6974,-3.5145,0.0,0.0,0.0,0.0,0.0,0.0,0.0,0.0,0.0,0.0,0.0,0.0,-4.2589,-4.3518,-4.4407,-4.5462,-4.6738,-4.8183,-4.8269,-4.8694,-4.9482,-5.0301,0.0,0.0,0.0,0.0,-5.4622,-5.5439,-5.6712,-5.8209,-5.9037,-5.9712,-6.0197,-6.0228,-6.0467,-6.083,0.0,0.0,0.0,0.0,0.0,0.0,0.0,0.0,0.0,0.0,0.0,0.0,0.0,0.0,0.0,0.0,0.0,0.0,0.0,0.0,0.0,0.0,0.0,-2.6692,-2.7556,-2.6934,-2.7026,-2.7879,-2.8033,-2.7624,-2.6786,-2.6734,-2.6257,-2.553,-2.5646,-2.563,-2.5584,-2.5879,-2.5878,-2.5707,-2.5834,0.0,0.0,0.0,0.0,0.0,0.0,0.0,0.0,-2.5605,-2.5556,-2.5505,-2.5498,0.0,0.0,0.0,0.0,0.0,-2.5511,-2.6085,-2.6524,-2.5805,-2.5609,-2.5646,-2.5703,-2.6364,-2.722,-2.7967,-2.8865,-2.9961,-3.1431,-3.1911,-3.2615,-3.4168,-3.4357,-3.4107,0.0,0.0,-3.3465,0.0,0.0,0.0,0.0,0.0,0.0,0.0,0.0,0.0,0.0,0.0,0.0,0.0,0.0,-4.2628,-4.3479,-4.5761,-4.7023,-4.7303,-4.7983,-4.8337,-4.8463,-4.9307,-5.0044,0.0,0.0,0.0,-5.537,-5.6141,-5.7378,-5.8939,-5.9789,-6.0349,-6.0705,-6.077,-6.1016,-6.1453,0.0,0.0,0.0,0.0,0.0,0.0,0.0,0.0,0.0,0.0,0.0,0.0,0.0,0.0,0.0,0.0,0.0,0.0,0.0,0.0,0.0,0.0,0.0,0.0,-2.6937,-2.7026,-2.7508,-2.8472,-2.8597,-2.8222,-2.7343,-2.6442,-2.5855,-2.5505,-2.6034,-2.6012,-2.569,-2.6135,-2.6087,-2.5715,0.0,0.0,0.0,0.0,0.0,0.0,0.0,0.0,0.0,0.0,-2.5536,-2.5507,-2.5395,0.0,0.0,0.0,0.0,0.0,-2.5429,-2.5754,-2.634,-2.7362,-2.8018,-2.8264,-2.7764,-2.8645,-2.9464,-2.8934,-2.9517,-3.0482,-3.1806,-3.1943,-3.2019,-3.2651,-3.3326,-3.3468,-3.2659,-3.34,0.0,0.0,0.0,0.0,0.0,0.0,0.0,0.0,0.0,0.0,0.0,0.0,0.0,0.0,0.0,0.0,-4.3285,-4.4949,-4.6211,-4.7086,-4.789,-4.8243,-4.8321,-4.9525,-5.0529,0.0,0.0,-5.4503,-5.6766,-5.7527,-5.8511,-5.9604,-5.9985,-6.0145,-6.0222,-6.0905,-6.1235,-6.1549,0.0,0.0,0.0,0.0,0.0,0.0,0.0,0.0,0.0,0.0,0.0,0.0,0.0,0.0,0.0,0.0,0.0,0.0,0.0,0.0,0.0,0.0,0.0,0.0,-2.6388,-2.711,-2.8022,-2.9115,-2.9023,-2.8539,-2.7668,-2.6191,-2.549,-2.5561,-2.6268,-2.6364,-2.6019,-2.6442,-2.6381,-2.5973,0.0,0.0,0.0,0.0,0.0,0.0,0.0,0.0,0.0,0.0,0.0,0.0,0.0,0.0,0.0,-2.5192,-2.5241,-2.5293,-2.5389,-2.555,-2.6288,-2.8729,-2.9616,-2.9808,-2.9616,-3.0418,-3.0814,-2.9479,-2.9886,-3.084,-3.1982,-3.2048,-3.1837,-3.1584,-3.2041,-3.2302,-3.1904,0.0,0.0,0.0,0.0,0.0,0.0,0.0,0.0,0.0,0.0,0.0,0.0,0.0,0.0,0.0,0.0,0.0,-4.3312,-4.4008,-4.5233,-4.7115,-4.7674,-4.8183,-4.8623,-4.9795,-5.1067,-5.2401,-5.3575,-5.5479,-5.772,-5.8509,-5.914,-5.9684,-5.9874,-5.9942,-6.0116,-6.1246,-6.1663,-6.1804,0.0,0.0,0.0,0.0,0.0,0.0,0.0,0.0,0.0,0.0,0.0,0.0,0.0,0.0,0.0,0.0,0.0,0.0,0.0,0.0,0.0,0.0,0.0,0.0,-2.6458,-2.6523,-2.7385,-2.9206,-2.8454,-2.766,-2.6856,-2.5956,-2.5543,-2.5581,-2.5665,-2.6169,-2.6854,-2.6115,-2.6232,-2.6823,-2.5934,0.0,0.0,0.0,0.0,0.0,0.0,0.0,0.0,0.0,0.0,0.0,0.0,0.0,-2.5192,-2.5138,-2.5192,-2.5313,-2.5369,-2.6025,-2.7133,-2.8942,-2.8217,-2.7672,-2.9906,-2.9899,-2.928,-2.8994,-2.9641,-3.0777,-3.2524,-3.2878,-3.2799,-3.2545,-3.0846,-2.9798,0.0,0.0,0.0,0.0,0.0,0.0,0.0,0.0,0.0,0.0,0.0,0.0,0.0,0.0,0.0,0.0,0.0,0.0,-4.3385,-4.3463,-4.4705,-4.7115,-4.7154,-4.7959,-4.9423,-4.9521,-5.1164,-5.3934,-5.4025,-5.5401,-5.7582,-5.8325,-5.8608,-5.8694,-5.9412,-6.034,-6.1293,-6.2335,-6.2671,-6.2708,0.0,0.0,0.0,0.0,0.0,0.0,0.0,0.0,0.0,0.0,0.0,0.0,0.0,0.0,0.0,0.0,0.0,0.0,0.0,0.0,0.0,0.0,0.0,-2.5457,-2.5744,-2.6254,-2.7123,-2.8395,-2.7634,-2.7101,-2.6771,-2.5937,-2.5585,-2.5586,-2.5585,-2.582,-2.6172,-2.5819,-2.5818,-2.6092,-2.564,-2.5468,0.0,0.0,0.0,0.0,0.0,0.0,0.0,0.0,-2.5186,-2.5143,-2.508,-2.5068,-2.513,-2.5006,-2.5031,-2.5141,-2.5252,-2.5746,-2.6868,-2.9446,-2.9003,-2.8512,-3.0656,-3.0849,-3.0577,-3.0529,-2.9717,-2.9546,-3.1392,-3.1096,-3.0542,-3.0494,-2.8989,0.0,0.0,0.0,0.0,0.0,0.0,0.0,0.0,0.0,0.0,0.0,0.0,0.0,0.0,0.0,0.0,0.0,0.0,0.0,0.0,-4.3691,-4.4948,-4.6435,-4.7376,-4.8439,-4.9572,-4.9987,-5.1662,-5.425,-5.465,-5.6175,-5.8441,-5.9115,-5.9365,-5.9341,-5.9777,-6.0367,-6.11,-6.1691,-6.1849,-6.1871,0.0,0.0,0.0,0.0,0.0,0.0,0.0,0.0,0.0,0.0,0.0,0.0,0.0,0.0,0.0,0.0,0.0,0.0,0.0,-2.5322,0.0,0.0,0.0,-2.5303,-2.5303,-2.5888,-2.6653,-2.7535,-2.7059,-2.668,-2.6406,-2.5844,-2.5595,-2.5605,-2.558,-2.5779,-2.6037,-2.5707,-2.5746,-2.5944,-2.5562,-2.5381,0.0,0.0,0.0,0.0,0.0,0.0,0.0,0.0,-2.4431,-2.4648,-2.4524,-2.4765,-2.5044,-2.4902,-2.4902,-2.5006,-2.5118,-2.559,-2.6591,-2.8856,-2.9132,-2.9202,-3.0445,-3.0829,-3.0919,-3.0829,-3.0165,-2.9677,-3.0018,-2.9859,0.0,0.0,0.0,0.0,0.0,0.0,0.0,0.0,0.0,0.0,0.0,0.0,0.0,0.0,0.0,0.0,0.0,0.0,0.0,0.0,0.0,0.0,0.0,-4.3606,-4.5144,-4.6319,-4.8512,-4.9846,-5.0328,-5.0817,-5.2641,-5.5402,-5.5835,-5.7168,-5.9051,-5.9824,-6.0217,-6.0304,-6.0683,-6.1069,-6.1456,-6.1938,-6.1947,-6.1822,0.0,0.0,0.0,0.0,0.0,0.0,0.0,0.0,0.0,0.0,0.0,0.0,0.0,0.0,0.0,0.0,0.0,0.0,-2.5303,-2.5303,-2.5303,-2.5303,-2.5313,-2.5313,-2.5313,-2.5374,-2.5801,-2.6673,-2.6758,-2.6378,-2.5601,-2.5595,-2.5589,-2.5601,-2.5595,-2.6038,-2.6748,-2.5866,-2.5995,-2.6697,-2.5757,-2.5395,-2.5381,0.0,0.0,0.0,0.0,0.0,0.0,0.0,-2.2981,-2.3638,-2.3445,-2.4134,-2.4966,-2.4832,-2.4847,-2.4915,-2.4981,-2.569,-2.6529,-2.7006,-2.8157,-2.9143,-2.9099,-2.9481,-2.9779,-2.9322,-3.0922,-3.1445,-2.8542,-2.9616,0.0,0.0,0.0,0.0,0.0,0.0,0.0,0.0,0.0,0.0,0.0,0.0,0.0,0.0,0.0,0.0,0.0,0.0,0.0,0.0,0.0,0.0,0.0,-4.3062,-4.521,-4.6955,-5.0579,-5.2182,-5.1934,-5.1991,-5.4117,-5.7711,-5.7711,-5.8256,-5.929,-6.0304,-6.0939,-6.1422,-6.2194,-6.25,-6.2631,-6.3553,-6.337,-6.2795,0.0,0.0,0.0,0.0,0.0,0.0,0.0,0.0,0.0,0.0,0.0,0.0,0.0,0.0,0.0,0.0,0.0,0.0,-2.5303,-2.5303,-2.5303,-2.5303,-2.536,-2.5381,-2.5381,-2.5439,-2.5585,-2.5859,-2.5928,-2.5823,-2.554,-2.5585,-2.5556,-2.5529,-2.5589,-2.5723,-2.5861,-2.5557,-2.5596,-2.581,-2.4849,-2.4501,-2.4424,0.0,0.0,0.0,0.0,0.0,0.0,0.0,0.0,0.0,-2.331,-2.3933,-2.467,-2.4459,-2.458,-2.4904,-2.5521,-2.6064,-2.6692,-2.7578,-2.7884,-2.7845,-2.7551,-2.7866,-2.7744,-2.6045,-2.7463,-2.8792,-2.8059,-2.7625,0.0,0.0,0.0,0.0,0.0,0.0,0.0,0.0,0.0,0.0,0.0,0.0,0.0,0.0,0.0,0.0,0.0,0.0,0.0,0.0,0.0,0.0,0.0,0.0,-4.6028,-4.7658,-5.194,-5.3911,-5.3803,-5.3764,-5.5493,-5.852,-5.8002,-5.8837,-6.0668,-6.1032,-6.1707,-6.254,-6.2933,-6.3312,-6.3615,-6.3538,-6.3392,-6.3153,0.0,0.0,0.0,0.0,0.0,0.0,0.0,0.0,0.0,0.0,-2.5844,-2.5565,0.0,0.0,0.0,0.0,0.0,0.0,-2.5303,-2.5303,-2.5303,-2.5303,-2.5367,-2.5415,-2.541,-2.5422,-2.536,-2.5234,-2.546,-2.5511,-2.5444,-2.536,-2.5313,-2.5264,-2.5168,-2.5149,-2.5119,-2.5094,-2.4903,-2.4638,-2.4049,-2.3596,-2.3193,0.0,0.0,0.0,0.0,0.0,0.0,0.0,0.0,0.0,-2.2555,-2.3256,-2.4033,-2.4192,-2.4357,-2.4666,-2.5427,-2.6078,-2.6691,-2.739,-2.7486,-2.7146,-2.5997,-2.614,-2.5939,-2.3944,-2.5408,-2.6812,-2.615,-2.5943,0.0,0.0,0.0,0.0,0.0,0.0,0.0,0.0,0.0,0.0,0.0,0.0,0.0,0.0,0.0,0.0,0.0,0.0,0.0,0.0,0.0,0.0,0.0,0.0,0.0,-4.7277,-5.3695,-5.6836,-5.7021,-5.6544,-5.7583,-5.9741,-5.899,-5.9955,-6.1939,-6.1441,-6.2193,-6.3709,-6.4021,-6.4188,-6.4339,-6.4296,-6.3974,-6.3598,0.0,0.0,0.0,0.0,0.0,0.0,0.0,0.0,0.0,-2.6403,-2.642,-2.6197,0.0,0.0,0.0,-2.5303,-2.5303,-2.5303,-2.5303,-2.5303,-2.5313,-2.5293,-2.5363,-2.5408,-2.541,-2.5328,-2.5097,-2.4816,-2.5215,-2.5368,-2.5283,-2.4968,-2.4839,-2.4853,-2.4615,-2.4497,-2.452,-2.4557,-2.4182,-2.3483,-2.3347,-2.2726,-2.189,-2.1929,0.0,0.0,0.0,0.0,0.0,0.0,0.0,0.0,-2.1507,-2.2334,-2.3232,-2.4045,-2.4266,-2.4429,-2.5017,-2.5889,-2.6622,-2.6676,-2.6871,-2.6486,-2.4324,-2.4226,-2.4196,-2.2748,0.0,-2.5156,-2.3493,0.0,0.0,0.0,0.0,0.0,0.0,0.0,0.0,0.0,0.0,0.0,0.0,0.0,0.0,0.0,0.0,0.0,0.0,0.0,0.0,0.0,0.0,0.0,0.0,0.0,0.0,0.0,-5.5738,-6.0373,-6.0931,-5.9878,-6.0045,-6.1128,-6.0535,-6.1339,-6.3057,-6.1664,-6.2543,-6.4766,-6.4867,-6.4822,-6.467,-6.5095,-6.4619,-6.3755,0.0,0.0,0.0,0.0,0.0,0.0,0.0,0.0,-2.6467,-2.6339,-2.5883,-2.5495,-2.5303,-2.5303,0.0,-2.5303,-2.5303,-2.5303,-2.5303,-2.5293,-2.5321,-2.5395,-2.5382,-2.5431,-2.5493,-2.511,-2.4862,-2.4815,-2.4939,-2.4841,-2.4467,-2.4492,-2.4502,-2.452,-2.4505,-2.4527,-2.4595,-2.4588,-2.4407,-2.3992,-2.2801,-2.2069,-2.163,-2.0378,-1.9855,0.0,0.0,0.0,0.0,0.0,0.0,0.0,-2.1334,-2.2191,-2.307,-2.378,-2.4438,-2.5059,-2.5783,-2.6333,-2.6683,-2.6606,-2.5086,-2.3291,-2.2174,-2.1753,-2.1504,-2.118,-2.1774,0.0,0.0,0.0,0.0,0.0,0.0,0.0,0.0,0.0,0.0,0.0,0.0,0.0,0.0,0.0,0.0,0.0,0.0,0.0,0.0,0.0,0.0,0.0,0.0,0.0,-3.5916,-4.4328,-4.8864,0.0,-5.7925,-6.2251,-6.2865,-6.1951,-6.1582,-6.1679,-6.2227,-6.2654,-6.2949,-6.2627,-6.3211,-6.4162,-6.4037,-6.3657,-6.3224,-6.3324,-6.2775,-6.1995,0.0,0.0,0.0,0.0,0.0,0.0,0.0,0.0,-2.6223,-2.586,-2.5531,-2.5303,-2.5303,-2.4918,0.0,0.0,-2.4284,-2.4044,-2.4044,-2.4494,-2.4937,-2.5371,-2.533,-2.5253,-2.5137,-2.4854,-2.4527,-2.4135,-2.4219,-2.4253,-2.4185,-2.4113,-2.4098,-2.4155,-2.4082,-2.41,-2.4192,-2.4246,-2.3933,-2.3345,-2.2591,-2.1641,-2.0572,-1.9844,-1.9504,-1.9363,-1.9643,0.0,0.0,0.0,0.0,0.0,0.0,0.0,-2.2502,-2.3611,-2.4251,-2.4835,-2.5742,-2.609,-2.6127,-2.5792,-2.4655,-2.3227,-2.1599,-2.1246,-2.1106,-2.0503,-2.0539,0.0,0.0,0.0,0.0,0.0,0.0,0.0,0.0,0.0,0.0,0.0,0.0,0.0,0.0,0.0,0.0,0.0,0.0,0.0,0.0,0.0,0.0,0.0,0.0,0.0,-3.5552,-4.2794,-4.7052,-4.8427,-5.6058,-6.0795,-6.2835,-6.2132,-6.1968,-6.2094,-6.173,-6.2156,-6.3065,-6.2752,-6.3171,-6.383,-6.337,-6.3062,-6.2795,-6.2421,-6.1886,-6.1408,0.0,0.0,0.0,0.0,0.0,0.0,0.0,0.0,0.0,-2.536,-2.5293,-2.5216,-2.5101,-2.4438,-2.3928,0.0,0.0,0.0,-2.2726,-2.3444,-2.4222,-2.4903,-2.4807,-2.458,-2.4306,-2.4234,-2.3914,-2.3235,-2.3356,-2.3572,-2.3786,-2.3656,-2.3608,-2.364,-2.35,-2.3468,-2.348,-2.3696,-2.3286,-2.2495,-2.2518,-2.1469,-1.9905,-1.9991,-1.99,-1.9759,-2.0087,-2.0299,-2.0409,-2.0353,0.0,0.0,0.0,0.0,-2.1917,-2.3541,-2.4125,-2.4444,-2.5327,-2.5582,-2.5491,-2.5016,-2.4706,-2.3984,-2.1795,-2.1501,-2.1321,-2.0085,0.0,0.0,0.0,0.0,0.0,0.0,0.0,0.0,0.0,0.0,0.0,0.0,0.0,0.0,0.0,0.0,0.0,0.0,0.0,0.0,0.0,0.0,0.0,0.0,0.0,-2.9198,-3.5201,-4.0771,-4.426,-4.5727,-5.2965,-5.8005,-6.1119,-6.0699,-6.1119,-6.2174,-6.0762,-6.1197,-6.2795,-6.218,-6.2364,-6.2993,-6.2208,-6.1852,-6.1795,-6.1213,-6.087,-6.0553,0.0,0.0,0.0,0.0,0.0,0.0,0.0,0.0,0.0,0.0,-2.5203,-2.4935,-2.4254,-2.4062,-2.3707,-2.294,-2.2824,-2.2798,-2.2771,0.0,0.0,-2.3137,-2.2894,-2.2729,-2.2699,-2.2695,-2.2672,-2.2612,-2.2764,-2.2544,0.0,0.0,-2.3056,-2.2525,-2.3081,-2.301,-2.2517,-2.3058,-2.3129,-2.2867,-2.233,-2.1815,-2.1429,-2.0755,-2.06,-2.0688,-2.0688,-2.0921,-2.1148,-2.0389,-2.0191,0.0,0.0,0.0,0.0,-2.3617,-2.4423,-2.4793,-2.4882,-2.503,-2.5275,-2.5579,-2.4399,-2.2993,-2.2216,0.0,-2.0467,0.0,0.0,0.0,0.0,0.0,0.0,0.0,0.0,0.0,0.0,0.0,0.0,0.0,0.0,0.0,0.0,0.0,0.0,0.0,0.0,0.0,0.0,0.0,-1.9541,-2.5123,-2.6966,0.0,-3.5244,-4.1511,-4.4384,-4.4157,-5.1485,-5.5778,-5.7144,-5.684,-5.8382,-6.1264,-6.1216,-6.1285,-6.1313,-6.0588,-6.0388,-6.0439,-5.9393,-5.8568,-5.8085,-5.83,-5.7903,-5.7444,0.0,0.0,0.0,0.0,0.0,0.0,0.0,0.0,0.0,0.0,0.0,-2.4917,-2.4126,-2.3625,-2.2995,-2.214,-2.1667,-2.1623,-2.21,-2.2135,-2.225,-2.2565,-2.2421,-2.2173,-2.1761,-2.1753,-2.1621,-2.1317,-2.1274,-2.1137,0.0,-2.1357,-2.1441,-2.1356,-2.1821,-2.2078,-2.2207,-2.2503,-2.28,-2.3017,-2.2751,-2.1678,-2.035,-2.0925,-2.0645,-2.0016,-2.1115,-2.1704,-2.1918,-2.1712,-2.1425,-2.131,-2.2118,0.0,0.0,0.0,-2.407,-2.4432,-2.5112,-2.55,-2.5656,-2.5788,-2.5004,-2.4049,-2.3226,-2.2278,-2.1337,0.0,0.0,0.0,0.0,0.0,0.0,0.0,0.0,0.0,0.0,0.0,0.0,0.0,0.0,0.0,0.0,0.0,0.0,0.0,0.0,0.0,0.0,-1.5104,-1.8033,-2.3061,-2.5269,0.0,-3.3878,-3.8518,-4.2342,-4.5192,-4.8819,-5.2005,-5.4582,-5.441,-5.5854,-5.8405,-5.9002,-5.963,-6.0225,-6.0024,-5.9895,-5.9563,-5.8272,-5.7746,-5.7559,-5.7456,-5.7279,-5.7098,0.0,0.0,0.0,0.0,0.0,0.0,0.0,0.0,0.0,0.0,0.0,-2.4879,-2.3895,0.0,0.0,0.0,-2.0706,-2.0585,-2.1252,-2.1191,-2.1294,-2.1731,-2.1594,-2.1191,-2.0643,-2.0745,-2.0569,-2.0026,-1.9982,-1.9907,-1.9787,-1.9743,-1.9747,-1.9786,-2.053,-2.119,-2.1708,-2.1953,-2.2412,-2.3003,-2.2539,-2.1195,-1.9553,-2.075,-2.0454,-1.9672,-2.1566,-2.2442,-2.2746,-2.2709,-2.2447,-2.2221,-2.2777,-2.2848,0.0,0.0,0.0,-2.4127,-2.5267,-2.5818,-2.6063,-2.5911,-2.5669,-2.5212,0.0,0.0,0.0,0.0,0.0,0.0,0.0,0.0,0.0,0.0,0.0,0.0,0.0,0.0,0.0,0.0,0.0,0.0,0.0,0.0,0.0,0.0,0.0,0.0,-1.3271,-1.4269,-1.7062,-2.1827,-2.4132,-2.7691,-3.2654,-3.587,-3.9798,-4.4573,-4.5604,-4.7784,-5.0958,-5.1861,-5.3135,-5.4621,-5.6661,-5.8065,-5.8918,-5.9096,-5.9034,-5.8683,-5.7351,-5.7002,-5.7223,-5.7051,-5.7021,-5.7142,0.0,0.0,0.0,0.0,0.0,0.0,0.0,0.0,0.0,0.0,0.0,-2.4687,-2.3135,-2.2916,-2.2215,-2.0508,-2.0378,-2.0417,-2.0477,-2.0219,-2.006,-1.992,-1.949,0.0,-1.9034,-1.9336,-1.9337,-1.9075,0.0,0.0,-1.8228,-1.8527,-1.8243,-1.7557,-1.9613,-2.0558,-2.0616,-2.133,0.0,0.0,-2.1088,-2.0381,-2.0316,-2.0131,-2.0193,-2.0534,-2.2099,-2.3069,-2.353,-2.2689,-2.2681,-2.303,-2.2849,-2.2887,-2.3125,0.0,0.0,0.0,-2.4969,-2.5551,-2.6029,-2.6155,-2.6006,-2.5632,0.0,0.0,0.0,0.0,0.0,0.0,0.0,0.0,0.0,0.0,0.0,0.0,0.0,0.0,0.0,0.0,0.0,0.0,0.0,0.0,0.0,0.0,0.0,0.0,-1.3948,-1.4666,-1.7374,-2.2568,-2.5087,-2.8246,-3.2332,-3.5063,-3.7593,-3.9997,-4.1732,-4.3335,-4.5022,-4.8489,-4.9966,-5.0033,-5.53,-5.7467,-5.7359,-5.6944,-5.684,-5.7004,-5.5889,-5.5596,-5.5977,-5.6249,-5.6525,-5.6749,0.0,0.0,0.0,0.0,0.0,0.0,0.0,0.0,0.0,0.0,0.0,0.0,0.0,-2.3313,-2.2511,-2.1404,-2.0767,-2.0391,-2.0386,-2.0139,-1.9914,-1.9687,-1.936,-1.8975,-1.8605,-1.8708,-1.8456,0.0,0.0,-1.7669,-1.7255,-1.7434,-1.7478,-1.7496,-1.8562,-1.9532,-2.0429,-2.0632,0.0,0.0,0.0,-1.8955,-1.8136,-1.9298,-1.8629,-1.7506,0.0,0.0,-2.2374,-2.2435,-2.3049,-2.3749,-2.3673,-2.3617,-2.3673,-2.3943,-2.4016,-2.4162,-2.4881,-2.5149,-2.5482,-2.6437,-2.6093,-2.5616,-2.5915,-2.4846,0.0,0.0,0.0,0.0,0.0,0.0,0.0,0.0,0.0,0.0,0.0,0.0,0.0,0.0,0.0,0.0,0.0,0.0,0.0,0.0,0.0,0.0,-1.5647,-1.7095,-1.9445,-2.299,-2.6282,-3.0092,-3.4534,-3.6009,-3.8111,-4.1038,-4.185,-4.36,-4.6119,-4.8644,-4.9776,-4.9655,-5.3551,-5.5481,-5.5791,-5.5752,-5.6049,-5.6456,-5.5612,-5.5496,-5.5908,-5.6456,-5.6501,-5.6456,0.0,0.0,0.0,0.0,0.0,0.0,0.0,0.0,0.0,-2.5512,0.0,0.0,0.0,0.0,-2.2614,-2.152,-2.082,-2.0405,-2.0404,-2.0075,-1.9801,-1.9601,-1.9273,-1.8876,-1.8428,-1.8348,-1.8001,0.0,0.0,0.0,0.0,-1.656,-1.6786,-1.7509,-1.7591,-1.8642,0.0,0.0,0.0,-2.2439,0.0,0.0,-1.7543,-1.8596,0.0,0.0,0.0,0.0,0.0,0.0,0.0,-2.3746,-2.3494,-2.3687,-2.4036,-2.4016,-2.4016,-2.4165,-2.4657,-2.4881,-2.5177,-2.5872,-2.6003,-2.5981,-2.6177,0.0,0.0,0.0,0.0,0.0,0.0,0.0,0.0,0.0,0.0,0.0,0.0,0.0,0.0,0.0,0.0,0.0,0.0,0.0,0.0,0.0,0.0,0.0,-1.7648,-1.8951,-2.1341,-2.494,-2.8379,-3.1914,-3.5665,-3.6918,-3.8509,-4.0699,-4.216,-4.3819,-4.5665,-4.7982,-4.8961,-4.9071,-5.1599,-5.3561,-5.4797,-5.499,-5.551,-5.6131,-5.5504,-5.5472,-5.5892,-5.6437,-5.6553,-5.633,0.0,0.0,0.0,0.0,0.0,0.0,0.0,0.0,-2.539,-2.5566,0.0,0.0,0.0,0.0,0.0,-2.0703,-2.0534,-2.0497,-2.0405,-1.9981,-1.9661,-1.9601,-1.9157,-1.8789,-1.8522,-1.8307,-1.7915,-1.7401,0.0,0.0,0.0,0.0,-1.6258,-1.7486,-1.6728,-1.7945,-2.0476,0.0,-2.0786,-2.2351,0.0,-1.7477,-1.8622,0.0,0.0,0.0,-2.1568,-2.2394,0.0,-2.0639,0.0,0.0,0.0,-2.2985,-2.4078,-2.4036,-2.4153,-2.4284,0.0,0.0,0.0,-2.4575,0.0,0.0,-2.5509,0.0,0.0,0.0,0.0,0.0,0.0,0.0,0.0,0.0,0.0,0.0,0.0,0.0,0.0,0.0,0.0,0.0,0.0,0.0,0.0,0.0,0.0,-1.5787,-1.972,-2.0322,-2.3127,-2.8622,-3.1218,-3.3416,-3.5418,-3.7544,-3.8642,-3.8687,-4.235,-4.3723,-4.3187,-4.5969,-4.738,-4.8082,-4.961,-5.188,-5.4469,-5.4497,-5.497,-5.5817,-5.5261,-5.5379,-5.5961,-5.6308,-5.6394,-5.6394,0.0,0.0,0.0,0.0,0.0,-2.5525,-2.5531,-2.5535,-2.5537,0.0,0.0,0.0,0.0,-2.457,-2.3354,-2.1673,-2.1484,-2.1154,-2.0526,-2.0019,-1.9762,-1.9741,-1.9167,-1.8698,-1.8432,-1.8191,-1.7805,-1.7281,0.0,0.0,0.0,0.0,-1.7239,-1.7625,-1.7278,-1.842,-2.0535,-1.9883,0.0,-2.2329,-1.7303,-1.5133,0.0,0.0,0.0,0.0,0.0,-1.7603,-1.8792,0.0,-2.0823,-2.2718,0.0,-2.385,-2.3939,-2.4266,-2.4321,-2.4284,-2.4284,0.0,0.0,0.0,0.0,0.0,0.0,0.0,0.0,0.0,0.0,0.0,0.0,0.0,0.0,0.0,0.0,0.0,0.0,0.0,0.0,0.0,0.0,0.0,0.0,0.0,0.0,0.0,0.0,-1.7493,-2.2674,-2.6084,-2.9208,-3.1884,-3.4085,-3.5414,-3.5788,-3.6774,-3.8509,-4.0647,-4.1677,-4.2949,-4.4475,-4.6753,-4.7546,-4.7134,-4.9826,-5.1573,-5.2634,-5.3522,-5.4314,-5.4936,-5.5261,-5.5613,-5.5961,-5.6308,-5.6308,-5.6077,0.0,0.0,-2.8003,-2.7602,-2.6437,-2.5577,-2.5557,-2.554,-2.5585,0.0,0.0,0.0,0.0,0.0,-2.3851,-2.2522,-2.2031,-2.1595,-2.1069,-2.0326,-1.9931,-1.9917,-1.9286,-1.884,-1.8591,-1.8258,-1.7871,-1.7472,-1.732,0.0,0.0,0.0,0.0,-1.7883,-1.7325,-1.8387,-2.0627,0.0,0.0,0.0,-1.6494,0.0,0.0,-1.2006,-1.1641,0.0,0.0,0.0,-1.8329,-1.7904,-1.9368,0.0,0.0,0.0,-2.3979,-2.4266,-2.4266,-2.421,-2.421,-2.3959,-2.384,-2.4288,0.0,0.0,0.0,-2.5086,0.0,0.0,0.0,0.0,0.0,0.0,0.0,0.0,0.0,0.0,0.0,0.0,0.0,0.0,0.0,0.0,0.0,0.0,0.0,0.0,-1.8483,-2.0735,-2.558,-2.935,-3.1941,-3.3248,-3.5414,-3.6401,-3.6178,-3.7571,-3.925,-4.1121,-4.2084,-4.3238,-4.4446,-4.6359,-4.6878,-4.6514,-4.8769,-5.0437,-5.1668,-5.2473,-5.3359,-5.4193,-5.4502,-5.4622,-5.488,-5.548,-5.545,-5.5275,0.0,0.0,-2.7718,-2.6909,-2.6081,-2.5518,-2.5515,-2.5525,-2.5529,0.0,-2.5679,0.0,0.0,0.0,0.0,0.0,-2.2534,-2.2031,-2.1947,-2.0884,-2.0276,-2.0265,-1.9513,-1.9011,-1.8883,-1.842,-1.8057,-1.7828,-1.7358,-1.7358,-1.7794,-1.6797,0.0,-1.819,-1.732,-1.8358,-2.0695,0.0,0.0,-2.1678,-1.5955,-1.5581,0.0,0.0,-1.4258,0.0,-1.7488,-1.8408,-1.9228,-1.6938,-1.7866,0.0,0.0,0.0,-2.4089,-2.4207,-2.4132,-2.4036,-2.4112,-2.3837,-2.3535,-2.3342,0.0,0.0,-2.3577,-2.4268,0.0,0.0,0.0,0.0,0.0,0.0,0.0,0.0,0.0,0.0,0.0,0.0,0.0,0.0,0.0,0.0,0.0,0.0,0.0,-1.9404,-2.21,-2.5088,-2.8469,-3.1119,-3.298,-3.3697,-3.5802,-3.6767,-3.6545,-3.8739,-4.0203,-4.09,-4.283,-4.3746,-4.3802,-4.5184,-4.5944,-4.6167,-4.7298,-4.9032,-5.1292,-5.1629,-5.2496,-5.3585,-5.3407,-5.3271,-5.3385,-5.4173,-5.4282,-5.4306,-2.8061,-2.745,-2.6939,-2.6835,-2.6069,-2.5512,-2.5507,-2.5541,-2.5559,-2.5541,-2.5648,-2.5632,-2.5442,-2.5437,-2.5119,-2.4222,-2.3996,-2.3584,-2.289,-2.1847,-2.1225,-2.1248,-1.9813,-1.8968,-1.8895,-1.8323,-1.8027,-1.7961,-1.7905,-1.7927,-1.8048,-1.7915,-1.8014,-1.8308,-1.8784,-1.9633,-2.0753,0.0,0.0,-1.8118,-1.6131,0.0,-1.5312,-1.0382,-0.9802,-1.1708,-1.2406,-1.3955,-1.5885,0.0,-1.9178,-2.0593,0.0,0.0,0.0,-2.4949,-2.4429,-2.361,-2.3996,-2.3747,-2.3365,-2.3401,0.0,0.0,-2.3187,-2.3832,0.0,0.0,0.0,0.0,0.0,0.0,0.0,0.0,0.0,0.0,0.0,0.0,0.0,0.0,0.0,0.0,0.0,0.0,-2.001,-2.1861,-2.5805,-2.9137,-3.1732,-3.3709,-3.5335,-3.6617,-3.6824,-3.7132,-3.7637,-3.8087,-3.9281,-4.1242,-4.1359,-4.214,-4.3451,-4.5281,-4.5963,-4.5601,-4.7846,-4.9666,-5.1017,-5.1255,-5.2262,-5.3641,-5.3879,-5.3748,-5.3584,-5.3469,-5.3918,-5.4481,-2.687,-2.6801,-2.6684,-2.6264,-2.5821,-2.5574,-2.5598,-2.5601,-2.5598,-2.559,-2.5668,-2.571,-2.571,-2.5655,0.0,-2.507,-2.4648,-2.42,-2.3789,-2.2842,-2.2101,-2.1677,-2.0546,-1.975,-1.9324,-1.861,-1.8266,-1.8266,-1.8184,-1.8142,-1.8142,-1.8239,-1.8468,-1.887,-1.9381,-2.025,-2.1359,0.0,-2.1201,-1.9463,-1.6699,0.0,-1.3259,-0.9726,-0.9842,-1.1992,-1.2711,-1.4116,-1.6153,-1.9528,-2.0867,0.0,0.0,-2.4058,-2.4645,0.0,-2.4172,-2.3839,-2.3946,-2.3616,-2.3199,-2.3223,0.0,0.0,0.0,0.0,0.0,0.0,0.0,0.0,0.0,0.0,0.0,0.0,0.0,0.0,0.0,0.0,0.0,0.0,0.0,0.0,0.0,0.0,-2.4327,-2.7204,-2.9868,-3.1951,-3.3414,-3.4984,-3.6401,-3.7374,-3.7714,-3.7976,-3.8118,-3.8477,-3.9431,-4.1022,-4.1022,-4.1947,-4.3576,-4.5281,-4.601,-4.5914,-4.7513,-4.9087,-5.0592,-5.051,-5.1458,-5.3171,-5.3212,-5.2966,-5.2575,-5.2658,-5.2936,-5.3243,-2.5754,-2.6178,-2.6409,-2.573,-2.5609,-2.5611,-2.5664,-2.5663,-2.5621,-2.5693,-2.5683,-2.571,-2.5665,0.0,0.0,0.0,-2.5201,-2.4836,-2.4742,-2.3942,-2.3082,-2.2341,-2.1606,-2.0823,-1.9962,-1.9225,-1.8769,-1.8586,-1.8413,-1.8293,-1.8287,-1.8307,-1.8704,0.0,0.0,0.0,0.0,0.0,0.0,-2.0566,0.0,-1.4965,-1.3196,-1.1071,-1.1929,-1.4315,-1.497,-1.5975,-1.7502,-2.1188,0.0,-2.2704,-2.3466,-2.4557,0.0,0.0,0.0,0.0,0.0,0.0,0.0,0.0,0.0,-2.3052,0.0,0.0,0.0,0.0,0.0,0.0,0.0,0.0,0.0,0.0,0.0,0.0,0.0,0.0,0.0,0.0,0.0,0.0,0.0,0.0,0.0,-3.2487,-3.2578,-3.303,-3.4431,-3.5596,-3.6539,-3.7495,-3.8335,-3.8693,-3.8455,-3.9072,-3.9767,-4.0563,-4.1022,-4.2023,-4.366,-4.4988,-4.5889,-4.6371,-4.6849,-4.8325,-5.03,-4.9719,-5.0793,-5.2701,-5.2434,-5.1933,-5.1542,-5.1933,-5.196,-5.1986,-2.5624,-2.5644,-2.5642,-2.5603,-2.5619,-2.5586,-2.5625,-2.5661,-2.5663,-2.5603,-2.5642,-2.5676,0.0,0.0,0.0,0.0,0.0,0.0,-2.6006,0.0,-2.4507,-2.4126,-2.2959,-2.1875,-2.0868,-2.0423,-1.9769,-1.8842,-1.8825,-1.8717,-1.8565,-1.8622,-1.8988,0.0,-1.8535,0.0,0.0,0.0,-1.9599,0.0,-1.7495,-1.7988,0.0,-1.4728,-1.4507,-1.5853,-1.6763,-1.7289,-1.8124,0.0,-2.3715,-2.4616,0.0,-2.6641,-2.5764,-2.705,0.0,0.0,0.0,0.0,0.0,0.0,-2.3077,0.0,0.0,0.0,0.0,0.0,0.0,0.0,0.0,0.0,0.0,0.0,0.0,0.0,0.0,0.0,0.0,0.0,0.0,0.0,0.0,0.0,0.0,0.0,-3.1291,-3.1115,-3.5414,-3.5491,-3.6196,-3.7714,-3.8096,-3.8574,-3.919,-3.9308,-3.9465,-3.9795,-4.0495,-4.1468,-4.2767,-4.4205,-4.5403,-4.6276,-4.6661,-4.8231,-5.03,-4.9719,-5.0793,-5.2701,-5.2434,-5.2017,-5.1706,-5.1211,-5.1572,-5.2183,-2.5661,-2.5625,-2.5625,-2.564,-2.565,-2.5659,-2.5659,-2.6128,-2.6444,-2.6404,-2.6808,0.0,0.0,0.0,0.0,0.0,0.0,-2.6835,0.0,0.0,-2.5274,-2.445,-2.3694,-2.2893,-2.1966,-2.0991,-2.0289,-1.9822,-1.9232,-1.8912,-1.8825,-1.886,-1.9394,-2.0279,-1.8788,0.0,-2.1319,0.0,-2.0613,0.0,0.0,0.0,0.0,-1.5131,-1.3903,-1.4503,-1.538,-1.6541,-1.7963,0.0,-2.2577,0.0,0.0,0.0,0.0,-2.6008,0.0,0.0,0.0,0.0,0.0,0.0,0.0,0.0,-2.3232,0.0,-2.3052,0.0,0.0,0.0,0.0,0.0,0.0,0.0,0.0,0.0,0.0,0.0,0.0,0.0,0.0,0.0,0.0,0.0,0.0,0.0,0.0,-3.2142,-3.5365,-3.594,-3.6674,-3.7714,-3.8455,-3.9072,-3.9308,-3.9308,-3.9561,-3.9945,-4.0935,-4.2033,-4.3407,-4.4793,-4.6305,-4.7957,-4.7838,-4.9203,-5.143,-5.0842,-5.144,-5.2701,-5.2434,-5.1906,-5.1238,-5.0795,-5.0848,-5.0956,-2.5702,-2.5697,-2.5694,-2.5694,-2.5694,-2.5694,-2.5694,-2.6443,-2.6992,0.0,0.0,0.0,-2.809,-2.8294,0.0,0.0,-2.8154,-2.7774,0.0,0.0,-2.6196,-2.5007,-2.4573,0.0,0.0,-2.2098,-2.1265,-2.0942,-1.9989,-1.96,-1.9769,-1.955,-2.0156,-2.1313,0.0,-1.942,-2.0784,0.0,-2.0728,-1.9779,-1.9869,-2.0067,-1.9806,-1.5532,-1.3681,-1.3496,-1.4457,-1.589,-1.7562,-1.8713,-2.2046,0.0,-2.2643,0.0,0.0,0.0,0.0,0.0,-2.6122,0.0,0.0,0.0,0.0,0.0,0.0,0.0,0.0,0.0,0.0,0.0,0.0,0.0,0.0,0.0,0.0,0.0,0.0,0.0,0.0,0.0,0.0,0.0,0.0,0.0,0.0,0.0,0.0,0.0,-3.5896,-3.6785,-3.7493,-3.8089,-3.9075,-3.9544,-3.9308,-3.9308,-3.9492,-3.9859,-4.1084,-4.2447,-4.3795,-4.4962,-4.6597,-4.847,-4.848,-4.9505,-5.1136,-5.132,-5.1692,-5.2223,-5.2011,-5.1458,-5.0906,-5.0795,-5.0572,-5.0235,-2.5689,-2.57,-2.5703,-2.5703,-2.5703,-2.5703,-2.5703,-2.6445,0.0,0.0,0.0,0.0,0.0,0.0,0.0,0.0,0.0,-2.9836,-2.7781,0.0,-2.7535,0.0,0.0,-2.5337,0.0,-2.4114,-2.3095,-2.204,-2.1227,-2.1124,-2.1684,-2.0894,-2.131,-2.257,-2.0473,-2.0082,-2.0856,-2.018,-1.8514,-1.6531,-1.8248,-1.9071,-1.9065,0.0,-1.4976,-1.3882,-1.5322,0.0,0.0,-2.1403,-2.305,0.0,0.0,0.0,0.0,0.0,0.0,0.0,0.0,0.0,0.0,-2.5103,0.0,0.0,0.0,0.0,-2.2596,0.0,0.0,0.0,0.0,0.0,-2.2909,-2.3633,0.0,0.0,0.0,0.0,0.0,0.0,0.0,0.0,0.0,0.0,0.0,0.0,0.0,0.0,0.0,-3.8128,-3.8227,-3.8643,-3.9894,-4.0223,-3.9308,-3.9308,-3.9308,-3.9331,-4.0704,-4.2016,-4.3354,-4.4427,-4.555,-4.6976,-4.7726,-4.8102,-4.8421,-5.0498,-5.1215,-5.0932,-5.0905,-5.0867,-5.0906,-5.1266,-5.1155,-5.0906,-2.5673,-2.5683,-2.5689,-2.5689,-2.5693,-2.589,0.0,-2.7292,0.0,0.0,0.0,0.0,0.0,0.0,-2.9677,0.0,0.0,-2.9392,-2.7546,-2.8248,0.0,0.0,0.0,-2.6188,0.0,0.0,0.0,-2.3098,-2.2229,-2.1948,-2.2114,-2.1772,-2.2041,-2.2832,0.0,-1.9733,0.0,0.0,0.0,0.0,0.0,-2.1249,-1.9836,0.0,0.0,-1.6169,-1.4195,-1.4625,0.0,-1.6729,-1.9081,-2.1657,-2.1308,-2.3069,-2.4997,-2.3515,-2.3638,0.0,0.0,0.0,-2.2332,-2.324,0.0,0.0,0.0,0.0,0.0,0.0,0.0,0.0,0.0,-2.248,-2.2528,-2.2986,-2.2562,0.0,0.0,0.0,0.0,0.0,0.0,0.0,0.0,0.0,0.0,0.0,0.0,0.0,0.0,-3.8467,-3.9101,-3.9848,-4.1393,-4.2001,-4.1745,-4.1303,-4.0786,-4.0223,-4.1306,-4.228,-4.3354,-4.4446,-4.591,-4.77,-4.8,-4.8524,-4.9369,-5.0936,-5.1186,-5.0675,-5.1455,-5.1363,-5.0683,-5.0795,-5.0683,-5.0683,-2.5648,-2.5671,-2.5681,-2.571,-2.5715,0.0,0.0,0.0,0.0,0.0,-3.0185,0.0,-3.0341,0.0,-3.0201,0.0,-2.9665,-2.9508,-2.8552,-2.8124,0.0,-2.8463,-2.6967,0.0,0.0,0.0,0.0,0.0,0.0,-2.2951,-2.3215,-2.2821,-2.3034,-2.3619,0.0,-2.0673,-1.8772,-1.959,-1.856,0.0,0.0,-2.3293,0.0,0.0,-1.8825,0.0,0.0,-1.3059,-1.4375,-1.4022,-1.6019,-1.8535,-1.7906,-2.0066,-2.2562,-2.089,-2.147,-2.2244,-2.0596,-2.0073,0.0,0.0,-2.086,0.0,-2.341,0.0,0.0,0.0,0.0,0.0,0.0,0.0,-2.2426,-2.2634,-2.2419,0.0,0.0,-2.1182,0.0,0.0,0.0,0.0,0.0,0.0,0.0,0.0,0.0,0.0,0.0,0.0,-4.0453,-4.1393,-4.2528,-4.2979,-4.2652,-4.2676,-4.2176,-4.1321,-4.2107,-4.2777,-4.3354,-4.4368,-4.571,-4.7313,-4.7879,-4.8274,-4.8722,-5.0469,-5.0578,-4.989,-5.1115,-5.1222,-5.0572,-5.0683,-5.0906,-5.0906,-2.5278,-2.5027,0.0,0.0,-2.5373,0.0,0.0,0.0,-2.8145,0.0,-2.9311,-3.0195,-2.9841,-3.0273,-3.0898,-3.156,-3.0697,0.0,-3.0427,-2.7648,0.0,0.0,-2.6584,-2.614,-2.7776,0.0,0.0,0.0,0.0,0.0,-2.4898,-2.4117,-2.4155,-2.4898,-2.4813,0.0,-1.9476,-1.9736,-1.8108,-1.5948,-2.2485,-2.492,-2.4421,-2.2608,0.0,-1.7531,-1.3005,-1.1503,-1.1889,-1.3515,-1.4164,-1.4535,-1.6242,-1.727,-1.7793,-1.7692,-1.7122,-1.6873,-1.8591,-1.7971,-1.7074,-1.8157,0.0,0.0,0.0,0.0,-1.8774,0.0,0.0,0.0,0.0,0.0,0.0,-2.2548,-2.2573,0.0,0.0,0.0,0.0,0.0,0.0,0.0,0.0,0.0,0.0,0.0,0.0,0.0,0.0,0.0,0.0,-4.3159,-4.3346,-4.3084,-4.2496,-4.333,-4.3296,-4.2549,-4.2944,-4.3187,-4.3163,-4.4081,-4.4981,-4.5939,-4.7313,-4.7383,-4.6496,-4.8868,-4.9377,-4.8753,-4.9943,-5.0384,-5.0572,-5.1155,-5.1486,-5.1568,-2.0577,-1.6743,-1.4117,0.0,-2.0977,-2.6822,0.0,0.0,0.0,0.0,-3.0378,-3.0466,-2.9866,-2.9383,-2.8826,-2.8023,-2.8585,0.0,0.0,0.0,0.0,-2.8779,-2.7086,-2.6622,-2.7691,-2.6215,0.0,-2.644,0.0,0.0,-2.5032,-2.4739,-2.4712,-2.4926,0.0,-2.4318,-2.1896,-2.2987,-2.2793,-2.187,-2.3443,-2.4423,0.0,0.0,-1.7834,-1.6918,-1.2627,-1.1551,-1.2175,-1.224,-1.2307,-1.2664,-1.4354,-1.4354,-1.3827,-1.4096,-1.4711,-1.472,-1.2318,-1.3663,-1.4814,-1.1115,-0.9708,-1.1065,0.0,0.0,0.0,0.0,0.0,0.0,0.0,0.0,0.0,0.0,0.0,0.0,0.0,0.0,0.0,0.0,0.0,0.0,0.0,0.0,0.0,0.0,0.0,0.0,0.0,0.0,0.0,-4.3441,-4.3796,-4.4377,-4.5313,-4.3626,-4.2951,-4.3103,-4.1827,-4.1662,-4.2652,-4.3281,-4.4294,-4.5579,-4.6396,-4.6907,-4.7044,-4.8692,-4.8944,-4.8458,-4.9621,-5.0067,-5.0235,-5.0795,-5.0934,-5.0822,-1.5438,0.0,0.0,-0.9681,0.0,0.0,-2.3727,0.0,0.0,-2.9907,-3.0108,0.0,-2.9607,-2.835,-2.7381,-2.6923,-2.707,0.0,0.0,0.0,0.0,-2.8614,-2.678,-2.6285,-2.7484,-2.5941,0.0,-2.6414,0.0,0.0,-2.5069,-2.4968,-2.4902,-2.4856,0.0,-2.493,-2.2953,-2.2348,-2.2623,-2.3368,-2.1982,0.0,0.0,-1.7501,-1.5537,-1.4182,-1.1096,-1.079,-1.1716,-1.1122,-1.1108,-1.1405,-1.204,-1.2234,-1.2295,-1.2555,-1.2527,-1.1828,-0.9342,-0.9163,-0.9199,-0.7039,-0.6032,-0.6805,-1.1351,-1.2852,-1.4064,0.0,0.0,0.0,0.0,0.0,0.0,0.0,0.0,0.0,0.0,0.0,0.0,0.0,0.0,0.0,0.0,0.0,0.0,0.0,0.0,0.0,0.0,0.0,0.0,-4.2099,-4.2334,-4.3559,-4.5816,-4.3597,-4.2717,-4.3333,-4.2248,-4.1918,-4.2341,-4.2968,-4.3954,-4.5354,-4.605,-4.6636,-4.7231,-4.7921,-4.8224,-4.8341,-4.9239,-4.9622,-4.987,-5.0348,-5.0572,-5.0711,-0.9994,0.0,0.0,0.0,0.0,0.0,0.0,-2.5168,0.0,-2.8588,0.0,-2.9098,-2.8844,-2.7244,-2.6364,-2.6734,0.0,-2.5652,-2.7037,-2.51,-2.4963,-2.7382,-2.5614,-2.5158,-2.6405,-2.5324,0.0,0.0,0.0,0.0,-2.5171,-2.5133,-2.504,-2.4919,-2.5844,0.0,0.0,-2.0661,-2.0564,0.0,-1.9337,-1.7264,-1.5682,-1.513,-1.3328,-1.0831,-0.9256,-0.965,-1.0823,-1.0174,-1.0226,-1.0438,-0.9958,-1.0504,-1.1367,-1.1367,-0.9831,-0.8035,-0.7407,-0.4724,-0.2566,-0.4458,-0.4254,-0.3668,-0.3571,-0.5629,-0.6904,-0.4657,-0.7588,0.0,0.0,0.0,0.0,0.0,0.0,0.0,0.0,0.0,0.0,0.0,0.0,0.0,0.0,0.0,0.0,0.0,0.0,0.0,0.0,0.0,0.0,-4.0508,-4.0514,0.0,-4.4527,0.0,-4.2384,-4.2904,-4.2897,-4.2592,-4.2011,-4.2753,-4.3737,-4.4873,-4.583,-4.6585,-4.7205,-4.7324,-4.7677,-4.8172,-4.8779,-4.9213,-4.9415,-4.9783,-5.0348,-5.0795,-0.4295,0.0,0.0,0.0,0.0,-1.3582,-1.8438,-2.4019,-2.7543,-2.7044,-2.7059,0.0,-2.682,-2.6447,-2.5602,-2.4112,-2.3957,0.0,0.0,0.0,0.0,-2.2029,-2.261,-2.2558,-2.179,-2.2562,-2.3515,0.0,0.0,0.0,-2.6001,-2.5934,-2.5853,-2.5831,-2.7361,0.0,-2.4874,-2.4391,0.0,-1.9546,-1.776,-1.5753,-1.3668,-1.2019,-1.0877,-1.0019,-0.919,-0.9375,-0.9905,-0.9248,-0.91,-0.9234,-0.9642,-0.8516,-0.6974,-0.6974,-0.4735,-0.2138,-0.178,-0.0856,0.0,-0.0213,0.0,0.0,-0.1049,-0.1714,-0.1438,0.0863,-0.1732,-0.4552,-0.4891,0.0,0.0,0.0,0.0,0.0,0.0,0.0,0.0,0.0,0.0,0.0,0.0,0.0,0.0,0.0,0.0,0.0,0.0,0.0,0.0,0.0,0.0,0.0,0.0,0.0,0.0,-4.1076,-4.0449,-4.0881,-4.203,-4.222,-4.2846,-4.3949,-4.511,-4.6205,-4.7205,-4.7821,-4.7938,-4.7821,-4.8548,-4.8753,-4.8753,-4.9098,-4.981,-5.0599,-0.1863,0.0,0.0,0.0,0.0,0.0,0.0,-1.9181,0.0,-2.6356,-2.6898,-2.6643,-2.5593,-2.4843,-2.3597,-2.1624,-2.1666,-2.109,-1.9469,-2.0079,-2.0705,-2.1053,-2.0741,0.0,-2.1574,-2.0291,-2.0956,-2.3667,0.0,0.0,-2.676,-2.6729,-2.6666,-2.6497,0.0,-2.5526,0.0,0.0,0.0,-1.6923,-1.4286,-1.2351,-1.1029,-1.0478,-0.8984,-0.719,-0.6962,-0.6013,-0.5329,-0.7809,-0.786,-0.6854,-0.7007,-0.6599,-0.5728,-0.4244,-0.1801,0.0851,0.2969,0.353,0.3285,0.1848,0.2758,0.3583,0.2264,0.2233,0.2598,0.3206,0.1918,-0.0489,-0.423,-0.5247,0.0,0.0,0.0,0.0,0.0,0.0,0.0,0.0,0.0,0.0,0.0,0.0,0.0,0.0,0.0,0.0,0.0,0.0,0.0,0.0,0.0,0.0,0.0,0.0,0.0,-4.0352,-4.0568,-4.0808,-4.1172,-4.1818,-4.2555,-4.329,-4.4126,-4.5335,-4.6913,-4.7808,-4.8055,-4.7795,-4.809,-4.7885,-4.7482,-4.7951,-4.8266,-4.8532,0.0,0.2496,0.0,0.0,-0.4382,0.0,0.0,-1.5463,-1.9964,-2.4895,-2.559,-2.5227,-2.4262,-2.2997,-2.1355,-1.925,-1.9197,-1.8654,-1.7035,-1.8004,-1.8826,-1.9119,-1.8259,-1.8382,-1.9751,-1.7664,-1.8128,0.0,0.0,0.0,0.0,-2.4055,-2.3817,0.0,0.0,0.0,0.0,0.0,-1.4178,-1.3362,-1.0275,-0.8433,-0.7599,-0.7983,-0.6371,-0.3831,-0.3791,-0.2234,-0.0911,-0.4995,-0.5239,-0.3737,-0.3413,-0.3644,-0.3607,-0.1403,0.0801,0.3134,0.6074,0.6686,0.5954,0.3687,0.4879,0.6318,0.5269,0.5454,0.5671,0.4862,0.4614,0.3168,-0.1063,-0.1204,0.0,0.0,0.0,0.0,0.0,0.0,0.0,0.0,0.0,0.0,0.0,0.0,0.0,0.0,0.0,0.0,0.0,0.0,0.0,0.0,0.0,-3.7716,-3.9455,0.0,-3.7863,0.0,-3.9989,-4.0292,-3.9989,-4.1325,-4.2055,-4.2317,-4.2928,-4.4396,-4.6422,-4.7484,-4.7834,-4.7769,-4.7775,-4.716,-4.6339,-4.6979,-4.69,-4.6708,0.0,0.0,0.0,0.0,0.0,0.0,0.0,-1.7182,-1.7639,-2.1009,-2.0233,-2.0116,-2.2181,-2.1334,-1.962,-1.7169,-1.6879,-1.588,-1.3589,-1.2714,-1.2114,-1.1831,-1.3377,-1.321,-1.0958,-1.3594,-1.5334,0.0,0.0,0.0,0.0,-1.346,0.0,0.0,0.0,0.0,0.0,-1.3363,-1.1399,-0.8016,-0.6374,-0.4743,-0.3087,-0.211,-0.1451,-0.0865,-0.0137,0.0212,0.029,0.0443,0.0295,0.0147,0.0598,0.1639,0.2608,0.2692,0.408,0.5741,0.63,0.6602,0.6681,0.6583,0.6922,0.7176,0.6824,0.7116,0.7424,0.7468,0.6635,0.6322,0.7659,0.5544,0.3752,0.0,0.0,0.0,0.0,0.0,0.0,0.0,0.0,0.0,0.0,0.0,0.0,0.0,0.0,0.0,0.0,0.0,0.0,-3.4568,0.0,-3.4621,-3.2807,-3.4247,0.0,-3.5511,-3.6312,-3.7626,-3.9311,-4.013,-4.0411,-4.0356,-4.1659,-4.3746,-4.6144,-4.6733,-4.747,-4.812,-4.7889,-4.716,-4.622,-4.6752,-4.6874,-4.6783,0.0,0.0,0.0,0.0,0.0,0.0,0.0,-1.1677,-1.2289,-1.4262,-1.6327,-1.7833,-1.8534,-1.7812,-1.6429,-1.4297,-1.3322,-1.2091,-1.0329,-1.0237,-1.0464,-1.0887,-1.0905,-1.1064,-1.144,-1.1953,-1.3237,0.0,0.0,0.0,0.0,0.0,0.0,0.0,0.0,-1.1904,-0.8798,-0.6345,-0.4475,-0.3105,-0.2657,-0.1969,-0.1159,-0.1258,0.0346,0.2756,0.2709,0.4275,0.6444,0.7163,0.5701,0.3712,0.3785,0.4814,0.6098,0.6694,0.6806,0.7005,0.8528,0.9025,0.9067,0.8976,0.9804,1.0329,0.9195,0.9651,1.0083,0.9427,0.8267,0.7278,0.7035,0.6881,0.6074,0.0,0.0,0.0,0.0,0.0,0.0,0.0,0.0,0.0,0.0,0.0,0.0,0.0,0.0,0.0,0.0,0.0,0.0,-3.3771,0.0,-3.1591,-3.2734,-3.2695,-3.3194,-3.4337,-3.5181,-3.5886,-3.6252,-3.7079,-3.7626,-3.7783,-4.0236,-4.1568,-4.2296,-4.447,-4.5497,-4.5479,-4.4951,-4.4543,-4.4207,-4.3631,-4.3746,-4.4227,-0.1852,0.0,-0.0997,0.0,-0.5165,-0.529,-0.5966,-0.7078,-0.8097,-0.8889,-1.1728,-1.3972,-1.4879,-1.4124,-1.2888,-1.1272,-1.0084,-0.9006,-0.8032,-0.8186,-0.8653,-0.9367,-0.8567,0.0,-1.0249,-0.9336,-0.9922,-1.2225,-0.8207,0.0,0.0,0.0,0.0,0.0,-0.7252,-0.5747,-0.3943,-0.0831,0.0249,0.0062,0.065,0.1005,0.1301,0.1693,0.3708,0.6373,0.6232,0.809,1.0802,1.1804,1.0349,0.8106,0.8038,0.8913,1.0154,1.1101,1.0736,1.0343,1.2225,1.2597,1.2544,1.2342,1.3233,1.3779,1.262,1.2997,1.3332,1.2106,1.0416,0.8707,0.7451,0.7624,0.7177,0.0,0.0,0.0,0.0,0.0,0.0,0.0,0.0902,-0.0,0.0,0.0,0.0,0.0,0.0,0.0,0.0,0.0,0.0,0.0,0.0,0.0,0.0,0.0,-3.0162,-3.2161,-3.2995,-3.3525,-3.3823,-3.4634,-3.5314,-3.6081,-3.8385,-3.9422,-3.9744,-4.2084,-4.3384,-4.379,-4.2652,-4.2399,-4.2421,-4.1489,-4.142,-4.1923,-0.1581,-0.0916,-0.0777,-0.3409,-0.4411,-0.4619,-0.383,-0.5075,-0.6079,-0.5977,-0.5855,-0.7344,-1.167,-1.0573,-0.9145,-0.8348,-0.7683,-0.7225,-0.6933,-0.615,-0.5621,0.0,0.0,-0.5545,-0.4911,-0.4876,-0.488,-0.4807,0.0,0.0,-0.1228,0.0,-0.213,0.4484,-0.2458,-0.2493,0.2641,0.185,0.1219,0.0968,0.3363,0.4431,0.5056,0.853,0.9806,0.9804,1.0901,1.1326,1.1636,1.3285,1.3808,1.3795,1.3898,1.4708,1.581,1.622,1.6411,1.6739,1.7471,1.74,1.7255,1.7255,1.7255,1.7255,1.7241,1.7407,1.7095,1.5684,1.3177,1.1249,1.1151,0.8848,0.7203,0.8102,0.0,0.0,0.0,0.0,0.0,0.6051,0.5106,0.3014,0.0248,0.0,0.0,0.0,0.0,0.0,0.0,0.0,0.0,-2.113,-2.1494,0.0,-2.3289,-2.3763,-2.5514,-2.8459,-2.8709,-3.0139,-3.2511,-3.3068,-3.4198,-3.5848,-3.6194,-3.7549,-3.9567,-3.9567,-4.1425,-4.4004,-4.1803,-4.1353,-4.1683,-4.1253,-4.0622,-4.0264,-0.2394,-0.1567,-0.0902,-0.1954,-0.2104,-0.1725,-0.056,-0.1757,-0.2701,-0.2265,-0.3182,-0.4425,-0.5741,-0.6379,-0.6648,0.0,-0.532,-0.4626,0.0,-0.4222,-0.4442,-0.5097,-0.4935,-0.4665,-0.4347,-0.4931,-0.4777,-0.3936,0.0,0.0,0.0,0.3656,0.3902,0.4469,0.3998,0.4861,0.6771,0.7531,0.7798,0.7582,0.8467,0.8727,0.8711,0.9666,1.0181,1.0415,1.0987,1.2158,1.3469,1.4477,1.6113,1.7729,1.7938,1.7305,1.657,1.7105,1.7357,1.74,1.7612,1.7682,1.7597,1.7597,1.7597,1.7597,1.7597,1.7624,1.7301,1.5835,1.4875,1.359,1.16,1.0538,0.9371,0.759,0.0,0.0,0.0,0.0,0.4125,0.5285,0.5173,0.3207,0.0,0.0,0.0,0.0,0.0,0.0,0.0,0.0,0.0,0.0,-1.8305,0.0,-2.1393,-2.1621,-2.2848,-2.5093,-2.6372,-2.7366,-2.7855,-2.9485,-3.0356,-3.0774,-3.3135,-3.4199,-3.4438,-3.6687,-3.7892,-3.8672,-3.9499,-3.9704,-3.953,-3.9847,-3.9916,-4.0025,-0.0922,-0.0568,-0.0,0.0809,0.0287,0.0213,0.1705,0.0586,0.0073,0.1596,-0.0075,-0.0969,0.0154,-0.0531,0.0,-0.192,-0.1187,0.0,-0.067,-0.1775,-0.2762,-0.3609,-0.299,-0.2542,-0.2399,0.0,0.0,-0.1321,0.1642,0.4161,0.6302,0.6635,0.6551,0.6341,0.8046,0.9061,0.9542,1.0773,1.1128,1.092,1.0903,1.0731,1.0616,1.0747,1.089,1.1131,1.2194,1.3508,1.4861,1.6293,1.7971,1.9654,2.0958,2.0553,1.9526,1.9589,1.9437,1.9391,1.9637,1.9622,1.9514,1.9514,1.9514,1.9514,1.9514,1.9115,1.8584,1.7795,1.7225,1.6177,1.3802,1.2882,1.1529,0.851,0.0,0.6577,0.5147,0.0,0.0,0.0,0.0,0.0,0.0,-0.2905,0.0,0.0,0.0,0.0,0.0,0.0,0.0,-1.6388,-1.4465,0.0,-1.8212,-1.8459,-1.9615,-2.2019,-2.431,-2.5548,-2.5563,-2.7161,-2.8222,-2.8876,-3.0792,-3.1776,-3.2074,-3.3961,-3.5066,-3.5718,-3.6868,-3.7471,-3.7846,-3.8185,-3.8492,-3.9077,0.2419,0.1797,0.0,0.0,0.2646,0.0,0.3037,0.2035,0.223,0.5395,0.3457,0.2851,0.583,0.6539,0.6237,0.481,0.0,0.0,0.0,0.1379,-0.0524,-0.0731,0.0218,0.0,0.0799,0.2104,0.268,0.2605,0.3547,0.4756,0.6237,0.5594,0.6808,0.9604,0.9936,1.0503,1.112,1.1854,1.1813,1.1468,1.1233,1.1164,1.124,1.2035,1.2021,1.2013,1.4522,1.549,1.6019,1.8792,1.981,2.0346,2.3262,2.4268,2.4306,2.3191,2.2646,2.246,2.3168,2.3201,2.2924,2.2788,2.2788,2.2788,2.2788,2.1725,2.0885,2.0903,1.9894,1.8624,1.7186,1.5644,1.3566,1.0527,0.8641,0.7051,0.5661,0.0,0.0,0.0,0.0,0.0,0.0,0.2618,0.0549,0.0,0.0,0.0,0.0,0.0,-1.3698,-1.0526,-1.0526,-1.1691,-1.4109,-1.4708,-1.6344,-1.9272,-2.2348,-2.431,-2.4984,-2.5644,-2.7184,-2.9155,-2.9119,-3.013,-3.1828,-3.1642,-3.2933,-3.481,-3.4207,-3.4962,-3.6639,-3.646,-3.6868,-3.7616,0.0,0.0,0.4112,0.5272,0.4941,0.4723,0.5268,0.4179,0.4307,0.7186,0.6166,0.6254,0.8964,1.2336,1.4183,1.3671,1.0502,0.8591,0.8509,0.5675,0.4708,0.6369,0.4886,0.4218,0.4696,0.5127,0.4809,0.3708,0.4916,0.5915,0.6618,0.8392,0.9479,1.0155,1.1142,1.1763,1.2062,1.2742,1.3062,1.2954,1.3159,1.3076,1.3032,1.4064,1.4377,1.4546,1.6733,1.8082,1.9269,2.1358,2.2705,2.3917,2.5748,2.6361,2.6381,2.5852,2.581,2.5939,2.613,2.6111,2.5755,2.4546,2.4271,2.4271,2.4271,2.405,2.3236,2.116,2.0438,1.9454,1.7257,1.6547,1.5328,1.2457,1.0578,0.9014,0.7438,0.6288,0.0,0.0,0.5717,0.4767,0.2418,0.1781,0.0468,0.0,0.0,0.0,0.0,0.0,-0.7596,-1.1123,-1.0377,-1.0598,-1.2039,-1.3744,-1.6057,-1.9047,-1.9666,-2.0281,-2.1149,-2.3062,-2.4329,-2.4953,-2.6783,-2.8265,-2.9133,-2.9994,-3.0792,-3.1836,-3.4042,-3.4755,-3.4758,-3.6665,-3.7144,-3.7132,0.5609,0.5571,0.5554,0.5952,0.5948,0.6402,0.7766,0.7289,0.8271,1.2326,1.1233,1.1023,1.3639,1.6413,1.789,1.7683,1.4794,1.294,1.294,0.9922,0.8773,0.9988,0.9333,0.9086,0.9516,0.9478,0.889,0.7696,0.9086,0.9781,0.9833,1.142,1.237,1.2776,1.3599,1.4005,1.4058,1.4475,1.4884,1.5149,1.4276,1.444,1.5219,1.5319,1.581,1.6783,1.86,1.9857,2.0995,2.3289,2.453,2.5424,2.7361,2.8087,2.8228,2.8666,2.8025,2.7094,2.729,2.7212,2.6894,2.6053,2.6028,2.6161,2.6161,2.5647,2.4769,2.3448,2.2419,2.1187,1.9189,1.8401,1.7029,1.4019,1.2079,1.0262,0.8231,0.7145,0.0,0.5973,0.5878,0.512,0.3312,0.2224,0.1055,-0.038,0.0,0.0,-0.2986,-0.2802,-0.4402,-0.8235,-0.8347,-0.9097,-1.0476,-1.29,-1.4885,-1.6564,-1.7503,-1.8339,-1.935,-2.1282,-2.2704,-2.3852,-2.5326,-2.6496,-2.7514,-2.8606,-2.9433,-3.0083,-3.2194,-3.3014,-3.3112,-3.5113,-3.5947,-3.5961,0.6428,0.6699,0.6834,0.6505,0.6953,0.8135,1.0086,1.0678,1.2638,1.7696,1.6469,1.6109,1.8734,1.9521,1.971,1.9536,1.8197,1.7353,1.7314,1.426,1.2698,1.3121,1.3736,1.4253,1.4406,1.3824,1.3046,1.2143,1.3644,1.4198,1.3789,1.4421,1.5175,1.6021,1.6228,1.6271,1.6271,1.6462,1.6832,1.7201,1.5418,1.5858,1.7427,1.6691,1.7288,1.8725,2.0743,2.1707,2.2314,2.5136,2.6135,2.6427,2.8652,2.9526,2.9986,3.1306,2.9854,2.7943,2.8304,2.7938,2.7558,2.7739,2.8018,2.8192,2.8192,2.7333,2.6365,2.6227,2.4833,2.3201,2.1418,2.0223,1.8468,1.5246,1.3111,1.1104,0.8825,0.0,0.7426,0.6721,0.6459,0.5996,0.4956,0.3188,0.1577,0.0688,-0.1084,0.0,0.0,-0.2847,-0.3011,-0.4157,-0.5771,-0.7481,-0.9433,-1.1946,-1.3396,-1.3811,-1.5572,-1.7067,-1.8286,-1.9907,-2.1647,-2.3595,-2.4096,-2.5092,-2.643,-2.7211,-2.8023,-2.8846,-2.9953,-3.0819,-3.1584,-3.293,-3.4004,-3.4776,0.6428,0.8232,0.9138,0.7061,1.0426,1.2925,1.1247,1.2762,1.521,1.8321,1.8459,1.9262,2.1826,2.2485,2.2688,2.2503,2.202,2.1762,2.1753,1.8671,1.7927,2.0325,1.8543,1.7584,1.7584,1.5202,1.3758,1.3438,1.4979,1.5558,1.5248,1.6672,1.7305,1.7305,1.7367,1.7208,1.7049,1.79,1.8148,1.8011,1.8243,1.8468,1.8781,1.9876,2.042,2.1122,2.407,2.5252,2.566,2.8291,2.9184,2.9393,3.0756,3.1229,3.1586,3.3232,3.2476,3.1287,3.1353,3.049,2.9808,3.0874,3.0599,3.0003,3.0003,2.9982,2.922,2.6445,2.5572,2.4538,2.1662,2.0274,1.8794,1.6588,1.3591,1.1189,0.9943,0.0,0.8549,0.8233,0.8269,0.7657,0.6083,0.3199,0.1119,0.0201,-0.1606,-0.2513,-0.2011,-0.2051,-0.2402,-0.2863,-0.4256,-0.6424,-0.9433,-1.028,-1.1868,-1.4374,-1.3848,-1.4662,-1.6891,-1.8733,-1.988,-2.0571,-2.223,-2.3863,-2.531,-2.5501,-2.6301,-2.7505,-2.8672,-2.9508,-3.0121,-3.1401,-3.2975,-3.4349,0.897,1.1123,1.2645,1.1497,1.3246,1.4913,1.5205,1.6051,1.7721,2.0395,2.0784,2.1373,2.2618,2.298,2.3242,2.3229,2.3229,2.3038,2.2866,2.1264,2.0905,2.2246,2.1134,2.0533,2.0533,1.9505,1.8443,1.7423,1.8919,1.9124,1.8177,1.9206,1.9586,1.9422,1.9438,1.9428,1.9336,1.9772,2.0201,2.0439,1.9794,2.0194,2.1213,2.1366,2.2308,2.3844,2.5481,2.6486,2.7419,2.9326,3.0475,3.1395,3.2597,3.3696,3.4536,3.5199,3.4411,3.3232,3.2641,3.2001,3.1693,3.2401,3.2405,3.2253,3.2253,3.1579,3.062,2.9056,2.7012,2.5103,2.3645,2.1759,1.965,1.715,1.5157,0.0,0.0,1.0471,1.0194,0.9723,0.8998,0.8282,0.7492,0.4635,0.2482,0.1347,-0.0309,-0.1326,-0.1617,-0.1952,-0.2186,-0.2311,-0.4199,-0.664,-0.9433,-0.993,-1.0912,-1.2542,-1.3419,-1.4147,-1.4719,-1.7298,-1.892,-1.9676,-2.1038,-2.2647,-2.4322,-2.4907,-2.5616,-2.6571,-2.7521,-2.8229,-2.889,-3.0054,-3.1238,-3.2512,1.2059,1.4278,1.5877,1.5177,1.592,1.7155,1.8539,1.9096,2.0112,2.212,2.2441,2.253,2.2794,2.2904,2.3095,2.3275,2.3364,2.3275,2.3076,2.2701,2.253,2.253,2.253,2.253,2.253,2.2882,2.2334,2.0962,2.2162,2.2128,2.0759,2.1327,2.152,2.1369,2.1458,2.15,2.15,2.1586,2.2022,2.2554,2.1329,2.1862,2.3331,2.2876,2.4088,2.5971,2.668,2.7709,2.8774,2.9951,3.123,3.2449,3.3754,3.5098,3.644,3.6889,3.6343,3.5223,3.3384,3.3324,3.3713,3.3244,3.3704,3.4164,3.3857,3.2706,3.1636,3.1083,2.8295,2.5804,2.523,2.3002,2.0476,1.8067,0.0,0.0,0.0,1.1836,1.1699,1.0971,1.0095,0.9352,0.8941,0.6283,0.3966,0.2322,0.0835,-0.0514,-0.1517,-0.1952,-0.2186,-0.2311,-0.4466,-0.6843,-0.9169,-0.9654,-1.0358,-1.1388,-1.2767,-1.3575,-1.367,-1.592,-1.779,-1.9243,-2.0172,-2.1522,-2.3127,-2.4165,-2.5004,-2.5708,-2.6537,-2.7056,-2.7677,-2.8805,-2.9712,-3.0641,1.4771,1.6976,1.7938,1.532,1.8941,2.135,1.8814,2.0536,2.2208,2.2334,2.2618,2.2794,2.2794,2.3008,2.3096,2.3096,2.3096,2.3096,2.3096,2.3076,2.2969,2.2794,2.2969,2.2969,2.2794,2.2794,2.253,2.1998,2.246,2.2555,2.219,2.261,2.2811,2.2717,2.2753,2.2753,2.279,2.3153,2.3202,2.308,2.3734,2.3962,2.421,2.5569,2.6185,2.6698,2.9084,2.9839,2.9994,3.1295,3.1804,3.2141,3.3674,3.4303,3.5074,3.7938,3.8818,3.8064,3.4178,3.4886,3.6179,3.39,3.4493,3.5288,3.3888,3.3551,3.2839,3.0824,2.8994,2.7187,2.5309,2.2895,2.0883,2.003,0.0,0.0,1.3893,1.3143,1.2591,1.2342,1.2316,1.1769,1.0091,0.7557,0.4922,0.2283,0.0622,-0.0617,-0.1517,-0.1952,-0.2422,-0.305,-0.4579,-0.625,-0.8109,-0.8482,-1.0137,-1.2971,-1.1094,-1.2064,-1.5434,-1.495,-1.6136,-1.8532,-1.9488,-2.0494,-2.1524,-2.278,-2.3696,-2.4401,-2.5692,-2.6189,-2.6432,-2.7677,-2.8751,-2.9786,1.7595,1.9641,2.1083,1.992,2.1262,2.2189,2.1085,2.1692,2.2353,2.2618,2.4047,2.5213,2.5651,2.5651,2.5672,2.5826,2.4169,2.3144,2.3144,2.3221,2.3241,2.2989,2.2969,2.2882,2.2794,2.2866,2.282,2.246,2.2889,2.2908,2.2722,2.303,2.3231,2.3231,2.339,2.4017,2.4827,2.4801,2.5305,2.609,2.655,2.6778,2.6774,2.7559,2.8358,2.9062,3.0008,3.0838,3.1358,3.187,3.3479,3.5207,3.5596,3.7429,3.9426,3.9719,4.0211,3.988,3.6932,3.6224,3.6156,3.5323,3.4891,3.4491,3.3818,3.3367,3.2851,3.2003,3.0348,2.8577,2.7009,2.5086,2.2878,2.0031,0.0,1.6769,1.4885,1.4068,1.3656,1.3706,1.3093,1.2096,1.0494,0.8625,0.6427,0.347,0.1978,0.0723,-0.0513,-0.1776,-0.2668,-0.3062,-0.3862,-0.5135,-0.7022,-0.7808,-0.9161,-1.0811,-1.1647,-1.2183,-1.2388,-1.4649,-1.6,-1.6495,-1.8442,-1.9973,-2.1203,-2.1789,-2.2631,-2.3681,-2.4506,-2.5133,-2.5633,-2.647,-2.7608,-2.8733,2.0272,2.1632,2.2706,2.2618,2.2441,2.2264,2.2176,2.2176,2.2264,2.2618,2.5083,2.6998,2.7435,2.7765,2.7875,2.7544,2.5388,2.383,2.3359,2.3461,2.3429,2.3183,2.3075,2.2897,2.2897,2.3047,2.2981,2.2797,2.313,2.3238,2.3048,2.3547,2.3999,2.4403,2.4585,2.5419,2.6704,2.6504,2.7061,2.8045,2.8265,2.832,2.8408,2.9011,2.9778,3.0437,3.0765,3.144,3.2126,3.262,3.4409,3.6426,3.718,3.9465,4.175,4.0717,4.0671,4.067,3.9128,3.7737,3.6673,3.6128,3.549,3.4714,3.3706,3.2922,3.252,3.255,3.1062,2.9393,2.7884,2.6412,2.4306,2.0987,1.9382,1.8005,1.6336,1.5125,1.4396,1.46,1.4019,1.2946,1.1425,0.9981,0.7967,0.4982,0.3132,0.1346,-0.0518,-0.1899,-0.2793,-0.3062,-0.3429,-0.4257,-0.5686,-0.6874,-0.8278,-0.9758,-1.1354,-1.1763,-1.1156,-1.3598,-1.4671,-1.4823,-1.7029,-1.8648,-1.973,-2.0578,-2.1584,-2.2616,-2.3322,-2.3925,-2.4556,-2.5512,-2.6318,-2.7123,2.2794,2.2794,2.2618,2.2176,2.2106,2.2017,2.175,2.2176,2.2441,2.2441,2.5455,2.7544,2.7567,2.8889,2.9178,2.7676,2.6598,2.5308,2.3918,2.3905,2.3852,2.3448,2.3429,2.3229,2.3047,2.3205,2.3148,2.2866,2.3363,2.3547,2.3547,2.3969,2.4951,2.6408,2.6408,2.7142,2.8287,2.8287,2.8249,2.8281,2.8298,2.8408,2.8777,2.9776,3.0227,3.0442,3.1529,3.1754,3.1885,3.3749,3.438,3.4889,3.7987,3.9803,4.0896,4.0618,4.0517,4.0517,4.0517,3.9647,3.8282,3.6207,3.6246,3.6077,3.3727,3.258,3.2035,3.226,3.0968,2.9374,2.7687,2.6381,2.4884,2.3295,2.0507,1.8547,1.8547,1.632,1.46,1.46,1.5148,1.4815,1.294,1.1666,0.9655,0.6763,0.3751,0.0828,-0.197,-0.2428,-0.2793,-0.3062,-0.339,-0.3636,-0.4148,-0.5472,-0.7731,-1.0732,-0.9548,-1.0466,-1.3044,-1.1595,-1.1897,-1.3618,-1.5278,-1.6147,-1.6738,-1.9203,-2.0684,-2.1217,-2.1904,-2.2632,-2.3376,-2.4659,-2.4817,-2.4874,2.2794,2.253,2.2283,2.2106,2.2106,2.277,2.4948,2.5384,2.6387,2.8779,3.1661,3.3246,3.2769,3.2941,3.2609,3.1474,2.9145,2.7708,2.7359,2.5292,2.4536,2.559,2.4198,2.3335,2.3224,2.3352,2.3363,2.3363,2.3767,2.3969,2.3969,2.4097,2.4951,2.6408,2.6209,2.7522,2.987,2.9467,2.9923,3.082,3.0874,3.0831,3.0933,3.1579,3.2356,3.3333,3.3791,3.4464,3.523,3.5931,3.6921,3.8094,4.014,4.0978,4.1175,4.1081,4.0901,4.0771,4.0772,4.0354,3.9649,3.8238,3.665,3.5223,3.4246,3.3149,3.2199,3.2342,3.1896,3.1082,2.9717,2.8143,2.6608,2.4998,2.1309,1.8547,1.8547,1.632,1.4708,1.4826,1.5256,1.4973,1.3381,1.2981,1.1362,0.8138,0.4271,0.1346,-0.0415,-0.0843,-0.1592,-0.2636,-0.2157,-0.2611,-0.3895,-0.5495,-0.6797,-0.8031,-0.8673,-0.958,-1.0458,-1.0912,-1.1524,-1.2293,-1.3673,-1.5141,-1.6599,-1.7824,-1.9239,-2.0701,-2.1831,-2.2288,-2.2598,-2.3878,-2.4476,-2.4756,2.253,2.2264,2.2106,2.1909,2.2017,2.3113,2.6232,2.6801,2.8096,3.1192,3.4183,3.5652,3.4679,3.4996,3.4685,3.3092,3.051,2.8994,2.9107,2.7365,2.6764,2.7889,2.5976,2.4526,2.3673,2.3873,2.3883,2.3785,2.4089,2.429,2.429,2.4757,2.5824,2.7201,2.7523,2.8936,3.1171,3.0766,3.1149,3.1935,3.1927,3.1954,3.2062,3.2814,3.3658,3.4538,3.526,3.6015,3.6672,3.7493,3.8792,4.0174,4.1076,4.1235,4.1075,4.0901,4.0747,4.0542,4.0592,4.0383,3.9994,3.9411,3.7607,3.5663,3.467,3.3647,3.2818,3.2571,3.2498,3.1991,3.0596,2.9013,2.7355,2.5735,2.2035,1.9237,1.8671,1.6842,1.5468,1.5053,1.5363,1.5304,1.4484,1.3857,1.1887,0.8033,0.4717,0.1981,0.0207,-0.0211,-0.0847,-0.1782,-0.1912,-0.2243,-0.2981,-0.4537,-0.5716,-0.6562,-0.7657,-0.8249,-0.8567,-0.95,-1.0085,-1.039,-1.1678,-1.3175,-1.4631,-1.5843,-1.7469,-1.9307,-2.0252,-2.1321,-2.2345,-2.3334,-2.3992,-2.437,2.2106,2.2106,2.2017,2.1731,2.1909,2.3221,2.6427,2.7217,2.8539,3.1568,3.4412,3.5657,3.4495,3.5658,3.5578,3.3284,3.1012,2.9847,2.9937,2.9916,2.999,3.0162,2.8573,2.6804,2.4659,2.4632,2.4486,2.4306,2.4271,2.4368,2.4608,2.5694,2.7085,2.8716,2.9677,3.0867,3.2015,3.2161,3.2119,3.1887,3.2184,3.2338,3.2577,3.3982,3.4635,3.4843,3.6255,3.6788,3.7063,3.8466,4.003,4.1198,4.0896,4.087,4.0769,4.0287,4.0083,4.0083,4.0083,3.9878,3.98,3.9981,3.8896,3.7287,3.5245,3.434,3.3615,3.2964,3.2727,3.224,3.0769,2.9184,2.7523,2.5883,2.3039,2.0477,1.896,1.7882,1.673,1.5314,1.5577,1.5885,1.5885,1.4473,1.1581,0.7211,0.5197,0.306,0.0521,0.0,-0.0426,-0.0745,-0.1886,-0.2305,-0.1811,-0.3038,-0.4497,-0.6042,-0.6373,-0.6808,-0.7348,-0.7593,-0.7914,-0.8254,-0.9538,-1.0699,-1.1831,-1.3683,-1.5565,-1.7265,-1.8131,-1.9843,-2.2037,-2.2822,-2.3284,-2.3654,2.2106,2.1909,2.1731,2.1731,2.1909,2.3841,2.9121,2.953,3.1276,3.7289,3.7348,3.6687,3.6437,3.6006,3.523,3.4003,3.2323,3.1939,3.325,3.1285,3.0687,3.1895,3.0794,2.9332,2.7396,2.58,2.4894,2.4894,2.4702,2.5191,2.6391,2.6218,2.7597,3.0184,2.9982,3.0643,3.2037,3.3152,3.2846,3.1848,3.4416,3.4783,3.3925,3.5491,3.694,3.791,3.8457,3.9066,3.9626,3.9829,4.0363,4.0896,4.0389,4.0593,4.0769,4.0287,4.0083,4.0083,4.0083,3.9878,3.9697,3.98,3.9465,3.8921,3.7501,3.5681,3.436,3.4134,3.3388,3.2592,3.224,3.0903,2.9203,2.7636,2.4732,2.2131,2.0603,1.855,1.713,1.6742,1.6233,1.5885,1.5885,1.4261,1.224,0.9854,0.718,0.4786,0.2909,0.1923,0.0744,-0.0744,-0.0212,-0.0847,-0.2986,-0.2651,-0.3178,-0.4684,-0.5066,-0.5769,-0.6904,-0.6537,-0.7225,-0.8571,-0.8642,-0.9696,-1.1541,-1.2574,-1.4202,-1.6102,-1.7811,-1.8997,-2.0164,-2.2007,-2.2443,-2.2375,2.1928,2.1986,2.2025,2.2025,2.2372,2.4212,2.8699,2.9715,3.1734,3.6651,3.7077,3.6607,3.5998,3.5642,3.4993,3.4162,3.3586,3.3632,3.4568,3.3292,3.3095,3.4074,3.2694,3.1391,3.0453,2.7898,2.604,2.5237,2.513,2.573,2.7143,2.7272,2.8528,3.0686,3.0627,3.16,3.3186,3.3866,3.3958,3.3958,3.5717,3.589,3.5035,3.7025,3.8058,3.8641,3.9625,4.0262,4.0517,4.0287,4.0491,4.0694,4.0389,4.0491,4.0593,4.0185,4.0083,4.0083,4.0083,3.9878,3.9697,3.9878,3.98,3.9362,3.8161,3.6534,3.5113,3.458,3.3501,3.2727,3.2727,3.1405,2.9792,2.8106,2.5813,2.3456,2.1182,1.9943,1.8755,1.7399,1.6908,1.6448,1.5577,1.3933,1.249,1.1502,0.8629,0.6187,0.4676,0.335,0.1722,0.0108,-0.0,-0.0851,-0.2558,-0.2768,-0.3406,-0.4262,-0.4658,-0.515,-0.5854,-0.5743,-0.6517,-0.7887,-0.7786,-0.8622,-1.018,-1.1214,-1.2508,-1.4192,-1.5954,-1.7738,-1.9533,-2.1,-2.1918,-2.2506,2.1823,2.2098,2.2355,2.2428,2.2908,2.4294,2.7191,2.8784,3.0762,3.395,3.51,3.5375,3.4872,3.4896,3.4823,3.4261,3.4626,3.4841,3.4893,3.5183,3.5427,3.5782,3.4102,3.3005,3.2767,3.0078,2.789,2.6182,2.5996,2.6605,2.8009,2.8595,2.9723,3.1154,3.1775,3.2881,3.4411,3.4778,3.5341,3.6057,3.686,3.6783,3.6374,3.8415,3.8944,3.8689,4.0312,4.0694,4.0389,4.0389,4.0389,4.0389,4.0415,4.0389,4.0389,4.0083,4.0083,4.0083,4.0083,3.9878,3.98,3.9981,3.9878,3.9337,3.817,3.7002,3.5968,3.5024,3.3706,3.2727,3.2612,3.158,3.0117,2.8125,2.6757,2.4687,2.1511,2.139,2.0582,1.772,1.7334,1.6667,1.5217,1.3996,1.3009,1.2493,0.9964,0.7802,0.6245,0.46,0.2848,0.1205,-0.0216,-0.1071,-0.1289,-0.2692,-0.3452,-0.3775,-0.4266,-0.4764,-0.5043,-0.527,-0.6043,-0.7046,-0.7046,-0.7768,-0.8854,-0.97,-1.0778,-1.208,-1.3636,-1.6034,-1.8639,-1.9746,-2.1394,-2.3006,2.2171,2.2282,2.2447,2.272,2.3111,2.422,2.691,2.6989,2.8561,3.3433,3.2711,3.2499,3.463,3.4433,3.4359,3.4628,3.496,3.5146,3.5118,3.5559,3.5596,3.5318,3.5152,3.4245,3.2433,3.1967,3.0827,2.9145,2.787,2.8609,3.0965,3.039,3.097,3.269,3.3401,3.3912,3.4356,3.686,3.703,3.605,3.8841,3.9043,3.7931,3.9626,4.0287,4.0185,4.0465,4.0389,4.0083,3.9903,3.9981,4.0083,3.9903,3.9981,4.0083,3.9775,3.98,3.98,3.98,3.9697,3.9697,3.98,3.9697,3.9365,3.802,3.698,3.6185,3.5968,3.4246,3.2612,3.2363,3.2322,3.1291,2.7952,2.7559,2.6328,2.2812,2.178,2.0545,1.8644,1.6646,1.5479,1.5678,1.5032,1.4224,1.3041,1.2379,1.0705,0.7725,0.6154,0.4446,0.2563,0.0988,0.011,-0.0222,-0.0903,-0.1363,-0.1363,-0.2959,-0.4305,-0.5382,-0.5382,-0.5816,-0.6696,-0.693,-0.7655,-0.8494,-0.8976,-0.97,-1.0657,-1.196,-1.3759,-1.5782,-1.8665,-2.1002,-2.2648,2.2593,2.285,2.307,2.3158,2.357,2.4197,2.5373,2.6741,2.8446,3.0763,3.1802,3.2796,3.4017,3.4398,3.4587,3.4762,3.5159,3.5482,3.5559,3.5538,3.5468,3.5409,3.4854,3.4256,3.3263,3.2355,3.1797,3.1705,2.9828,2.9829,3.1586,3.2009,3.2913,3.4504,3.5121,3.6033,3.7019,3.7907,3.8234,3.8358,4.0721,4.0619,3.9141,4.0951,4.0977,4.0108,4.0108,4.0006,3.9878,3.9697,3.98,3.9878,3.9697,3.98,3.9878,3.9697,3.9697,3.9697,3.9697,3.9697,3.9697,3.9697,3.9697,3.9519,3.896,3.7331,3.5879,3.5233,3.3744,3.2529,3.2322,3.2498,3.1848,2.9106,2.8032,2.6739,2.4194,2.2751,2.1115,1.8823,1.677,1.5401,1.5076,1.5099,1.4885,1.4169,1.3269,1.2082,1.063,0.7963,0.5756,0.4177,0.223,0.0553,-0.0883,-0.157,-0.1924,-0.1812,-0.297,-0.3771,-0.4315,-0.5065,-0.5677,-0.6267,-0.6672,-0.7138,-0.778,-0.8337,-0.8854,-0.9335,-1.0657,-1.238,-1.462,-1.7941,-1.9747,-2.0687]}]]